<?xml version="1.0" encoding="UTF-8" standalone="no" ?>
<gpx xmlns="http://www.topografix.com/GPX/1/1" xmlns:xsi="http://www.w3.org/2001/XMLSchema-instance" xsi:schemaLocation="http://www.topografix.com/GPX/1/1 http://www.topografix.com/GPX/1/1/gpx.xsd" version="1.1" creator="VisuGPX - https://www.visugpx.com">
  <metadata>
    <name>2020-01-08 08:29</name>
    <desc><![CDATA[Tour du Crêt du Rey - Combe Bénite]]></desc>
  </metadata>
  <trk>
    <name><![CDATA[2020-01-08 08:29]]></name>
    <desc><![CDATA[<p>Heure de départ: 08:29 8 janv. 2020<br/>Heure d'arrivée: 14:48 8 janv. 2020<br/>Distance: 21,2 km (06:19)<br/>Temps déplacement: 04:31<br/>Vitesse moyenne: 3,35 km/h<br/>Vitesse moyenne mouv.: 4,68 km/h<br/>Vitesse Max.: 29,52 km/h<br/>Altitude minimale: 1379 m<br/>Altitude maximale: 2562 m<br/>Vitesse de montée: 312 m/h<br/>Vitesse de descente: -1034,4 m/h<br/>Gain d'altitude: 1509 m<br/>Perte d'altitude: -1492 m<br/>Temps de montée: 04:50<br/>Temps de descente: 01:26<br/></p><hr align="center" width="480" style="height: 2px; width: 517px"/>]]></desc>
    <trkseg>
      <trkpt lat="45.57809" lon="6.65228">
        <ele>1391.45</ele>
        <time>2020-01-08T07:29:20.000Z</time>
      </trkpt>
      <trkpt lat="45.57818" lon="6.65232">
        <ele>1388.67</ele>
        <time>2020-01-08T07:29:49.000Z</time>
      </trkpt>
      <trkpt lat="45.57828" lon="6.65236">
        <ele>1387.41</ele>
        <time>2020-01-08T07:30:00.000Z</time>
      </trkpt>
      <trkpt lat="45.57838" lon="6.65233">
        <ele>1386.53</ele>
        <time>2020-01-08T07:30:06.000Z</time>
      </trkpt>
      <trkpt lat="45.57846" lon="6.6524">
        <ele>1385.38</ele>
        <time>2020-01-08T07:30:13.000Z</time>
      </trkpt>
      <trkpt lat="45.57855" lon="6.65243">
        <ele>1384.2</ele>
        <time>2020-01-08T07:30:20.000Z</time>
      </trkpt>
      <trkpt lat="45.57864" lon="6.65245">
        <ele>1383.03</ele>
        <time>2020-01-08T07:30:28.000Z</time>
      </trkpt>
      <trkpt lat="45.57872" lon="6.65252">
        <ele>1381.82</ele>
        <time>2020-01-08T07:30:38.000Z</time>
      </trkpt>
      <trkpt lat="45.5788" lon="6.65246">
        <ele>1380.41</ele>
        <time>2020-01-08T07:31:05.000Z</time>
      </trkpt>
      <trkpt lat="45.57887" lon="6.65256">
        <ele>1379.63</ele>
        <time>2020-01-08T07:34:10.000Z</time>
      </trkpt>
      <trkpt lat="45.57896" lon="6.65257">
        <ele>1379.63</ele>
        <time>2020-01-08T07:34:17.000Z</time>
      </trkpt>
      <trkpt lat="45.57905" lon="6.65253">
        <ele>1379.61</ele>
        <time>2020-01-08T07:34:31.000Z</time>
      </trkpt>
      <trkpt lat="45.57914" lon="6.65258">
        <ele>1379.6</ele>
        <time>2020-01-08T07:34:36.000Z</time>
      </trkpt>
      <trkpt lat="45.57923" lon="6.65256">
        <ele>1379.58</ele>
        <time>2020-01-08T07:34:42.000Z</time>
      </trkpt>
      <trkpt lat="45.57933" lon="6.65259">
        <ele>1379.54</ele>
        <time>2020-01-08T07:34:54.000Z</time>
      </trkpt>
      <trkpt lat="45.57942" lon="6.65262">
        <ele>1379.51</ele>
        <time>2020-01-08T07:35:03.000Z</time>
      </trkpt>
      <trkpt lat="45.57951" lon="6.65261">
        <ele>1379.57</ele>
        <time>2020-01-08T07:35:25.000Z</time>
      </trkpt>
      <trkpt lat="45.57963" lon="6.65261">
        <ele>1379.67</ele>
        <time>2020-01-08T07:35:35.000Z</time>
      </trkpt>
      <trkpt lat="45.57973" lon="6.65256">
        <ele>1379.72</ele>
        <time>2020-01-08T07:35:40.000Z</time>
      </trkpt>
      <trkpt lat="45.57983" lon="6.65252">
        <ele>1379.78</ele>
        <time>2020-01-08T07:35:45.000Z</time>
      </trkpt>
      <trkpt lat="45.57993" lon="6.65254">
        <ele>1380.34</ele>
        <time>2020-01-08T07:36:22.000Z</time>
      </trkpt>
      <trkpt lat="45.58002" lon="6.65255">
        <ele>1380.46</ele>
        <time>2020-01-08T07:36:25.000Z</time>
      </trkpt>
      <trkpt lat="45.58012" lon="6.65259">
        <ele>1380.58</ele>
        <time>2020-01-08T07:36:28.000Z</time>
      </trkpt>
      <trkpt lat="45.58018" lon="6.6525">
        <ele>1381.48</ele>
        <time>2020-01-08T07:36:51.000Z</time>
      </trkpt>
      <trkpt lat="45.58027" lon="6.65244">
        <ele>1381.73</ele>
        <time>2020-01-08T07:36:59.000Z</time>
      </trkpt>
      <trkpt lat="45.58036" lon="6.6524">
        <ele>1382.12</ele>
        <time>2020-01-08T07:37:13.000Z</time>
      </trkpt>
      <trkpt lat="45.58044" lon="6.65233">
        <ele>1382.84</ele>
        <time>2020-01-08T07:37:58.000Z</time>
      </trkpt>
      <trkpt lat="45.58053" lon="6.65225">
        <ele>1382.94</ele>
        <time>2020-01-08T07:38:03.000Z</time>
      </trkpt>
      <trkpt lat="45.58062" lon="6.65221">
        <ele>1383.09</ele>
        <time>2020-01-08T07:38:11.000Z</time>
      </trkpt>
      <trkpt lat="45.5807" lon="6.65213">
        <ele>1383.47</ele>
        <time>2020-01-08T07:38:53.000Z</time>
      </trkpt>
      <trkpt lat="45.58079" lon="6.6521">
        <ele>1383.64</ele>
        <time>2020-01-08T07:39:01.000Z</time>
      </trkpt>
      <trkpt lat="45.58087" lon="6.65203">
        <ele>1383.92</ele>
        <time>2020-01-08T07:39:17.000Z</time>
      </trkpt>
      <trkpt lat="45.58097" lon="6.65198">
        <ele>1384</ele>
        <time>2020-01-08T07:39:22.000Z</time>
      </trkpt>
      <trkpt lat="45.58103" lon="6.65187">
        <ele>1384.8</ele>
        <time>2020-01-08T07:39:45.000Z</time>
      </trkpt>
      <trkpt lat="45.58108" lon="6.65177">
        <ele>1385.19</ele>
        <time>2020-01-08T07:39:54.000Z</time>
      </trkpt>
      <trkpt lat="45.58117" lon="6.65171">
        <ele>1385.76</ele>
        <time>2020-01-08T07:40:07.000Z</time>
      </trkpt>
      <trkpt lat="45.58127" lon="6.65166">
        <ele>1386.08</ele>
        <time>2020-01-08T07:40:15.000Z</time>
      </trkpt>
      <trkpt lat="45.58136" lon="6.65162">
        <ele>1386.43</ele>
        <time>2020-01-08T07:40:23.000Z</time>
      </trkpt>
      <trkpt lat="45.58145" lon="6.65158">
        <ele>1387.04</ele>
        <time>2020-01-08T07:40:36.000Z</time>
      </trkpt>
      <trkpt lat="45.58154" lon="6.65154">
        <ele>1388.02</ele>
        <time>2020-01-08T07:40:50.000Z</time>
      </trkpt>
      <trkpt lat="45.58163" lon="6.65154">
        <ele>1389.41</ele>
        <time>2020-01-08T07:41:08.000Z</time>
      </trkpt>
      <trkpt lat="45.58171" lon="6.65146">
        <ele>1390.3</ele>
        <time>2020-01-08T07:41:19.000Z</time>
      </trkpt>
      <trkpt lat="45.5818" lon="6.65145">
        <ele>1390.93</ele>
        <time>2020-01-08T07:41:26.000Z</time>
      </trkpt>
      <trkpt lat="45.5819" lon="6.65142">
        <ele>1393.12</ele>
        <time>2020-01-08T07:41:49.000Z</time>
      </trkpt>
      <trkpt lat="45.58199" lon="6.65144">
        <ele>1393.88</ele>
        <time>2020-01-08T07:41:57.000Z</time>
      </trkpt>
      <trkpt lat="45.5821" lon="6.65146">
        <ele>1395.04</ele>
        <time>2020-01-08T07:42:06.000Z</time>
      </trkpt>
      <trkpt lat="45.58219" lon="6.65143">
        <ele>1396.9</ele>
        <time>2020-01-08T07:42:18.000Z</time>
      </trkpt>
      <trkpt lat="45.58229" lon="6.65145">
        <ele>1398.09</ele>
        <time>2020-01-08T07:42:25.000Z</time>
      </trkpt>
      <trkpt lat="45.58238" lon="6.65148">
        <ele>1399.12</ele>
        <time>2020-01-08T07:42:31.000Z</time>
      </trkpt>
      <trkpt lat="45.58247" lon="6.65145">
        <ele>1400.81</ele>
        <time>2020-01-08T07:42:40.000Z</time>
      </trkpt>
      <trkpt lat="45.58257" lon="6.65145">
        <ele>1403.71</ele>
        <time>2020-01-08T07:42:54.000Z</time>
      </trkpt>
      <trkpt lat="45.58266" lon="6.65147">
        <ele>1405.34</ele>
        <time>2020-01-08T07:43:01.000Z</time>
      </trkpt>
      <trkpt lat="45.58275" lon="6.65154">
        <ele>1408.3</ele>
        <time>2020-01-08T07:43:14.000Z</time>
      </trkpt>
      <trkpt lat="45.58284" lon="6.65151">
        <ele>1411.05</ele>
        <time>2020-01-08T07:43:27.000Z</time>
      </trkpt>
      <trkpt lat="45.58294" lon="6.65153">
        <ele>1412.58</ele>
        <time>2020-01-08T07:43:34.000Z</time>
      </trkpt>
      <trkpt lat="45.58304" lon="6.6515">
        <ele>1417.52</ele>
        <time>2020-01-08T07:43:59.000Z</time>
      </trkpt>
      <trkpt lat="45.58314" lon="6.65154">
        <ele>1419.24</ele>
        <time>2020-01-08T07:44:09.000Z</time>
      </trkpt>
      <trkpt lat="45.58322" lon="6.6516">
        <ele>1422.37</ele>
        <time>2020-01-08T07:44:27.000Z</time>
      </trkpt>
      <trkpt lat="45.58331" lon="6.65163">
        <ele>1423.73</ele>
        <time>2020-01-08T07:44:34.000Z</time>
      </trkpt>
      <trkpt lat="45.5834" lon="6.65164">
        <ele>1424.92</ele>
        <time>2020-01-08T07:44:40.000Z</time>
      </trkpt>
      <trkpt lat="45.5835" lon="6.65162">
        <ele>1427.46</ele>
        <time>2020-01-08T07:44:52.000Z</time>
      </trkpt>
      <trkpt lat="45.5836" lon="6.65162">
        <ele>1431.48</ele>
        <time>2020-01-08T07:45:12.000Z</time>
      </trkpt>
      <trkpt lat="45.58369" lon="6.65167">
        <ele>1432.95</ele>
        <time>2020-01-08T07:45:19.000Z</time>
      </trkpt>
      <trkpt lat="45.58378" lon="6.65171">
        <ele>1433.97</ele>
        <time>2020-01-08T07:45:24.000Z</time>
      </trkpt>
      <trkpt lat="45.58387" lon="6.65176">
        <ele>1436.21</ele>
        <time>2020-01-08T07:45:35.000Z</time>
      </trkpt>
      <trkpt lat="45.58395" lon="6.65183">
        <ele>1438.77</ele>
        <time>2020-01-08T07:45:49.000Z</time>
      </trkpt>
      <trkpt lat="45.584" lon="6.65172">
        <ele>1441.06</ele>
        <time>2020-01-08T07:46:03.000Z</time>
      </trkpt>
      <trkpt lat="45.58408" lon="6.6518">
        <ele>1442.23</ele>
        <time>2020-01-08T07:46:11.000Z</time>
      </trkpt>
      <trkpt lat="45.58416" lon="6.65173">
        <ele>1443.97</ele>
        <time>2020-01-08T07:46:25.000Z</time>
      </trkpt>
      <trkpt lat="45.58426" lon="6.65172">
        <ele>1446.2</ele>
        <time>2020-01-08T07:46:43.000Z</time>
      </trkpt>
      <trkpt lat="45.58436" lon="6.65173">
        <ele>1448.2</ele>
        <time>2020-01-08T07:47:00.000Z</time>
      </trkpt>
      <trkpt lat="45.58445" lon="6.65173">
        <ele>1449.16</ele>
        <time>2020-01-08T07:47:07.000Z</time>
      </trkpt>
      <trkpt lat="45.58455" lon="6.65174">
        <ele>1450.19</ele>
        <time>2020-01-08T07:47:15.000Z</time>
      </trkpt>
      <trkpt lat="45.58464" lon="6.65172">
        <ele>1451.62</ele>
        <time>2020-01-08T07:47:26.000Z</time>
      </trkpt>
      <trkpt lat="45.58474" lon="6.65168">
        <ele>1453.01</ele>
        <time>2020-01-08T07:47:37.000Z</time>
      </trkpt>
      <trkpt lat="45.58482" lon="6.65164">
        <ele>1454.16</ele>
        <time>2020-01-08T07:47:46.000Z</time>
      </trkpt>
      <trkpt lat="45.58491" lon="6.65158">
        <ele>1456.07</ele>
        <time>2020-01-08T07:48:05.000Z</time>
      </trkpt>
      <trkpt lat="45.58499" lon="6.65153">
        <ele>1457.84</ele>
        <time>2020-01-08T07:48:19.000Z</time>
      </trkpt>
      <trkpt lat="45.58506" lon="6.65144">
        <ele>1458.71</ele>
        <time>2020-01-08T07:48:26.000Z</time>
      </trkpt>
      <trkpt lat="45.58515" lon="6.65141">
        <ele>1459.93</ele>
        <time>2020-01-08T07:48:36.000Z</time>
      </trkpt>
      <trkpt lat="45.58525" lon="6.6514">
        <ele>1460.9</ele>
        <time>2020-01-08T07:48:44.000Z</time>
      </trkpt>
      <trkpt lat="45.58534" lon="6.65135">
        <ele>1462.6</ele>
        <time>2020-01-08T07:48:59.000Z</time>
      </trkpt>
      <trkpt lat="45.5854" lon="6.65125">
        <ele>1463.81</ele>
        <time>2020-01-08T07:49:09.000Z</time>
      </trkpt>
      <trkpt lat="45.58547" lon="6.65115">
        <ele>1465.32</ele>
        <time>2020-01-08T07:49:21.000Z</time>
      </trkpt>
      <trkpt lat="45.58555" lon="6.65108">
        <ele>1466.94</ele>
        <time>2020-01-08T07:49:34.000Z</time>
      </trkpt>
      <trkpt lat="45.58562" lon="6.65098">
        <ele>1468.6</ele>
        <time>2020-01-08T07:49:50.000Z</time>
      </trkpt>
      <trkpt lat="45.58571" lon="6.65094">
        <ele>1470.74</ele>
        <time>2020-01-08T07:50:10.000Z</time>
      </trkpt>
      <trkpt lat="45.58578" lon="6.65086">
        <ele>1471.26</ele>
        <time>2020-01-08T07:50:16.000Z</time>
      </trkpt>
      <trkpt lat="45.58584" lon="6.65077">
        <ele>1472.26</ele>
        <time>2020-01-08T07:50:29.000Z</time>
      </trkpt>
      <trkpt lat="45.58592" lon="6.65068">
        <ele>1473.49</ele>
        <time>2020-01-08T07:50:44.000Z</time>
      </trkpt>
      <trkpt lat="45.586" lon="6.65061">
        <ele>1474.31</ele>
        <time>2020-01-08T07:50:57.000Z</time>
      </trkpt>
      <trkpt lat="45.58608" lon="6.65054">
        <ele>1475.31</ele>
        <time>2020-01-08T07:51:09.000Z</time>
      </trkpt>
      <trkpt lat="45.58617" lon="6.65051">
        <ele>1475.98</ele>
        <time>2020-01-08T07:51:17.000Z</time>
      </trkpt>
      <trkpt lat="45.58626" lon="6.65046">
        <ele>1477.55</ele>
        <time>2020-01-08T07:51:36.000Z</time>
      </trkpt>
      <trkpt lat="45.58634" lon="6.65038">
        <ele>1478.5</ele>
        <time>2020-01-08T07:51:44.000Z</time>
      </trkpt>
      <trkpt lat="45.58641" lon="6.65029">
        <ele>1479.36</ele>
        <time>2020-01-08T07:51:51.000Z</time>
      </trkpt>
      <trkpt lat="45.5865" lon="6.65026">
        <ele>1481.27</ele>
        <time>2020-01-08T07:52:05.000Z</time>
      </trkpt>
      <trkpt lat="45.58659" lon="6.6502">
        <ele>1482.47</ele>
        <time>2020-01-08T07:52:13.000Z</time>
      </trkpt>
      <trkpt lat="45.58666" lon="6.6501">
        <ele>1484.09</ele>
        <time>2020-01-08T07:52:23.000Z</time>
      </trkpt>
      <trkpt lat="45.58671" lon="6.64999">
        <ele>1486.24</ele>
        <time>2020-01-08T07:52:36.000Z</time>
      </trkpt>
      <trkpt lat="45.58677" lon="6.64989">
        <ele>1487.84</ele>
        <time>2020-01-08T07:52:47.000Z</time>
      </trkpt>
      <trkpt lat="45.58682" lon="6.64978">
        <ele>1489.75</ele>
        <time>2020-01-08T07:53:00.000Z</time>
      </trkpt>
      <trkpt lat="45.5869" lon="6.64971">
        <ele>1490.76</ele>
        <time>2020-01-08T07:53:08.000Z</time>
      </trkpt>
      <trkpt lat="45.58695" lon="6.64959">
        <ele>1492.05</ele>
        <time>2020-01-08T07:53:19.000Z</time>
      </trkpt>
      <trkpt lat="45.58702" lon="6.6495">
        <ele>1493.87</ele>
        <time>2020-01-08T07:53:36.000Z</time>
      </trkpt>
      <trkpt lat="45.58708" lon="6.6494">
        <ele>1495.33</ele>
        <time>2020-01-08T07:53:47.000Z</time>
      </trkpt>
      <trkpt lat="45.58713" lon="6.64928">
        <ele>1496.86</ele>
        <time>2020-01-08T07:53:59.000Z</time>
      </trkpt>
      <trkpt lat="45.5872" lon="6.64918">
        <ele>1498.02</ele>
        <time>2020-01-08T07:54:08.000Z</time>
      </trkpt>
      <trkpt lat="45.58723" lon="6.64904">
        <ele>1499.96</ele>
        <time>2020-01-08T07:54:23.000Z</time>
      </trkpt>
      <trkpt lat="45.58727" lon="6.64892">
        <ele>1502.06</ele>
        <time>2020-01-08T07:54:39.000Z</time>
      </trkpt>
      <trkpt lat="45.58732" lon="6.6488">
        <ele>1503.78</ele>
        <time>2020-01-08T07:54:52.000Z</time>
      </trkpt>
      <trkpt lat="45.58736" lon="6.64868">
        <ele>1504.82</ele>
        <time>2020-01-08T07:55:00.000Z</time>
      </trkpt>
      <trkpt lat="45.58737" lon="6.64855">
        <ele>1506.69</ele>
        <time>2020-01-08T07:55:14.000Z</time>
      </trkpt>
      <trkpt lat="45.58745" lon="6.64847">
        <ele>1508.63</ele>
        <time>2020-01-08T07:55:28.000Z</time>
      </trkpt>
      <trkpt lat="45.58754" lon="6.64842">
        <ele>1509.8</ele>
        <time>2020-01-08T07:55:38.000Z</time>
      </trkpt>
      <trkpt lat="45.5876" lon="6.64831">
        <ele>1510.95</ele>
        <time>2020-01-08T07:55:47.000Z</time>
      </trkpt>
      <trkpt lat="45.58766" lon="6.64818">
        <ele>1513.09</ele>
        <time>2020-01-08T07:56:03.000Z</time>
      </trkpt>
      <trkpt lat="45.58771" lon="6.64805">
        <ele>1515.86</ele>
        <time>2020-01-08T07:56:27.000Z</time>
      </trkpt>
      <trkpt lat="45.58777" lon="6.64795">
        <ele>1517.84</ele>
        <time>2020-01-08T07:56:42.000Z</time>
      </trkpt>
      <trkpt lat="45.58785" lon="6.64786">
        <ele>1518.78</ele>
        <time>2020-01-08T07:56:49.000Z</time>
      </trkpt>
      <trkpt lat="45.58791" lon="6.64777">
        <ele>1520.17</ele>
        <time>2020-01-08T07:56:59.000Z</time>
      </trkpt>
      <trkpt lat="45.58798" lon="6.64767">
        <ele>1521.58</ele>
        <time>2020-01-08T07:57:09.000Z</time>
      </trkpt>
      <trkpt lat="45.58806" lon="6.64757">
        <ele>1522.87</ele>
        <time>2020-01-08T07:57:18.000Z</time>
      </trkpt>
      <trkpt lat="45.58814" lon="6.64753">
        <ele>1524.64</ele>
        <time>2020-01-08T07:57:31.000Z</time>
      </trkpt>
      <trkpt lat="45.58824" lon="6.64755">
        <ele>1525.41</ele>
        <time>2020-01-08T07:57:37.000Z</time>
      </trkpt>
      <trkpt lat="45.58834" lon="6.64756">
        <ele>1526.14</ele>
        <time>2020-01-08T07:57:43.000Z</time>
      </trkpt>
      <trkpt lat="45.58842" lon="6.64762">
        <ele>1528.34</ele>
        <time>2020-01-08T07:57:57.000Z</time>
      </trkpt>
      <trkpt lat="45.58851" lon="6.64762">
        <ele>1530.26</ele>
        <time>2020-01-08T07:58:08.000Z</time>
      </trkpt>
      <trkpt lat="45.5886" lon="6.64768">
        <ele>1532.76</ele>
        <time>2020-01-08T07:58:21.000Z</time>
      </trkpt>
      <trkpt lat="45.58868" lon="6.64774">
        <ele>1534.55</ele>
        <time>2020-01-08T07:58:30.000Z</time>
      </trkpt>
      <trkpt lat="45.58876" lon="6.6478">
        <ele>1538.94</ele>
        <time>2020-01-08T07:58:50.000Z</time>
      </trkpt>
      <trkpt lat="45.58886" lon="6.64778">
        <ele>1540.76</ele>
        <time>2020-01-08T07:58:58.000Z</time>
      </trkpt>
      <trkpt lat="45.58895" lon="6.64776">
        <ele>1546.06</ele>
        <time>2020-01-08T07:59:39.000Z</time>
      </trkpt>
      <trkpt lat="45.58899" lon="6.64764">
        <ele>1548.84</ele>
        <time>2020-01-08T07:59:52.000Z</time>
      </trkpt>
      <trkpt lat="45.589" lon="6.64751">
        <ele>1550.13</ele>
        <time>2020-01-08T07:59:58.000Z</time>
      </trkpt>
      <trkpt lat="45.589" lon="6.64738">
        <ele>1552.69</ele>
        <time>2020-01-08T08:00:08.000Z</time>
      </trkpt>
      <trkpt lat="45.58907" lon="6.64729">
        <ele>1555.97</ele>
        <time>2020-01-08T08:00:21.000Z</time>
      </trkpt>
      <trkpt lat="45.58917" lon="6.64726">
        <ele>1557.78</ele>
        <time>2020-01-08T08:00:30.000Z</time>
      </trkpt>
      <trkpt lat="45.58926" lon="6.64726">
        <ele>1559.8</ele>
        <time>2020-01-08T08:00:44.000Z</time>
      </trkpt>
      <trkpt lat="45.58937" lon="6.64727">
        <ele>1560.8</ele>
        <time>2020-01-08T08:00:51.000Z</time>
      </trkpt>
      <trkpt lat="45.58947" lon="6.64725">
        <ele>1561.7</ele>
        <time>2020-01-08T08:00:58.000Z</time>
      </trkpt>
      <trkpt lat="45.58956" lon="6.64724">
        <ele>1562.73</ele>
        <time>2020-01-08T08:01:08.000Z</time>
      </trkpt>
      <trkpt lat="45.58966" lon="6.64725">
        <ele>1563.64</ele>
        <time>2020-01-08T08:01:17.000Z</time>
      </trkpt>
      <trkpt lat="45.58975" lon="6.64723">
        <ele>1564.36</ele>
        <time>2020-01-08T08:01:25.000Z</time>
      </trkpt>
      <trkpt lat="45.58985" lon="6.64721">
        <ele>1565.17</ele>
        <time>2020-01-08T08:01:35.000Z</time>
      </trkpt>
      <trkpt lat="45.58994" lon="6.64717">
        <ele>1565.97</ele>
        <time>2020-01-08T08:01:46.000Z</time>
      </trkpt>
      <trkpt lat="45.59003" lon="6.64709">
        <ele>1566.6</ele>
        <time>2020-01-08T08:01:55.000Z</time>
      </trkpt>
      <trkpt lat="45.5901" lon="6.64701">
        <ele>1567.11</ele>
        <time>2020-01-08T08:02:03.000Z</time>
      </trkpt>
      <trkpt lat="45.59016" lon="6.6469">
        <ele>1567.7</ele>
        <time>2020-01-08T08:02:13.000Z</time>
      </trkpt>
      <trkpt lat="45.59021" lon="6.64678">
        <ele>1568.26</ele>
        <time>2020-01-08T08:02:23.000Z</time>
      </trkpt>
      <trkpt lat="45.59027" lon="6.64667">
        <ele>1568.67</ele>
        <time>2020-01-08T08:02:31.000Z</time>
      </trkpt>
      <trkpt lat="45.59032" lon="6.64655">
        <ele>1569.43</ele>
        <time>2020-01-08T08:02:44.000Z</time>
      </trkpt>
      <trkpt lat="45.5904" lon="6.64648">
        <ele>1569.96</ele>
        <time>2020-01-08T08:02:54.000Z</time>
      </trkpt>
      <trkpt lat="45.59045" lon="6.64638">
        <ele>1570.5</ele>
        <time>2020-01-08T08:03:06.000Z</time>
      </trkpt>
      <trkpt lat="45.59054" lon="6.64638">
        <ele>1570.95</ele>
        <time>2020-01-08T08:03:17.000Z</time>
      </trkpt>
      <trkpt lat="45.59066" lon="6.64639">
        <ele>1571.15</ele>
        <time>2020-01-08T08:03:24.000Z</time>
      </trkpt>
      <trkpt lat="45.59074" lon="6.64631">
        <ele>1571.57</ele>
        <time>2020-01-08T08:03:35.000Z</time>
      </trkpt>
      <trkpt lat="45.59079" lon="6.6462">
        <ele>1571.88</ele>
        <time>2020-01-08T08:03:44.000Z</time>
      </trkpt>
      <trkpt lat="45.59085" lon="6.64609">
        <ele>1572.23</ele>
        <time>2020-01-08T08:03:54.000Z</time>
      </trkpt>
      <trkpt lat="45.59093" lon="6.646">
        <ele>1572.5</ele>
        <time>2020-01-08T08:04:02.000Z</time>
      </trkpt>
      <trkpt lat="45.59099" lon="6.64589">
        <ele>1572.79</ele>
        <time>2020-01-08T08:04:11.000Z</time>
      </trkpt>
      <trkpt lat="45.59108" lon="6.64585">
        <ele>1572.93</ele>
        <time>2020-01-08T08:04:16.000Z</time>
      </trkpt>
      <trkpt lat="45.59114" lon="6.64574">
        <ele>1573.29</ele>
        <time>2020-01-08T08:04:29.000Z</time>
      </trkpt>
      <trkpt lat="45.59121" lon="6.64564">
        <ele>1573.48</ele>
        <time>2020-01-08T08:04:36.000Z</time>
      </trkpt>
      <trkpt lat="45.59128" lon="6.64555">
        <ele>1573.78</ele>
        <time>2020-01-08T08:04:47.000Z</time>
      </trkpt>
      <trkpt lat="45.59133" lon="6.64544">
        <ele>1574.33</ele>
        <time>2020-01-08T08:05:10.000Z</time>
      </trkpt>
      <trkpt lat="45.59142" lon="6.64535">
        <ele>1574.72</ele>
        <time>2020-01-08T08:05:22.000Z</time>
      </trkpt>
      <trkpt lat="45.5915" lon="6.64528">
        <ele>1574.94</ele>
        <time>2020-01-08T08:05:28.000Z</time>
      </trkpt>
      <trkpt lat="45.59157" lon="6.64517">
        <ele>1576.03</ele>
        <time>2020-01-08T08:06:04.000Z</time>
      </trkpt>
      <trkpt lat="45.59166" lon="6.64514">
        <ele>1576.37</ele>
        <time>2020-01-08T08:06:10.000Z</time>
      </trkpt>
      <trkpt lat="45.59175" lon="6.64513">
        <ele>1576.92</ele>
        <time>2020-01-08T08:06:21.000Z</time>
      </trkpt>
      <trkpt lat="45.59185" lon="6.6451">
        <ele>1577.45</ele>
        <time>2020-01-08T08:06:32.000Z</time>
      </trkpt>
      <trkpt lat="45.59194" lon="6.64506">
        <ele>1577.96</ele>
        <time>2020-01-08T08:06:43.000Z</time>
      </trkpt>
      <trkpt lat="45.59202" lon="6.645">
        <ele>1578.52</ele>
        <time>2020-01-08T08:06:59.000Z</time>
      </trkpt>
      <trkpt lat="45.59211" lon="6.64494">
        <ele>1579.05</ele>
        <time>2020-01-08T08:07:11.000Z</time>
      </trkpt>
      <trkpt lat="45.59219" lon="6.64488">
        <ele>1579.6</ele>
        <time>2020-01-08T08:07:23.000Z</time>
      </trkpt>
      <trkpt lat="45.59225" lon="6.64476">
        <ele>1579.96</ele>
        <time>2020-01-08T08:07:32.000Z</time>
      </trkpt>
      <trkpt lat="45.59233" lon="6.64469">
        <ele>1580.34</ele>
        <time>2020-01-08T08:07:40.000Z</time>
      </trkpt>
      <trkpt lat="45.59238" lon="6.64458">
        <ele>1580.84</ele>
        <time>2020-01-08T08:07:50.000Z</time>
      </trkpt>
      <trkpt lat="45.59244" lon="6.64448">
        <ele>1581.43</ele>
        <time>2020-01-08T08:08:03.000Z</time>
      </trkpt>
      <trkpt lat="45.59251" lon="6.64438">
        <ele>1581.69</ele>
        <time>2020-01-08T08:08:09.000Z</time>
      </trkpt>
      <trkpt lat="45.59257" lon="6.64427">
        <ele>1582.13</ele>
        <time>2020-01-08T08:08:20.000Z</time>
      </trkpt>
      <trkpt lat="45.59266" lon="6.64421">
        <ele>1582.38</ele>
        <time>2020-01-08T08:08:28.000Z</time>
      </trkpt>
      <trkpt lat="45.59274" lon="6.64413">
        <ele>1582.53</ele>
        <time>2020-01-08T08:08:33.000Z</time>
      </trkpt>
      <trkpt lat="45.59279" lon="6.64402">
        <ele>1582.78</ele>
        <time>2020-01-08T08:08:42.000Z</time>
      </trkpt>
      <trkpt lat="45.59286" lon="6.64394">
        <ele>1583.03</ele>
        <time>2020-01-08T08:08:52.000Z</time>
      </trkpt>
      <trkpt lat="45.5929" lon="6.64381">
        <ele>1583.22</ele>
        <time>2020-01-08T08:09:01.000Z</time>
      </trkpt>
      <trkpt lat="45.59298" lon="6.64373">
        <ele>1583.37</ele>
        <time>2020-01-08T08:09:08.000Z</time>
      </trkpt>
      <trkpt lat="45.59303" lon="6.64362">
        <ele>1583.67</ele>
        <time>2020-01-08T08:09:24.000Z</time>
      </trkpt>
      <trkpt lat="45.59307" lon="6.64349">
        <ele>1583.77</ele>
        <time>2020-01-08T08:09:39.000Z</time>
      </trkpt>
      <trkpt lat="45.59314" lon="6.64339">
        <ele>1583.85</ele>
        <time>2020-01-08T08:09:49.000Z</time>
      </trkpt>
      <trkpt lat="45.59323" lon="6.64337">
        <ele>1583.92</ele>
        <time>2020-01-08T08:09:55.000Z</time>
      </trkpt>
      <trkpt lat="45.59333" lon="6.64335">
        <ele>1583.98</ele>
        <time>2020-01-08T08:09:59.000Z</time>
      </trkpt>
      <trkpt lat="45.59342" lon="6.64331">
        <ele>1584.09</ele>
        <time>2020-01-08T08:10:06.000Z</time>
      </trkpt>
      <trkpt lat="45.59351" lon="6.64329">
        <ele>1584.21</ele>
        <time>2020-01-08T08:10:13.000Z</time>
      </trkpt>
      <trkpt lat="45.5936" lon="6.64326">
        <ele>1584.39</ele>
        <time>2020-01-08T08:10:21.000Z</time>
      </trkpt>
      <trkpt lat="45.5937" lon="6.64324">
        <ele>1584.68</ele>
        <time>2020-01-08T08:10:32.000Z</time>
      </trkpt>
      <trkpt lat="45.5938" lon="6.64324">
        <ele>1584.94</ele>
        <time>2020-01-08T08:10:40.000Z</time>
      </trkpt>
      <trkpt lat="45.59389" lon="6.64319">
        <ele>1587.21</ele>
        <time>2020-01-08T08:14:22.000Z</time>
      </trkpt>
      <trkpt lat="45.59399" lon="6.6432">
        <ele>1587.59</ele>
        <time>2020-01-08T08:14:32.000Z</time>
      </trkpt>
      <trkpt lat="45.59409" lon="6.6432">
        <ele>1587.91</ele>
        <time>2020-01-08T08:14:45.000Z</time>
      </trkpt>
      <trkpt lat="45.59416" lon="6.64313">
        <ele>1588.13</ele>
        <time>2020-01-08T08:14:54.000Z</time>
      </trkpt>
      <trkpt lat="45.59425" lon="6.64307">
        <ele>1588.34</ele>
        <time>2020-01-08T08:15:05.000Z</time>
      </trkpt>
      <trkpt lat="45.59432" lon="6.64297">
        <ele>1588.52</ele>
        <time>2020-01-08T08:15:14.000Z</time>
      </trkpt>
      <trkpt lat="45.5944" lon="6.64291">
        <ele>1588.67</ele>
        <time>2020-01-08T08:15:35.000Z</time>
      </trkpt>
      <trkpt lat="45.5945" lon="6.64286">
        <ele>1588.76</ele>
        <time>2020-01-08T08:15:45.000Z</time>
      </trkpt>
      <trkpt lat="45.59459" lon="6.64286">
        <ele>1588.85</ele>
        <time>2020-01-08T08:15:54.000Z</time>
      </trkpt>
      <trkpt lat="45.59468" lon="6.64282">
        <ele>1588.98</ele>
        <time>2020-01-08T08:16:03.000Z</time>
      </trkpt>
      <trkpt lat="45.59477" lon="6.64279">
        <ele>1589.12</ele>
        <time>2020-01-08T08:16:13.000Z</time>
      </trkpt>
      <trkpt lat="45.59487" lon="6.64278">
        <ele>1589.27</ele>
        <time>2020-01-08T08:16:23.000Z</time>
      </trkpt>
      <trkpt lat="45.59496" lon="6.64277">
        <ele>1589.45</ele>
        <time>2020-01-08T08:16:34.000Z</time>
      </trkpt>
      <trkpt lat="45.5951" lon="6.64267">
        <ele>1589.81</ele>
        <time>2020-01-08T08:16:56.000Z</time>
      </trkpt>
      <trkpt lat="45.59519" lon="6.64262">
        <ele>1589.85</ele>
        <time>2020-01-08T08:16:59.000Z</time>
      </trkpt>
      <trkpt lat="45.59529" lon="6.64257">
        <ele>1590.01</ele>
        <time>2020-01-08T08:17:09.000Z</time>
      </trkpt>
      <trkpt lat="45.59537" lon="6.64253">
        <ele>1590.22</ele>
        <time>2020-01-08T08:17:20.000Z</time>
      </trkpt>
      <trkpt lat="45.59545" lon="6.64245">
        <ele>1590.7</ele>
        <time>2020-01-08T08:17:33.000Z</time>
      </trkpt>
      <trkpt lat="45.59552" lon="6.64236">
        <ele>1591.11</ele>
        <time>2020-01-08T08:17:41.000Z</time>
      </trkpt>
      <trkpt lat="45.59556" lon="6.64224">
        <ele>1591.59</ele>
        <time>2020-01-08T08:17:51.000Z</time>
      </trkpt>
      <trkpt lat="45.59562" lon="6.64212">
        <ele>1592</ele>
        <time>2020-01-08T08:18:05.000Z</time>
      </trkpt>
      <trkpt lat="45.59568" lon="6.64201">
        <ele>1592.33</ele>
        <time>2020-01-08T08:18:15.000Z</time>
      </trkpt>
      <trkpt lat="45.59573" lon="6.64189">
        <ele>1592.51</ele>
        <time>2020-01-08T08:18:24.000Z</time>
      </trkpt>
      <trkpt lat="45.59577" lon="6.64176">
        <ele>1592.61</ele>
        <time>2020-01-08T08:18:35.000Z</time>
      </trkpt>
      <trkpt lat="45.59584" lon="6.64169">
        <ele>1592.63</ele>
        <time>2020-01-08T08:18:39.000Z</time>
      </trkpt>
      <trkpt lat="45.59594" lon="6.64168">
        <ele>1592.66</ele>
        <time>2020-01-08T08:18:43.000Z</time>
      </trkpt>
      <trkpt lat="45.59601" lon="6.64159">
        <ele>1592.72</ele>
        <time>2020-01-08T08:18:53.000Z</time>
      </trkpt>
      <trkpt lat="45.59609" lon="6.6415">
        <ele>1592.78</ele>
        <time>2020-01-08T08:19:04.000Z</time>
      </trkpt>
      <trkpt lat="45.59618" lon="6.64143">
        <ele>1592.91</ele>
        <time>2020-01-08T08:19:16.000Z</time>
      </trkpt>
      <trkpt lat="45.59627" lon="6.64141">
        <ele>1593.09</ele>
        <time>2020-01-08T08:19:27.000Z</time>
      </trkpt>
      <trkpt lat="45.59636" lon="6.64138">
        <ele>1593.34</ele>
        <time>2020-01-08T08:19:35.000Z</time>
      </trkpt>
      <trkpt lat="45.59645" lon="6.64133">
        <ele>1593.79</ele>
        <time>2020-01-08T08:19:45.000Z</time>
      </trkpt>
      <trkpt lat="45.59653" lon="6.64127">
        <ele>1594.1</ele>
        <time>2020-01-08T08:19:51.000Z</time>
      </trkpt>
      <trkpt lat="45.59661" lon="6.64118">
        <ele>1594.81</ele>
        <time>2020-01-08T08:20:02.000Z</time>
      </trkpt>
      <trkpt lat="45.5967" lon="6.64114">
        <ele>1595.47</ele>
        <time>2020-01-08T08:20:14.000Z</time>
      </trkpt>
      <trkpt lat="45.59681" lon="6.64113">
        <ele>1595.8</ele>
        <time>2020-01-08T08:20:20.000Z</time>
      </trkpt>
      <trkpt lat="45.5969" lon="6.64105">
        <ele>1596.6</ele>
        <time>2020-01-08T08:20:37.000Z</time>
      </trkpt>
      <trkpt lat="45.59698" lon="6.64098">
        <ele>1597.07</ele>
        <time>2020-01-08T08:20:45.000Z</time>
      </trkpt>
      <trkpt lat="45.59709" lon="6.64094">
        <ele>1597.67</ele>
        <time>2020-01-08T08:21:01.000Z</time>
      </trkpt>
      <trkpt lat="45.59719" lon="6.64095">
        <ele>1598.33</ele>
        <time>2020-01-08T08:21:28.000Z</time>
      </trkpt>
      <trkpt lat="45.59727" lon="6.64087">
        <ele>1598.86</ele>
        <time>2020-01-08T08:21:37.000Z</time>
      </trkpt>
      <trkpt lat="45.59736" lon="6.64082">
        <ele>1599.46</ele>
        <time>2020-01-08T08:21:50.000Z</time>
      </trkpt>
      <trkpt lat="45.59743" lon="6.64075">
        <ele>1599.55</ele>
        <time>2020-01-08T08:21:55.000Z</time>
      </trkpt>
      <trkpt lat="45.59752" lon="6.64067">
        <ele>1599.71</ele>
        <time>2020-01-08T08:22:03.000Z</time>
      </trkpt>
      <trkpt lat="45.59759" lon="6.6406">
        <ele>1599.86</ele>
        <time>2020-01-08T08:22:11.000Z</time>
      </trkpt>
      <trkpt lat="45.59766" lon="6.6405">
        <ele>1600.19</ele>
        <time>2020-01-08T08:22:22.000Z</time>
      </trkpt>
      <trkpt lat="45.59773" lon="6.64041">
        <ele>1600.73</ele>
        <time>2020-01-08T08:22:33.000Z</time>
      </trkpt>
      <trkpt lat="45.5978" lon="6.64034">
        <ele>1601.15</ele>
        <time>2020-01-08T08:22:41.000Z</time>
      </trkpt>
      <trkpt lat="45.59788" lon="6.64026">
        <ele>1601.49</ele>
        <time>2020-01-08T08:22:47.000Z</time>
      </trkpt>
      <trkpt lat="45.59795" lon="6.64018">
        <ele>1602.01</ele>
        <time>2020-01-08T08:22:56.000Z</time>
      </trkpt>
      <trkpt lat="45.598" lon="6.64006">
        <ele>1602.5</ele>
        <time>2020-01-08T08:23:04.000Z</time>
      </trkpt>
      <trkpt lat="45.59808" lon="6.63997">
        <ele>1602.93</ele>
        <time>2020-01-08T08:23:11.000Z</time>
      </trkpt>
      <trkpt lat="45.59814" lon="6.63987">
        <ele>1603.45</ele>
        <time>2020-01-08T08:23:20.000Z</time>
      </trkpt>
      <trkpt lat="45.59821" lon="6.63977">
        <ele>1604.1</ele>
        <time>2020-01-08T08:23:31.000Z</time>
      </trkpt>
      <trkpt lat="45.59828" lon="6.63969">
        <ele>1604.68</ele>
        <time>2020-01-08T08:23:40.000Z</time>
      </trkpt>
      <trkpt lat="45.59836" lon="6.63962">
        <ele>1605.34</ele>
        <time>2020-01-08T08:23:51.000Z</time>
      </trkpt>
      <trkpt lat="45.59843" lon="6.63953">
        <ele>1605.85</ele>
        <time>2020-01-08T08:23:59.000Z</time>
      </trkpt>
      <trkpt lat="45.5985" lon="6.63943">
        <ele>1606.46</ele>
        <time>2020-01-08T08:24:08.000Z</time>
      </trkpt>
      <trkpt lat="45.59852" lon="6.63931">
        <ele>1607.1</ele>
        <time>2020-01-08T08:24:17.000Z</time>
      </trkpt>
      <trkpt lat="45.59862" lon="6.63924">
        <ele>1607.57</ele>
        <time>2020-01-08T08:24:24.000Z</time>
      </trkpt>
      <trkpt lat="45.59871" lon="6.63917">
        <ele>1608</ele>
        <time>2020-01-08T08:24:30.000Z</time>
      </trkpt>
      <trkpt lat="45.59877" lon="6.63907">
        <ele>1608.54</ele>
        <time>2020-01-08T08:24:38.000Z</time>
      </trkpt>
      <trkpt lat="45.59882" lon="6.63896">
        <ele>1608.92</ele>
        <time>2020-01-08T08:24:45.000Z</time>
      </trkpt>
      <trkpt lat="45.59888" lon="6.63885">
        <ele>1609.35</ele>
        <time>2020-01-08T08:24:55.000Z</time>
      </trkpt>
      <trkpt lat="45.59895" lon="6.63875">
        <ele>1609.6</ele>
        <time>2020-01-08T08:25:02.000Z</time>
      </trkpt>
      <trkpt lat="45.59901" lon="6.63866">
        <ele>1609.85</ele>
        <time>2020-01-08T08:25:10.000Z</time>
      </trkpt>
      <trkpt lat="45.59908" lon="6.63857">
        <ele>1610.07</ele>
        <time>2020-01-08T08:25:18.000Z</time>
      </trkpt>
      <trkpt lat="45.59913" lon="6.63845">
        <ele>1610.29</ele>
        <time>2020-01-08T08:25:26.000Z</time>
      </trkpt>
      <trkpt lat="45.59919" lon="6.63833">
        <ele>1610.56</ele>
        <time>2020-01-08T08:25:37.000Z</time>
      </trkpt>
      <trkpt lat="45.59926" lon="6.63824">
        <ele>1610.89</ele>
        <time>2020-01-08T08:25:52.000Z</time>
      </trkpt>
      <trkpt lat="45.59935" lon="6.63816">
        <ele>1611.05</ele>
        <time>2020-01-08T08:25:59.000Z</time>
      </trkpt>
      <trkpt lat="45.59944" lon="6.63808">
        <ele>1611.17</ele>
        <time>2020-01-08T08:26:04.000Z</time>
      </trkpt>
      <trkpt lat="45.59952" lon="6.63801">
        <ele>1611.34</ele>
        <time>2020-01-08T08:26:11.000Z</time>
      </trkpt>
      <trkpt lat="45.59959" lon="6.63793">
        <ele>1611.52</ele>
        <time>2020-01-08T08:26:19.000Z</time>
      </trkpt>
      <trkpt lat="45.59967" lon="6.63785">
        <ele>1611.68</ele>
        <time>2020-01-08T08:26:26.000Z</time>
      </trkpt>
      <trkpt lat="45.59975" lon="6.63778">
        <ele>1611.89</ele>
        <time>2020-01-08T08:26:35.000Z</time>
      </trkpt>
      <trkpt lat="45.5998" lon="6.63767">
        <ele>1612.08</ele>
        <time>2020-01-08T08:26:44.000Z</time>
      </trkpt>
      <trkpt lat="45.59988" lon="6.6376">
        <ele>1612.25</ele>
        <time>2020-01-08T08:26:51.000Z</time>
      </trkpt>
      <trkpt lat="45.59997" lon="6.63756">
        <ele>1612.44</ele>
        <time>2020-01-08T08:26:59.000Z</time>
      </trkpt>
      <trkpt lat="45.60005" lon="6.6375">
        <ele>1612.65</ele>
        <time>2020-01-08T08:27:07.000Z</time>
      </trkpt>
      <trkpt lat="45.60012" lon="6.6374">
        <ele>1612.88</ele>
        <time>2020-01-08T08:27:16.000Z</time>
      </trkpt>
      <trkpt lat="45.60021" lon="6.63732">
        <ele>1613.09</ele>
        <time>2020-01-08T08:27:26.000Z</time>
      </trkpt>
      <trkpt lat="45.60026" lon="6.6372">
        <ele>1613.3</ele>
        <time>2020-01-08T08:27:36.000Z</time>
      </trkpt>
      <trkpt lat="45.60034" lon="6.6371">
        <ele>1613.47</ele>
        <time>2020-01-08T08:27:44.000Z</time>
      </trkpt>
      <trkpt lat="45.60043" lon="6.63703">
        <ele>1613.6</ele>
        <time>2020-01-08T08:27:50.000Z</time>
      </trkpt>
      <trkpt lat="45.60052" lon="6.63702">
        <ele>1613.78</ele>
        <time>2020-01-08T08:27:57.000Z</time>
      </trkpt>
      <trkpt lat="45.60061" lon="6.637">
        <ele>1613.97</ele>
        <time>2020-01-08T08:28:06.000Z</time>
      </trkpt>
      <trkpt lat="45.6007" lon="6.63696">
        <ele>1614.18</ele>
        <time>2020-01-08T08:28:16.000Z</time>
      </trkpt>
      <trkpt lat="45.60079" lon="6.63689">
        <ele>1614.35</ele>
        <time>2020-01-08T08:28:23.000Z</time>
      </trkpt>
      <trkpt lat="45.60086" lon="6.6368">
        <ele>1614.47</ele>
        <time>2020-01-08T08:28:28.000Z</time>
      </trkpt>
      <trkpt lat="45.60093" lon="6.6367">
        <ele>1614.78</ele>
        <time>2020-01-08T08:28:40.000Z</time>
      </trkpt>
      <trkpt lat="45.60096" lon="6.63657">
        <ele>1615.08</ele>
        <time>2020-01-08T08:28:52.000Z</time>
      </trkpt>
      <trkpt lat="45.60099" lon="6.63644">
        <ele>1615.39</ele>
        <time>2020-01-08T08:29:03.000Z</time>
      </trkpt>
      <trkpt lat="45.60104" lon="6.63632">
        <ele>1615.61</ele>
        <time>2020-01-08T08:29:11.000Z</time>
      </trkpt>
      <trkpt lat="45.60109" lon="6.63621">
        <ele>1615.89</ele>
        <time>2020-01-08T08:29:22.000Z</time>
      </trkpt>
      <trkpt lat="45.6011" lon="6.63608">
        <ele>1616.41</ele>
        <time>2020-01-08T08:29:48.000Z</time>
      </trkpt>
      <trkpt lat="45.60115" lon="6.63597">
        <ele>1616.66</ele>
        <time>2020-01-08T08:29:59.000Z</time>
      </trkpt>
      <trkpt lat="45.60122" lon="6.63586">
        <ele>1616.87</ele>
        <time>2020-01-08T08:30:09.000Z</time>
      </trkpt>
      <trkpt lat="45.6013" lon="6.63576">
        <ele>1617.27</ele>
        <time>2020-01-08T08:30:27.000Z</time>
      </trkpt>
      <trkpt lat="45.6014" lon="6.63573">
        <ele>1617.45</ele>
        <time>2020-01-08T08:30:35.000Z</time>
      </trkpt>
      <trkpt lat="45.60148" lon="6.63566">
        <ele>1617.59</ele>
        <time>2020-01-08T08:30:41.000Z</time>
      </trkpt>
      <trkpt lat="45.60157" lon="6.63558">
        <ele>1617.77</ele>
        <time>2020-01-08T08:30:50.000Z</time>
      </trkpt>
      <trkpt lat="45.60165" lon="6.63552">
        <ele>1617.9</ele>
        <time>2020-01-08T08:30:57.000Z</time>
      </trkpt>
      <trkpt lat="45.60174" lon="6.63549">
        <ele>1618.18</ele>
        <time>2020-01-08T08:31:09.000Z</time>
      </trkpt>
      <trkpt lat="45.60183" lon="6.63545">
        <ele>1618.51</ele>
        <time>2020-01-08T08:31:21.000Z</time>
      </trkpt>
      <trkpt lat="45.60191" lon="6.63539">
        <ele>1618.78</ele>
        <time>2020-01-08T08:31:31.000Z</time>
      </trkpt>
      <trkpt lat="45.60199" lon="6.63532">
        <ele>1618.98</ele>
        <time>2020-01-08T08:31:38.000Z</time>
      </trkpt>
      <trkpt lat="45.60206" lon="6.63523">
        <ele>1619.22</ele>
        <time>2020-01-08T08:31:46.000Z</time>
      </trkpt>
      <trkpt lat="45.60214" lon="6.63515">
        <ele>1619.46</ele>
        <time>2020-01-08T08:31:55.000Z</time>
      </trkpt>
      <trkpt lat="45.60222" lon="6.63508">
        <ele>1619.67</ele>
        <time>2020-01-08T08:32:04.000Z</time>
      </trkpt>
      <trkpt lat="45.60228" lon="6.63499">
        <ele>1619.9</ele>
        <time>2020-01-08T08:32:14.000Z</time>
      </trkpt>
      <trkpt lat="45.60234" lon="6.63488">
        <ele>1620.27</ele>
        <time>2020-01-08T08:32:27.000Z</time>
      </trkpt>
      <trkpt lat="45.60238" lon="6.63477">
        <ele>1620.63</ele>
        <time>2020-01-08T08:32:39.000Z</time>
      </trkpt>
      <trkpt lat="45.60241" lon="6.63463">
        <ele>1620.94</ele>
        <time>2020-01-08T08:32:49.000Z</time>
      </trkpt>
      <trkpt lat="45.60248" lon="6.63453">
        <ele>1621.17</ele>
        <time>2020-01-08T08:32:56.000Z</time>
      </trkpt>
      <trkpt lat="45.60254" lon="6.63442">
        <ele>1621.46</ele>
        <time>2020-01-08T08:33:05.000Z</time>
      </trkpt>
      <trkpt lat="45.60259" lon="6.63431">
        <ele>1621.69</ele>
        <time>2020-01-08T08:33:14.000Z</time>
      </trkpt>
      <trkpt lat="45.60266" lon="6.63422">
        <ele>1621.89</ele>
        <time>2020-01-08T08:33:23.000Z</time>
      </trkpt>
      <trkpt lat="45.60269" lon="6.63409">
        <ele>1622.08</ele>
        <time>2020-01-08T08:33:33.000Z</time>
      </trkpt>
      <trkpt lat="45.60271" lon="6.63396">
        <ele>1622.24</ele>
        <time>2020-01-08T08:33:42.000Z</time>
      </trkpt>
      <trkpt lat="45.60273" lon="6.63383">
        <ele>1622.49</ele>
        <time>2020-01-08T08:33:57.000Z</time>
      </trkpt>
      <trkpt lat="45.60274" lon="6.6337">
        <ele>1623.14</ele>
        <time>2020-01-08T08:34:23.000Z</time>
      </trkpt>
      <trkpt lat="45.60278" lon="6.63358">
        <ele>1623.68</ele>
        <time>2020-01-08T08:34:43.000Z</time>
      </trkpt>
      <trkpt lat="45.60284" lon="6.63347">
        <ele>1624.24</ele>
        <time>2020-01-08T08:34:54.000Z</time>
      </trkpt>
      <trkpt lat="45.6029" lon="6.63336">
        <ele>1624.86</ele>
        <time>2020-01-08T08:35:06.000Z</time>
      </trkpt>
      <trkpt lat="45.60295" lon="6.63324">
        <ele>1625.5</ele>
        <time>2020-01-08T08:35:18.000Z</time>
      </trkpt>
      <trkpt lat="45.603" lon="6.63313">
        <ele>1626.21</ele>
        <time>2020-01-08T08:35:30.000Z</time>
      </trkpt>
      <trkpt lat="45.60306" lon="6.63302">
        <ele>1627.29</ele>
        <time>2020-01-08T08:36:08.000Z</time>
      </trkpt>
      <trkpt lat="45.60304" lon="6.63289">
        <ele>1627.93</ele>
        <time>2020-01-08T08:36:21.000Z</time>
      </trkpt>
      <trkpt lat="45.60302" lon="6.63275">
        <ele>1628.55</ele>
        <time>2020-01-08T08:36:32.000Z</time>
      </trkpt>
      <trkpt lat="45.60305" lon="6.63263">
        <ele>1629.08</ele>
        <time>2020-01-08T08:36:42.000Z</time>
      </trkpt>
      <trkpt lat="45.6031" lon="6.63251">
        <ele>1629.71</ele>
        <time>2020-01-08T08:36:58.000Z</time>
      </trkpt>
      <trkpt lat="45.60315" lon="6.6324">
        <ele>1630.22</ele>
        <time>2020-01-08T08:37:07.000Z</time>
      </trkpt>
      <trkpt lat="45.60321" lon="6.63228">
        <ele>1630.72</ele>
        <time>2020-01-08T08:37:16.000Z</time>
      </trkpt>
      <trkpt lat="45.60328" lon="6.63219">
        <ele>1631.25</ele>
        <time>2020-01-08T08:37:26.000Z</time>
      </trkpt>
      <trkpt lat="45.60337" lon="6.63212">
        <ele>1631.69</ele>
        <time>2020-01-08T08:37:35.000Z</time>
      </trkpt>
      <trkpt lat="45.60344" lon="6.63204">
        <ele>1632.37</ele>
        <time>2020-01-08T08:37:47.000Z</time>
      </trkpt>
      <trkpt lat="45.6035" lon="6.63194">
        <ele>1632.84</ele>
        <time>2020-01-08T08:37:55.000Z</time>
      </trkpt>
      <trkpt lat="45.60357" lon="6.63184">
        <ele>1633.35</ele>
        <time>2020-01-08T08:38:04.000Z</time>
      </trkpt>
      <trkpt lat="45.60365" lon="6.63175">
        <ele>1634.04</ele>
        <time>2020-01-08T08:38:16.000Z</time>
      </trkpt>
      <trkpt lat="45.60372" lon="6.63166">
        <ele>1634.51</ele>
        <time>2020-01-08T08:38:25.000Z</time>
      </trkpt>
      <trkpt lat="45.6038" lon="6.63161">
        <ele>1634.98</ele>
        <time>2020-01-08T08:38:34.000Z</time>
      </trkpt>
      <trkpt lat="45.60388" lon="6.63153">
        <ele>1635.56</ele>
        <time>2020-01-08T08:38:45.000Z</time>
      </trkpt>
      <trkpt lat="45.60397" lon="6.63147">
        <ele>1636.03</ele>
        <time>2020-01-08T08:38:55.000Z</time>
      </trkpt>
      <trkpt lat="45.60405" lon="6.63138">
        <ele>1636.56</ele>
        <time>2020-01-08T08:39:06.000Z</time>
      </trkpt>
      <trkpt lat="45.60412" lon="6.63129">
        <ele>1637.09</ele>
        <time>2020-01-08T08:39:17.000Z</time>
      </trkpt>
      <trkpt lat="45.6042" lon="6.63119">
        <ele>1637.7</ele>
        <time>2020-01-08T08:39:29.000Z</time>
      </trkpt>
      <trkpt lat="45.60426" lon="6.63106">
        <ele>1638.43</ele>
        <time>2020-01-08T08:39:50.000Z</time>
      </trkpt>
      <trkpt lat="45.60433" lon="6.63098">
        <ele>1638.94</ele>
        <time>2020-01-08T08:40:01.000Z</time>
      </trkpt>
      <trkpt lat="45.60437" lon="6.63086">
        <ele>1639.57</ele>
        <time>2020-01-08T08:40:15.000Z</time>
      </trkpt>
      <trkpt lat="45.60444" lon="6.63076">
        <ele>1639.99</ele>
        <time>2020-01-08T08:40:25.000Z</time>
      </trkpt>
      <trkpt lat="45.60451" lon="6.63066">
        <ele>1640.33</ele>
        <time>2020-01-08T08:40:33.000Z</time>
      </trkpt>
      <trkpt lat="45.60458" lon="6.63056">
        <ele>1640.79</ele>
        <time>2020-01-08T08:40:43.000Z</time>
      </trkpt>
      <trkpt lat="45.60463" lon="6.63045">
        <ele>1641.32</ele>
        <time>2020-01-08T08:40:55.000Z</time>
      </trkpt>
      <trkpt lat="45.60469" lon="6.63036">
        <ele>1641.95</ele>
        <time>2020-01-08T08:41:09.000Z</time>
      </trkpt>
      <trkpt lat="45.60475" lon="6.63025">
        <ele>1642.36</ele>
        <time>2020-01-08T08:41:18.000Z</time>
      </trkpt>
      <trkpt lat="45.60482" lon="6.63015">
        <ele>1642.87</ele>
        <time>2020-01-08T08:41:29.000Z</time>
      </trkpt>
      <trkpt lat="45.60489" lon="6.63007">
        <ele>1643.24</ele>
        <time>2020-01-08T08:41:38.000Z</time>
      </trkpt>
      <trkpt lat="45.60498" lon="6.63002">
        <ele>1643.79</ele>
        <time>2020-01-08T08:41:51.000Z</time>
      </trkpt>
      <trkpt lat="45.60503" lon="6.62992">
        <ele>1644.08</ele>
        <time>2020-01-08T08:41:58.000Z</time>
      </trkpt>
      <trkpt lat="45.60509" lon="6.62981">
        <ele>1644.44</ele>
        <time>2020-01-08T08:42:07.000Z</time>
      </trkpt>
      <trkpt lat="45.60515" lon="6.6297">
        <ele>1644.98</ele>
        <time>2020-01-08T08:42:20.000Z</time>
      </trkpt>
      <trkpt lat="45.60522" lon="6.62961">
        <ele>1645.34</ele>
        <time>2020-01-08T08:42:29.000Z</time>
      </trkpt>
      <trkpt lat="45.6053" lon="6.62954">
        <ele>1646.15</ele>
        <time>2020-01-08T08:42:49.000Z</time>
      </trkpt>
      <trkpt lat="45.60537" lon="6.62945">
        <ele>1646.71</ele>
        <time>2020-01-08T08:43:03.000Z</time>
      </trkpt>
      <trkpt lat="45.60543" lon="6.62936">
        <ele>1647.3</ele>
        <time>2020-01-08T08:43:17.000Z</time>
      </trkpt>
      <trkpt lat="45.60548" lon="6.62924">
        <ele>1647.7</ele>
        <time>2020-01-08T08:43:26.000Z</time>
      </trkpt>
      <trkpt lat="45.60554" lon="6.62914">
        <ele>1648.24</ele>
        <time>2020-01-08T08:43:42.000Z</time>
      </trkpt>
      <trkpt lat="45.60562" lon="6.62908">
        <ele>1648.65</ele>
        <time>2020-01-08T08:43:52.000Z</time>
      </trkpt>
      <trkpt lat="45.6057" lon="6.62902">
        <ele>1649.07</ele>
        <time>2020-01-08T08:44:02.000Z</time>
      </trkpt>
      <trkpt lat="45.60578" lon="6.62892">
        <ele>1649.54</ele>
        <time>2020-01-08T08:44:15.000Z</time>
      </trkpt>
      <trkpt lat="45.60585" lon="6.62883">
        <ele>1650.02</ele>
        <time>2020-01-08T08:44:27.000Z</time>
      </trkpt>
      <trkpt lat="45.60592" lon="6.62874">
        <ele>1650.53</ele>
        <time>2020-01-08T08:44:39.000Z</time>
      </trkpt>
      <trkpt lat="45.60601" lon="6.62868">
        <ele>1651.13</ele>
        <time>2020-01-08T08:44:53.000Z</time>
      </trkpt>
      <trkpt lat="45.60607" lon="6.62857">
        <ele>1651.69</ele>
        <time>2020-01-08T08:45:03.000Z</time>
      </trkpt>
      <trkpt lat="45.60616" lon="6.62852">
        <ele>1652.94</ele>
        <time>2020-01-08T08:45:15.000Z</time>
      </trkpt>
      <trkpt lat="45.60621" lon="6.6284">
        <ele>1654.87</ele>
        <time>2020-01-08T08:45:29.000Z</time>
      </trkpt>
      <trkpt lat="45.60628" lon="6.62831">
        <ele>1656.51</ele>
        <time>2020-01-08T08:45:39.000Z</time>
      </trkpt>
      <trkpt lat="45.60635" lon="6.62821">
        <ele>1658.73</ele>
        <time>2020-01-08T08:45:51.000Z</time>
      </trkpt>
      <trkpt lat="45.60639" lon="6.6281">
        <ele>1661.34</ele>
        <time>2020-01-08T08:46:05.000Z</time>
      </trkpt>
      <trkpt lat="45.60646" lon="6.62801">
        <ele>1663.36</ele>
        <time>2020-01-08T08:46:16.000Z</time>
      </trkpt>
      <trkpt lat="45.60648" lon="6.62788">
        <ele>1667</ele>
        <time>2020-01-08T08:46:33.000Z</time>
      </trkpt>
      <trkpt lat="45.60652" lon="6.62776">
        <ele>1669.87</ele>
        <time>2020-01-08T08:46:46.000Z</time>
      </trkpt>
      <trkpt lat="45.60658" lon="6.62764">
        <ele>1672.18</ele>
        <time>2020-01-08T08:46:57.000Z</time>
      </trkpt>
      <trkpt lat="45.60664" lon="6.62752">
        <ele>1675.51</ele>
        <time>2020-01-08T08:47:13.000Z</time>
      </trkpt>
      <trkpt lat="45.6067" lon="6.62741">
        <ele>1677.52</ele>
        <time>2020-01-08T08:47:23.000Z</time>
      </trkpt>
      <trkpt lat="45.60678" lon="6.62732">
        <ele>1679.75</ele>
        <time>2020-01-08T08:47:35.000Z</time>
      </trkpt>
      <trkpt lat="45.60684" lon="6.62723">
        <ele>1681.51</ele>
        <time>2020-01-08T08:47:45.000Z</time>
      </trkpt>
      <trkpt lat="45.6069" lon="6.62712">
        <ele>1682.98</ele>
        <time>2020-01-08T08:47:54.000Z</time>
      </trkpt>
      <trkpt lat="45.60697" lon="6.62703">
        <ele>1684.63</ele>
        <time>2020-01-08T08:48:05.000Z</time>
      </trkpt>
      <trkpt lat="45.60703" lon="6.62693">
        <ele>1686.78</ele>
        <time>2020-01-08T08:48:21.000Z</time>
      </trkpt>
      <trkpt lat="45.60711" lon="6.62685">
        <ele>1688.1</ele>
        <time>2020-01-08T08:48:32.000Z</time>
      </trkpt>
      <trkpt lat="45.60717" lon="6.62674">
        <ele>1689.34</ele>
        <time>2020-01-08T08:48:43.000Z</time>
      </trkpt>
      <trkpt lat="45.60725" lon="6.62668">
        <ele>1690.64</ele>
        <time>2020-01-08T08:48:55.000Z</time>
      </trkpt>
      <trkpt lat="45.60732" lon="6.62657">
        <ele>1692.93</ele>
        <time>2020-01-08T08:49:24.000Z</time>
      </trkpt>
      <trkpt lat="45.6074" lon="6.62651">
        <ele>1694.26</ele>
        <time>2020-01-08T08:49:37.000Z</time>
      </trkpt>
      <trkpt lat="45.60747" lon="6.62641">
        <ele>1696.97</ele>
        <time>2020-01-08T08:50:56.000Z</time>
      </trkpt>
      <trkpt lat="45.60754" lon="6.62634">
        <ele>1698.23</ele>
        <time>2020-01-08T08:51:08.000Z</time>
      </trkpt>
      <trkpt lat="45.60762" lon="6.62626">
        <ele>1699.34</ele>
        <time>2020-01-08T08:51:19.000Z</time>
      </trkpt>
      <trkpt lat="45.6077" lon="6.62619">
        <ele>1700.52</ele>
        <time>2020-01-08T08:51:37.000Z</time>
      </trkpt>
      <trkpt lat="45.60777" lon="6.62611">
        <ele>1701.46</ele>
        <time>2020-01-08T08:51:46.000Z</time>
      </trkpt>
      <trkpt lat="45.60783" lon="6.626">
        <ele>1702.41</ele>
        <time>2020-01-08T08:51:56.000Z</time>
      </trkpt>
      <trkpt lat="45.60789" lon="6.62589">
        <ele>1703.37</ele>
        <time>2020-01-08T08:52:07.000Z</time>
      </trkpt>
      <trkpt lat="45.60795" lon="6.6258">
        <ele>1704.49</ele>
        <time>2020-01-08T08:52:21.000Z</time>
      </trkpt>
      <trkpt lat="45.60798" lon="6.62567">
        <ele>1706.27</ele>
        <time>2020-01-08T08:52:56.000Z</time>
      </trkpt>
      <trkpt lat="45.60805" lon="6.62559">
        <ele>1707.13</ele>
        <time>2020-01-08T08:53:07.000Z</time>
      </trkpt>
      <trkpt lat="45.60813" lon="6.62551">
        <ele>1707.63</ele>
        <time>2020-01-08T08:53:14.000Z</time>
      </trkpt>
      <trkpt lat="45.60817" lon="6.62539">
        <ele>1708.38</ele>
        <time>2020-01-08T08:53:25.000Z</time>
      </trkpt>
      <trkpt lat="45.60826" lon="6.62532">
        <ele>1708.98</ele>
        <time>2020-01-08T08:53:34.000Z</time>
      </trkpt>
      <trkpt lat="45.60833" lon="6.62523">
        <ele>1709.75</ele>
        <time>2020-01-08T08:53:46.000Z</time>
      </trkpt>
      <trkpt lat="45.60839" lon="6.62513">
        <ele>1710.29</ele>
        <time>2020-01-08T08:53:55.000Z</time>
      </trkpt>
      <trkpt lat="45.60841" lon="6.62501">
        <ele>1710.91</ele>
        <time>2020-01-08T08:54:05.000Z</time>
      </trkpt>
      <trkpt lat="45.60847" lon="6.6249">
        <ele>1711.83</ele>
        <time>2020-01-08T08:54:15.000Z</time>
      </trkpt>
      <trkpt lat="45.60853" lon="6.62481">
        <ele>1713.52</ele>
        <time>2020-01-08T08:54:29.000Z</time>
      </trkpt>
      <trkpt lat="45.60859" lon="6.62471">
        <ele>1714.88</ele>
        <time>2020-01-08T08:54:40.000Z</time>
      </trkpt>
      <trkpt lat="45.60868" lon="6.62465">
        <ele>1716.25</ele>
        <time>2020-01-08T08:54:50.000Z</time>
      </trkpt>
      <trkpt lat="45.60873" lon="6.62453">
        <ele>1721.46</ele>
        <time>2020-01-08T08:55:47.000Z</time>
      </trkpt>
      <trkpt lat="45.6088" lon="6.62445">
        <ele>1724.35</ele>
        <time>2020-01-08T08:56:02.000Z</time>
      </trkpt>
      <trkpt lat="45.60888" lon="6.62438">
        <ele>1726.14</ele>
        <time>2020-01-08T08:56:11.000Z</time>
      </trkpt>
      <trkpt lat="45.60895" lon="6.62429">
        <ele>1727.8</ele>
        <time>2020-01-08T08:56:21.000Z</time>
      </trkpt>
      <trkpt lat="45.609" lon="6.62418">
        <ele>1729.23</ele>
        <time>2020-01-08T08:56:31.000Z</time>
      </trkpt>
      <trkpt lat="45.60906" lon="6.62407">
        <ele>1730.98</ele>
        <time>2020-01-08T08:56:52.000Z</time>
      </trkpt>
      <trkpt lat="45.60912" lon="6.62396">
        <ele>1731.72</ele>
        <time>2020-01-08T08:56:59.000Z</time>
      </trkpt>
      <trkpt lat="45.60917" lon="6.62385">
        <ele>1733.42</ele>
        <time>2020-01-08T08:57:16.000Z</time>
      </trkpt>
      <trkpt lat="45.60923" lon="6.62374">
        <ele>1735.05</ele>
        <time>2020-01-08T08:57:33.000Z</time>
      </trkpt>
      <trkpt lat="45.60929" lon="6.62363">
        <ele>1735.8</ele>
        <time>2020-01-08T08:57:42.000Z</time>
      </trkpt>
      <trkpt lat="45.60936" lon="6.62355">
        <ele>1737.08</ele>
        <time>2020-01-08T08:57:58.000Z</time>
      </trkpt>
      <trkpt lat="45.60944" lon="6.62347">
        <ele>1737.94</ele>
        <time>2020-01-08T08:58:09.000Z</time>
      </trkpt>
      <trkpt lat="45.60952" lon="6.62339">
        <ele>1738.69</ele>
        <time>2020-01-08T08:58:20.000Z</time>
      </trkpt>
      <trkpt lat="45.60961" lon="6.62334">
        <ele>1739.34</ele>
        <time>2020-01-08T08:58:29.000Z</time>
      </trkpt>
      <trkpt lat="45.60969" lon="6.62327">
        <ele>1740.1</ele>
        <time>2020-01-08T08:58:39.000Z</time>
      </trkpt>
      <trkpt lat="45.60977" lon="6.6232">
        <ele>1741</ele>
        <time>2020-01-08T08:58:51.000Z</time>
      </trkpt>
      <trkpt lat="45.60985" lon="6.62312">
        <ele>1742.16</ele>
        <time>2020-01-08T08:59:07.000Z</time>
      </trkpt>
      <trkpt lat="45.60994" lon="6.62305">
        <ele>1743.19</ele>
        <time>2020-01-08T08:59:21.000Z</time>
      </trkpt>
      <trkpt lat="45.61001" lon="6.62296">
        <ele>1744.6</ele>
        <time>2020-01-08T08:59:38.000Z</time>
      </trkpt>
      <trkpt lat="45.61006" lon="6.62285">
        <ele>1745.92</ele>
        <time>2020-01-08T08:59:56.000Z</time>
      </trkpt>
      <trkpt lat="45.61013" lon="6.62275">
        <ele>1746.75</ele>
        <time>2020-01-08T09:00:09.000Z</time>
      </trkpt>
      <trkpt lat="45.61021" lon="6.62266">
        <ele>1747.5</ele>
        <time>2020-01-08T09:00:20.000Z</time>
      </trkpt>
      <trkpt lat="45.61028" lon="6.62257">
        <ele>1748.59</ele>
        <time>2020-01-08T09:00:34.000Z</time>
      </trkpt>
      <trkpt lat="45.61035" lon="6.62249">
        <ele>1749.48</ele>
        <time>2020-01-08T09:00:45.000Z</time>
      </trkpt>
      <trkpt lat="45.6104" lon="6.62236">
        <ele>1751.72</ele>
        <time>2020-01-08T09:01:09.000Z</time>
      </trkpt>
      <trkpt lat="45.61047" lon="6.62226">
        <ele>1752.82</ele>
        <time>2020-01-08T09:01:21.000Z</time>
      </trkpt>
      <trkpt lat="45.61053" lon="6.62215">
        <ele>1753.86</ele>
        <time>2020-01-08T09:01:34.000Z</time>
      </trkpt>
      <trkpt lat="45.61057" lon="6.62204">
        <ele>1755.41</ele>
        <time>2020-01-08T09:02:11.000Z</time>
      </trkpt>
      <trkpt lat="45.61065" lon="6.62197">
        <ele>1756.68</ele>
        <time>2020-01-08T09:02:24.000Z</time>
      </trkpt>
      <trkpt lat="45.61071" lon="6.62186">
        <ele>1758.06</ele>
        <time>2020-01-08T09:02:38.000Z</time>
      </trkpt>
      <trkpt lat="45.61077" lon="6.62177">
        <ele>1759.41</ele>
        <time>2020-01-08T09:02:50.000Z</time>
      </trkpt>
      <trkpt lat="45.6108" lon="6.62165">
        <ele>1761.69</ele>
        <time>2020-01-08T09:03:17.000Z</time>
      </trkpt>
      <trkpt lat="45.61086" lon="6.62156">
        <ele>1762.75</ele>
        <time>2020-01-08T09:03:27.000Z</time>
      </trkpt>
      <trkpt lat="45.61092" lon="6.62143">
        <ele>1764.16</ele>
        <time>2020-01-08T09:03:42.000Z</time>
      </trkpt>
      <trkpt lat="45.61098" lon="6.62133">
        <ele>1764.82</ele>
        <time>2020-01-08T09:03:49.000Z</time>
      </trkpt>
      <trkpt lat="45.61103" lon="6.62122">
        <ele>1766.85</ele>
        <time>2020-01-08T09:04:12.000Z</time>
      </trkpt>
      <trkpt lat="45.61108" lon="6.62111">
        <ele>1767.95</ele>
        <time>2020-01-08T09:04:21.000Z</time>
      </trkpt>
      <trkpt lat="45.61112" lon="6.62099">
        <ele>1769.87</ele>
        <time>2020-01-08T09:04:36.000Z</time>
      </trkpt>
      <trkpt lat="45.61116" lon="6.62087">
        <ele>1772.5</ele>
        <time>2020-01-08T09:04:56.000Z</time>
      </trkpt>
      <trkpt lat="45.61124" lon="6.6208">
        <ele>1773.75</ele>
        <time>2020-01-08T09:05:06.000Z</time>
      </trkpt>
      <trkpt lat="45.6113" lon="6.62071">
        <ele>1775.64</ele>
        <time>2020-01-08T09:05:21.000Z</time>
      </trkpt>
      <trkpt lat="45.61138" lon="6.62062">
        <ele>1776.78</ele>
        <time>2020-01-08T09:05:31.000Z</time>
      </trkpt>
      <trkpt lat="45.61146" lon="6.62054">
        <ele>1777.41</ele>
        <time>2020-01-08T09:05:36.000Z</time>
      </trkpt>
      <trkpt lat="45.61154" lon="6.62048">
        <ele>1778.8</ele>
        <time>2020-01-08T09:05:47.000Z</time>
      </trkpt>
      <trkpt lat="45.61162" lon="6.62043">
        <ele>1780.74</ele>
        <time>2020-01-08T09:06:01.000Z</time>
      </trkpt>
      <trkpt lat="45.61171" lon="6.6204">
        <ele>1783.45</ele>
        <time>2020-01-08T09:06:17.000Z</time>
      </trkpt>
      <trkpt lat="45.61181" lon="6.62036">
        <ele>1786.16</ele>
        <time>2020-01-08T09:06:32.000Z</time>
      </trkpt>
      <trkpt lat="45.61188" lon="6.62028">
        <ele>1788.74</ele>
        <time>2020-01-08T09:06:46.000Z</time>
      </trkpt>
      <trkpt lat="45.61195" lon="6.62019">
        <ele>1793.46</ele>
        <time>2020-01-08T09:07:43.000Z</time>
      </trkpt>
      <trkpt lat="45.61197" lon="6.62005">
        <ele>1796.45</ele>
        <time>2020-01-08T09:08:00.000Z</time>
      </trkpt>
      <trkpt lat="45.61203" lon="6.61996">
        <ele>1798.44</ele>
        <time>2020-01-08T09:08:15.000Z</time>
      </trkpt>
      <trkpt lat="45.61211" lon="6.61989">
        <ele>1799.24</ele>
        <time>2020-01-08T09:08:22.000Z</time>
      </trkpt>
      <trkpt lat="45.61219" lon="6.61981">
        <ele>1800.15</ele>
        <time>2020-01-08T09:08:32.000Z</time>
      </trkpt>
      <trkpt lat="45.61228" lon="6.61978">
        <ele>1806.97</ele>
        <time>2020-01-08T09:11:13.000Z</time>
      </trkpt>
      <trkpt lat="45.61235" lon="6.6197">
        <ele>1811.38</ele>
        <time>2020-01-08T09:11:38.000Z</time>
      </trkpt>
      <trkpt lat="45.61243" lon="6.61963">
        <ele>1813.32</ele>
        <time>2020-01-08T09:11:55.000Z</time>
      </trkpt>
      <trkpt lat="45.61252" lon="6.61957">
        <ele>1814.86</ele>
        <time>2020-01-08T09:12:14.000Z</time>
      </trkpt>
      <trkpt lat="45.61259" lon="6.61948">
        <ele>1815.3</ele>
        <time>2020-01-08T09:12:21.000Z</time>
      </trkpt>
      <trkpt lat="45.61265" lon="6.61939">
        <ele>1815.89</ele>
        <time>2020-01-08T09:12:31.000Z</time>
      </trkpt>
      <trkpt lat="45.61273" lon="6.6193">
        <ele>1816.96</ele>
        <time>2020-01-08T09:12:58.000Z</time>
      </trkpt>
      <trkpt lat="45.61281" lon="6.61923">
        <ele>1817.25</ele>
        <time>2020-01-08T09:13:08.000Z</time>
      </trkpt>
      <trkpt lat="45.61289" lon="6.61918">
        <ele>1817.46</ele>
        <time>2020-01-08T09:13:16.000Z</time>
      </trkpt>
      <trkpt lat="45.61297" lon="6.6191">
        <ele>1818.03</ele>
        <time>2020-01-08T09:13:57.000Z</time>
      </trkpt>
      <trkpt lat="45.61306" lon="6.61906">
        <ele>1818.21</ele>
        <time>2020-01-08T09:14:12.000Z</time>
      </trkpt>
      <trkpt lat="45.61314" lon="6.61902">
        <ele>1818.2</ele>
        <time>2020-01-08T09:14:24.000Z</time>
      </trkpt>
      <trkpt lat="45.61324" lon="6.61899">
        <ele>1818.25</ele>
        <time>2020-01-08T09:15:17.000Z</time>
      </trkpt>
      <trkpt lat="45.61332" lon="6.61893">
        <ele>1818.54</ele>
        <time>2020-01-08T09:15:25.000Z</time>
      </trkpt>
      <trkpt lat="45.61341" lon="6.61891">
        <ele>1819.06</ele>
        <time>2020-01-08T09:15:45.000Z</time>
      </trkpt>
      <trkpt lat="45.61351" lon="6.61891">
        <ele>1819.94</ele>
        <time>2020-01-08T09:16:21.000Z</time>
      </trkpt>
      <trkpt lat="45.61361" lon="6.61888">
        <ele>1821.34</ele>
        <time>2020-01-08T09:16:45.000Z</time>
      </trkpt>
      <trkpt lat="45.6137" lon="6.61888">
        <ele>1822.38</ele>
        <time>2020-01-08T09:17:07.000Z</time>
      </trkpt>
      <trkpt lat="45.61377" lon="6.6188">
        <ele>1822.92</ele>
        <time>2020-01-08T09:17:20.000Z</time>
      </trkpt>
      <trkpt lat="45.61387" lon="6.61877">
        <ele>1823.58</ele>
        <time>2020-01-08T09:17:32.000Z</time>
      </trkpt>
      <trkpt lat="45.61396" lon="6.61872">
        <ele>1824.15</ele>
        <time>2020-01-08T09:17:39.000Z</time>
      </trkpt>
      <trkpt lat="45.61404" lon="6.61866">
        <ele>1825.25</ele>
        <time>2020-01-08T09:18:12.000Z</time>
      </trkpt>
      <trkpt lat="45.61413" lon="6.61862">
        <ele>1827.3</ele>
        <time>2020-01-08T09:18:28.000Z</time>
      </trkpt>
      <trkpt lat="45.61423" lon="6.61858">
        <ele>1833.13</ele>
        <time>2020-01-08T09:18:56.000Z</time>
      </trkpt>
      <trkpt lat="45.61432" lon="6.61854">
        <ele>1836.14</ele>
        <time>2020-01-08T09:19:08.000Z</time>
      </trkpt>
      <trkpt lat="45.61441" lon="6.61855">
        <ele>1839.58</ele>
        <time>2020-01-08T09:19:22.000Z</time>
      </trkpt>
      <trkpt lat="45.6145" lon="6.61854">
        <ele>1843.31</ele>
        <time>2020-01-08T09:19:37.000Z</time>
      </trkpt>
      <trkpt lat="45.61445" lon="6.61841">
        <ele>1848.75</ele>
        <time>2020-01-08T09:19:56.000Z</time>
      </trkpt>
      <trkpt lat="45.61436" lon="6.61836">
        <ele>1851.56</ele>
        <time>2020-01-08T09:20:06.000Z</time>
      </trkpt>
      <trkpt lat="45.61442" lon="6.61827">
        <ele>1863.45</ele>
        <time>2020-01-08T09:21:07.000Z</time>
      </trkpt>
      <trkpt lat="45.61452" lon="6.61824">
        <ele>1868.46</ele>
        <time>2020-01-08T09:21:55.000Z</time>
      </trkpt>
      <trkpt lat="45.61461" lon="6.61824">
        <ele>1871.14</ele>
        <time>2020-01-08T09:22:08.000Z</time>
      </trkpt>
      <trkpt lat="45.61469" lon="6.6183">
        <ele>1873.73</ele>
        <time>2020-01-08T09:22:23.000Z</time>
      </trkpt>
      <trkpt lat="45.61475" lon="6.6184">
        <ele>1876.23</ele>
        <time>2020-01-08T09:22:40.000Z</time>
      </trkpt>
      <trkpt lat="45.61481" lon="6.61852">
        <ele>1878.46</ele>
        <time>2020-01-08T09:22:57.000Z</time>
      </trkpt>
      <trkpt lat="45.61487" lon="6.61862">
        <ele>1880.3</ele>
        <time>2020-01-08T09:23:12.000Z</time>
      </trkpt>
      <trkpt lat="45.6149" lon="6.61875">
        <ele>1881.67</ele>
        <time>2020-01-08T09:23:23.000Z</time>
      </trkpt>
      <trkpt lat="45.61495" lon="6.61886">
        <ele>1884.75</ele>
        <time>2020-01-08T09:23:58.000Z</time>
      </trkpt>
      <trkpt lat="45.61504" lon="6.61889">
        <ele>1886.23</ele>
        <time>2020-01-08T09:24:09.000Z</time>
      </trkpt>
      <trkpt lat="45.61513" lon="6.61885">
        <ele>1889.49</ele>
        <time>2020-01-08T09:24:53.000Z</time>
      </trkpt>
      <trkpt lat="45.61521" lon="6.61878">
        <ele>1891.16</ele>
        <time>2020-01-08T09:25:19.000Z</time>
      </trkpt>
      <trkpt lat="45.6153" lon="6.61875">
        <ele>1892.26</ele>
        <time>2020-01-08T09:25:30.000Z</time>
      </trkpt>
      <trkpt lat="45.6154" lon="6.61869">
        <ele>1894.37</ele>
        <time>2020-01-08T09:25:53.000Z</time>
      </trkpt>
      <trkpt lat="45.61546" lon="6.6186">
        <ele>1895.62</ele>
        <time>2020-01-08T09:26:06.000Z</time>
      </trkpt>
      <trkpt lat="45.61555" lon="6.61853">
        <ele>1896.78</ele>
        <time>2020-01-08T09:26:18.000Z</time>
      </trkpt>
      <trkpt lat="45.61563" lon="6.61846">
        <ele>1897.28</ele>
        <time>2020-01-08T09:26:23.000Z</time>
      </trkpt>
      <trkpt lat="45.61568" lon="6.61835">
        <ele>1898.26</ele>
        <time>2020-01-08T09:26:31.000Z</time>
      </trkpt>
      <trkpt lat="45.61573" lon="6.61824">
        <ele>1899.31</ele>
        <time>2020-01-08T09:26:38.000Z</time>
      </trkpt>
      <trkpt lat="45.61578" lon="6.61813">
        <ele>1901.34</ele>
        <time>2020-01-08T09:26:53.000Z</time>
      </trkpt>
      <trkpt lat="45.61586" lon="6.61803">
        <ele>1903.13</ele>
        <time>2020-01-08T09:27:13.000Z</time>
      </trkpt>
      <trkpt lat="45.61593" lon="6.61793">
        <ele>1904.17</ele>
        <time>2020-01-08T09:27:21.000Z</time>
      </trkpt>
      <trkpt lat="45.61601" lon="6.61788">
        <ele>1905.45</ele>
        <time>2020-01-08T09:27:32.000Z</time>
      </trkpt>
      <trkpt lat="45.61609" lon="6.61779">
        <ele>1906.86</ele>
        <time>2020-01-08T09:27:48.000Z</time>
      </trkpt>
      <trkpt lat="45.61617" lon="6.61773">
        <ele>1907.46</ele>
        <time>2020-01-08T09:27:55.000Z</time>
      </trkpt>
      <trkpt lat="45.61623" lon="6.61763">
        <ele>1908.22</ele>
        <time>2020-01-08T09:28:05.000Z</time>
      </trkpt>
      <trkpt lat="45.6162" lon="6.61749">
        <ele>1909.68</ele>
        <time>2020-01-08T09:28:39.000Z</time>
      </trkpt>
      <trkpt lat="45.61622" lon="6.61737">
        <ele>1910.35</ele>
        <time>2020-01-08T09:28:50.000Z</time>
      </trkpt>
      <trkpt lat="45.61622" lon="6.61723">
        <ele>1911.1</ele>
        <time>2020-01-08T09:29:04.000Z</time>
      </trkpt>
      <trkpt lat="45.61621" lon="6.61711">
        <ele>1911.54</ele>
        <time>2020-01-08T09:29:12.000Z</time>
      </trkpt>
      <trkpt lat="45.61622" lon="6.61697">
        <ele>1912.05</ele>
        <time>2020-01-08T09:29:20.000Z</time>
      </trkpt>
      <trkpt lat="45.6162" lon="6.61683">
        <ele>1912.77</ele>
        <time>2020-01-08T09:29:30.000Z</time>
      </trkpt>
      <trkpt lat="45.61617" lon="6.61671">
        <ele>1913.67</ele>
        <time>2020-01-08T09:29:42.000Z</time>
      </trkpt>
      <trkpt lat="45.61616" lon="6.61658">
        <ele>1914.46</ele>
        <time>2020-01-08T09:29:53.000Z</time>
      </trkpt>
      <trkpt lat="45.61611" lon="6.61646">
        <ele>1915.56</ele>
        <time>2020-01-08T09:30:07.000Z</time>
      </trkpt>
      <trkpt lat="45.61608" lon="6.61632">
        <ele>1916.14</ele>
        <time>2020-01-08T09:30:14.000Z</time>
      </trkpt>
      <trkpt lat="45.61611" lon="6.6162">
        <ele>1917.51</ele>
        <time>2020-01-08T09:30:41.000Z</time>
      </trkpt>
      <trkpt lat="45.6161" lon="6.61606">
        <ele>1918.56</ele>
        <time>2020-01-08T09:30:54.000Z</time>
      </trkpt>
      <trkpt lat="45.61607" lon="6.61594">
        <ele>1920.89</ele>
        <time>2020-01-08T09:31:20.000Z</time>
      </trkpt>
      <trkpt lat="45.61608" lon="6.61581">
        <ele>1922.21</ele>
        <time>2020-01-08T09:31:38.000Z</time>
      </trkpt>
      <trkpt lat="45.6161" lon="6.61567">
        <ele>1922.8</ele>
        <time>2020-01-08T09:31:47.000Z</time>
      </trkpt>
      <trkpt lat="45.61611" lon="6.61552">
        <ele>1923.23</ele>
        <time>2020-01-08T09:31:53.000Z</time>
      </trkpt>
      <trkpt lat="45.61609" lon="6.61539">
        <ele>1924.55</ele>
        <time>2020-01-08T09:32:12.000Z</time>
      </trkpt>
      <trkpt lat="45.61609" lon="6.61525">
        <ele>1925.5</ele>
        <time>2020-01-08T09:32:25.000Z</time>
      </trkpt>
      <trkpt lat="45.61609" lon="6.61511">
        <ele>1926.83</ele>
        <time>2020-01-08T09:32:42.000Z</time>
      </trkpt>
      <trkpt lat="45.61606" lon="6.61499">
        <ele>1928.2</ele>
        <time>2020-01-08T09:32:57.000Z</time>
      </trkpt>
      <trkpt lat="45.61601" lon="6.61487">
        <ele>1929.97</ele>
        <time>2020-01-08T09:33:13.000Z</time>
      </trkpt>
      <trkpt lat="45.61596" lon="6.61476">
        <ele>1931.94</ele>
        <time>2020-01-08T09:33:29.000Z</time>
      </trkpt>
      <trkpt lat="45.61592" lon="6.61464">
        <ele>1933.82</ele>
        <time>2020-01-08T09:33:43.000Z</time>
      </trkpt>
      <trkpt lat="45.61589" lon="6.61452">
        <ele>1934.89</ele>
        <time>2020-01-08T09:33:51.000Z</time>
      </trkpt>
      <trkpt lat="45.61586" lon="6.61439">
        <ele>1936.31</ele>
        <time>2020-01-08T09:34:01.000Z</time>
      </trkpt>
      <trkpt lat="45.61584" lon="6.61426">
        <ele>1939.26</ele>
        <time>2020-01-08T09:34:19.000Z</time>
      </trkpt>
      <trkpt lat="45.61581" lon="6.61413">
        <ele>1941.57</ele>
        <time>2020-01-08T09:34:33.000Z</time>
      </trkpt>
      <trkpt lat="45.61574" lon="6.61404">
        <ele>1946.6</ele>
        <time>2020-01-08T09:34:58.000Z</time>
      </trkpt>
      <trkpt lat="45.61571" lon="6.61391">
        <ele>1949.01</ele>
        <time>2020-01-08T09:35:07.000Z</time>
      </trkpt>
      <trkpt lat="45.61564" lon="6.61382">
        <ele>1959.16</ele>
        <time>2020-01-08T09:37:11.000Z</time>
      </trkpt>
      <trkpt lat="45.61566" lon="6.61369">
        <ele>1963.99</ele>
        <time>2020-01-08T09:37:32.000Z</time>
      </trkpt>
      <trkpt lat="45.61568" lon="6.61356">
        <ele>1966.87</ele>
        <time>2020-01-08T09:37:41.000Z</time>
      </trkpt>
      <trkpt lat="45.61568" lon="6.61343">
        <ele>1969.85</ele>
        <time>2020-01-08T09:37:52.000Z</time>
      </trkpt>
      <trkpt lat="45.61567" lon="6.61329">
        <ele>1973.76</ele>
        <time>2020-01-08T09:38:09.000Z</time>
      </trkpt>
      <trkpt lat="45.61567" lon="6.61316">
        <ele>1976.34</ele>
        <time>2020-01-08T09:38:21.000Z</time>
      </trkpt>
      <trkpt lat="45.61558" lon="6.61309">
        <ele>1978.42</ele>
        <time>2020-01-08T09:38:31.000Z</time>
      </trkpt>
      <trkpt lat="45.61552" lon="6.61299">
        <ele>1980.21</ele>
        <time>2020-01-08T09:38:40.000Z</time>
      </trkpt>
      <trkpt lat="45.6155" lon="6.61286">
        <ele>1983.7</ele>
        <time>2020-01-08T09:38:58.000Z</time>
      </trkpt>
      <trkpt lat="45.61543" lon="6.61278">
        <ele>1986.57</ele>
        <time>2020-01-08T09:39:12.000Z</time>
      </trkpt>
      <trkpt lat="45.61534" lon="6.61273">
        <ele>1989.12</ele>
        <time>2020-01-08T09:39:29.000Z</time>
      </trkpt>
      <trkpt lat="45.61528" lon="6.61261">
        <ele>1991.87</ele>
        <time>2020-01-08T09:39:42.000Z</time>
      </trkpt>
      <trkpt lat="45.61528" lon="6.61248">
        <ele>1993.61</ele>
        <time>2020-01-08T09:39:51.000Z</time>
      </trkpt>
      <trkpt lat="45.6153" lon="6.61234">
        <ele>1995.07</ele>
        <time>2020-01-08T09:39:59.000Z</time>
      </trkpt>
      <trkpt lat="45.61526" lon="6.61221">
        <ele>1997.64</ele>
        <time>2020-01-08T09:40:14.000Z</time>
      </trkpt>
      <trkpt lat="45.61523" lon="6.61208">
        <ele>1999.66</ele>
        <time>2020-01-08T09:40:27.000Z</time>
      </trkpt>
      <trkpt lat="45.61522" lon="6.61195">
        <ele>2000.89</ele>
        <time>2020-01-08T09:40:36.000Z</time>
      </trkpt>
      <trkpt lat="45.61518" lon="6.61183">
        <ele>2002.16</ele>
        <time>2020-01-08T09:40:46.000Z</time>
      </trkpt>
      <trkpt lat="45.61516" lon="6.61169">
        <ele>2003.5</ele>
        <time>2020-01-08T09:40:57.000Z</time>
      </trkpt>
      <trkpt lat="45.61512" lon="6.61157">
        <ele>2005.31</ele>
        <time>2020-01-08T09:41:17.000Z</time>
      </trkpt>
      <trkpt lat="45.61509" lon="6.61145">
        <ele>2006.99</ele>
        <time>2020-01-08T09:41:30.000Z</time>
      </trkpt>
      <trkpt lat="45.6151" lon="6.61131">
        <ele>2008.68</ele>
        <time>2020-01-08T09:41:44.000Z</time>
      </trkpt>
      <trkpt lat="45.61511" lon="6.61117">
        <ele>2010.21</ele>
        <time>2020-01-08T09:41:59.000Z</time>
      </trkpt>
      <trkpt lat="45.6151" lon="6.61104">
        <ele>2011.69</ele>
        <time>2020-01-08T09:42:13.000Z</time>
      </trkpt>
      <trkpt lat="45.61505" lon="6.61091">
        <ele>2013.11</ele>
        <time>2020-01-08T09:42:27.000Z</time>
      </trkpt>
      <trkpt lat="45.615" lon="6.6108">
        <ele>2014.28</ele>
        <time>2020-01-08T09:42:39.000Z</time>
      </trkpt>
      <trkpt lat="45.61494" lon="6.61071">
        <ele>2015.33</ele>
        <time>2020-01-08T09:42:51.000Z</time>
      </trkpt>
      <trkpt lat="45.61487" lon="6.61061">
        <ele>2016.08</ele>
        <time>2020-01-08T09:43:01.000Z</time>
      </trkpt>
      <trkpt lat="45.61484" lon="6.61047">
        <ele>2016.77</ele>
        <time>2020-01-08T09:43:17.000Z</time>
      </trkpt>
      <trkpt lat="45.6148" lon="6.61035">
        <ele>2017.73</ele>
        <time>2020-01-08T09:43:31.000Z</time>
      </trkpt>
      <trkpt lat="45.6147" lon="6.61026">
        <ele>2018.42</ele>
        <time>2020-01-08T09:43:40.000Z</time>
      </trkpt>
      <trkpt lat="45.61461" lon="6.61021">
        <ele>2018.99</ele>
        <time>2020-01-08T09:43:48.000Z</time>
      </trkpt>
      <trkpt lat="45.61454" lon="6.61013">
        <ele>2019.87</ele>
        <time>2020-01-08T09:44:00.000Z</time>
      </trkpt>
      <trkpt lat="45.61448" lon="6.61003">
        <ele>2020.63</ele>
        <time>2020-01-08T09:44:10.000Z</time>
      </trkpt>
      <trkpt lat="45.61444" lon="6.60991">
        <ele>2021.11</ele>
        <time>2020-01-08T09:44:16.000Z</time>
      </trkpt>
      <trkpt lat="45.61438" lon="6.6098">
        <ele>2021.77</ele>
        <time>2020-01-08T09:44:24.000Z</time>
      </trkpt>
      <trkpt lat="45.61436" lon="6.60966">
        <ele>2022.68</ele>
        <time>2020-01-08T09:44:35.000Z</time>
      </trkpt>
      <trkpt lat="45.61436" lon="6.60952">
        <ele>2023.46</ele>
        <time>2020-01-08T09:44:45.000Z</time>
      </trkpt>
      <trkpt lat="45.61436" lon="6.60938">
        <ele>2024.45</ele>
        <time>2020-01-08T09:44:57.000Z</time>
      </trkpt>
      <trkpt lat="45.61445" lon="6.60936">
        <ele>2024.89</ele>
        <time>2020-01-08T09:45:02.000Z</time>
      </trkpt>
      <trkpt lat="45.61454" lon="6.60933">
        <ele>2026.51</ele>
        <time>2020-01-08T09:45:26.000Z</time>
      </trkpt>
      <trkpt lat="45.61455" lon="6.6092">
        <ele>2028.28</ele>
        <time>2020-01-08T09:45:45.000Z</time>
      </trkpt>
      <trkpt lat="45.61455" lon="6.60907">
        <ele>2029.02</ele>
        <time>2020-01-08T09:45:57.000Z</time>
      </trkpt>
      <trkpt lat="45.6145" lon="6.60895">
        <ele>2030.23</ele>
        <time>2020-01-08T09:46:11.000Z</time>
      </trkpt>
      <trkpt lat="45.61445" lon="6.60884">
        <ele>2031.37</ele>
        <time>2020-01-08T09:46:27.000Z</time>
      </trkpt>
      <trkpt lat="45.6144" lon="6.60873">
        <ele>2032.12</ele>
        <time>2020-01-08T09:46:37.000Z</time>
      </trkpt>
      <trkpt lat="45.61435" lon="6.60862">
        <ele>2032.96</ele>
        <time>2020-01-08T09:46:49.000Z</time>
      </trkpt>
      <trkpt lat="45.61431" lon="6.6085">
        <ele>2034.01</ele>
        <time>2020-01-08T09:47:03.000Z</time>
      </trkpt>
      <trkpt lat="45.61427" lon="6.60838">
        <ele>2035.28</ele>
        <time>2020-01-08T09:47:28.000Z</time>
      </trkpt>
      <trkpt lat="45.61424" lon="6.60825">
        <ele>2035.92</ele>
        <time>2020-01-08T09:47:37.000Z</time>
      </trkpt>
      <trkpt lat="45.61423" lon="6.60812">
        <ele>2036.79</ele>
        <time>2020-01-08T09:47:49.000Z</time>
      </trkpt>
      <trkpt lat="45.61421" lon="6.60798">
        <ele>2038.03</ele>
        <time>2020-01-08T09:48:11.000Z</time>
      </trkpt>
      <trkpt lat="45.6142" lon="6.60784">
        <ele>2039.05</ele>
        <time>2020-01-08T09:48:21.000Z</time>
      </trkpt>
      <trkpt lat="45.61422" lon="6.60771">
        <ele>2041.2</ele>
        <time>2020-01-08T09:48:44.000Z</time>
      </trkpt>
      <trkpt lat="45.61421" lon="6.60756">
        <ele>2043.05</ele>
        <time>2020-01-08T09:48:55.000Z</time>
      </trkpt>
      <trkpt lat="45.61419" lon="6.60743">
        <ele>2044.93</ele>
        <time>2020-01-08T09:49:06.000Z</time>
      </trkpt>
      <trkpt lat="45.61416" lon="6.60731">
        <ele>2047.03</ele>
        <time>2020-01-08T09:49:18.000Z</time>
      </trkpt>
      <trkpt lat="45.61416" lon="6.60717">
        <ele>2049.45</ele>
        <time>2020-01-08T09:49:32.000Z</time>
      </trkpt>
      <trkpt lat="45.61412" lon="6.60704">
        <ele>2051.16</ele>
        <time>2020-01-08T09:49:43.000Z</time>
      </trkpt>
      <trkpt lat="45.6141" lon="6.6069">
        <ele>2052.74</ele>
        <time>2020-01-08T09:49:54.000Z</time>
      </trkpt>
      <trkpt lat="45.61412" lon="6.60677">
        <ele>2054</ele>
        <time>2020-01-08T09:50:03.000Z</time>
      </trkpt>
      <trkpt lat="45.61412" lon="6.60664">
        <ele>2056.31</ele>
        <time>2020-01-08T09:50:20.000Z</time>
      </trkpt>
      <trkpt lat="45.6141" lon="6.60651">
        <ele>2058.12</ele>
        <time>2020-01-08T09:50:33.000Z</time>
      </trkpt>
      <trkpt lat="45.61405" lon="6.6064">
        <ele>2059.38</ele>
        <time>2020-01-08T09:50:42.000Z</time>
      </trkpt>
      <trkpt lat="45.61409" lon="6.60627">
        <ele>2061.18</ele>
        <time>2020-01-08T09:50:55.000Z</time>
      </trkpt>
      <trkpt lat="45.61409" lon="6.60614">
        <ele>2063.48</ele>
        <time>2020-01-08T09:51:16.000Z</time>
      </trkpt>
      <trkpt lat="45.61407" lon="6.60601">
        <ele>2064.92</ele>
        <time>2020-01-08T09:51:26.000Z</time>
      </trkpt>
      <trkpt lat="45.61407" lon="6.60588">
        <ele>2067.03</ele>
        <time>2020-01-08T09:51:41.000Z</time>
      </trkpt>
      <trkpt lat="45.61407" lon="6.60574">
        <ele>2068.85</ele>
        <time>2020-01-08T09:51:55.000Z</time>
      </trkpt>
      <trkpt lat="45.61408" lon="6.60561">
        <ele>2070.07</ele>
        <time>2020-01-08T09:52:05.000Z</time>
      </trkpt>
      <trkpt lat="45.61408" lon="6.60548">
        <ele>2071.56</ele>
        <time>2020-01-08T09:52:18.000Z</time>
      </trkpt>
      <trkpt lat="45.61409" lon="6.60534">
        <ele>2072.92</ele>
        <time>2020-01-08T09:52:31.000Z</time>
      </trkpt>
      <trkpt lat="45.61408" lon="6.60521">
        <ele>2074.13</ele>
        <time>2020-01-08T09:52:43.000Z</time>
      </trkpt>
      <trkpt lat="45.61406" lon="6.60507">
        <ele>2075.4</ele>
        <time>2020-01-08T09:52:56.000Z</time>
      </trkpt>
      <trkpt lat="45.61401" lon="6.60495">
        <ele>2077.24</ele>
        <time>2020-01-08T09:53:27.000Z</time>
      </trkpt>
      <trkpt lat="45.61392" lon="6.60492">
        <ele>2078.58</ele>
        <time>2020-01-08T09:53:41.000Z</time>
      </trkpt>
      <trkpt lat="45.61383" lon="6.60491">
        <ele>2079.85</ele>
        <time>2020-01-08T09:53:53.000Z</time>
      </trkpt>
      <trkpt lat="45.61373" lon="6.60487">
        <ele>2081.37</ele>
        <time>2020-01-08T09:54:07.000Z</time>
      </trkpt>
      <trkpt lat="45.61371" lon="6.60474">
        <ele>2082.45</ele>
        <time>2020-01-08T09:54:17.000Z</time>
      </trkpt>
      <trkpt lat="45.61368" lon="6.60461">
        <ele>2083.68</ele>
        <time>2020-01-08T09:54:29.000Z</time>
      </trkpt>
      <trkpt lat="45.61367" lon="6.60448">
        <ele>2085.59</ele>
        <time>2020-01-08T09:54:49.000Z</time>
      </trkpt>
      <trkpt lat="45.61366" lon="6.60435">
        <ele>2086.13</ele>
        <time>2020-01-08T09:54:55.000Z</time>
      </trkpt>
      <trkpt lat="45.61367" lon="6.60421">
        <ele>2087.19</ele>
        <time>2020-01-08T09:55:07.000Z</time>
      </trkpt>
      <trkpt lat="45.61363" lon="6.60409">
        <ele>2088.3</ele>
        <time>2020-01-08T09:55:20.000Z</time>
      </trkpt>
      <trkpt lat="45.61355" lon="6.604">
        <ele>2090.32</ele>
        <time>2020-01-08T09:55:58.000Z</time>
      </trkpt>
      <trkpt lat="45.61346" lon="6.60395">
        <ele>2091.76</ele>
        <time>2020-01-08T09:56:12.000Z</time>
      </trkpt>
      <trkpt lat="45.6134" lon="6.60384">
        <ele>2092.42</ele>
        <time>2020-01-08T09:56:19.000Z</time>
      </trkpt>
      <trkpt lat="45.61336" lon="6.60373">
        <ele>2093.33</ele>
        <time>2020-01-08T09:56:29.000Z</time>
      </trkpt>
      <trkpt lat="45.61326" lon="6.60365">
        <ele>2095.2</ele>
        <time>2020-01-08T09:56:50.000Z</time>
      </trkpt>
      <trkpt lat="45.61317" lon="6.60363">
        <ele>2096.19</ele>
        <time>2020-01-08T09:57:01.000Z</time>
      </trkpt>
      <trkpt lat="45.61312" lon="6.60374">
        <ele>2097.13</ele>
        <time>2020-01-08T09:57:11.000Z</time>
      </trkpt>
      <trkpt lat="45.61305" lon="6.60382">
        <ele>2098.58</ele>
        <time>2020-01-08T09:57:27.000Z</time>
      </trkpt>
      <trkpt lat="45.61298" lon="6.60391">
        <ele>2100.34</ele>
        <time>2020-01-08T09:58:02.000Z</time>
      </trkpt>
      <trkpt lat="45.6129" lon="6.60399">
        <ele>2101.72</ele>
        <time>2020-01-08T09:58:16.000Z</time>
      </trkpt>
      <trkpt lat="45.61281" lon="6.60402">
        <ele>2104.61</ele>
        <time>2020-01-08T09:58:50.000Z</time>
      </trkpt>
      <trkpt lat="45.61272" lon="6.60407">
        <ele>2105.72</ele>
        <time>2020-01-08T09:59:02.000Z</time>
      </trkpt>
      <trkpt lat="45.61263" lon="6.60403">
        <ele>2107.21</ele>
        <time>2020-01-08T09:59:19.000Z</time>
      </trkpt>
      <trkpt lat="45.61253" lon="6.60401">
        <ele>2108.82</ele>
        <time>2020-01-08T09:59:34.000Z</time>
      </trkpt>
      <trkpt lat="45.61246" lon="6.60392">
        <ele>2111.06</ele>
        <time>2020-01-08T09:59:51.000Z</time>
      </trkpt>
      <trkpt lat="45.61244" lon="6.60379">
        <ele>2112.62</ele>
        <time>2020-01-08T10:00:00.000Z</time>
      </trkpt>
      <trkpt lat="45.61247" lon="6.60367">
        <ele>2114.44</ele>
        <time>2020-01-08T10:00:10.000Z</time>
      </trkpt>
      <trkpt lat="45.61249" lon="6.60354">
        <ele>2117.58</ele>
        <time>2020-01-08T10:00:29.000Z</time>
      </trkpt>
      <trkpt lat="45.61252" lon="6.60341">
        <ele>2120.78</ele>
        <time>2020-01-08T10:00:54.000Z</time>
      </trkpt>
      <trkpt lat="45.61254" lon="6.60328">
        <ele>2123.36</ele>
        <time>2020-01-08T10:01:11.000Z</time>
      </trkpt>
      <trkpt lat="45.61248" lon="6.60318">
        <ele>2126.39</ele>
        <time>2020-01-08T10:01:30.000Z</time>
      </trkpt>
      <trkpt lat="45.61241" lon="6.60309">
        <ele>2129.3</ele>
        <time>2020-01-08T10:01:49.000Z</time>
      </trkpt>
      <trkpt lat="45.61232" lon="6.60302">
        <ele>2130.75</ele>
        <time>2020-01-08T10:02:00.000Z</time>
      </trkpt>
      <trkpt lat="45.61228" lon="6.60289">
        <ele>2132.84</ele>
        <time>2020-01-08T10:02:16.000Z</time>
      </trkpt>
      <trkpt lat="45.61224" lon="6.60278">
        <ele>2134.31</ele>
        <time>2020-01-08T10:02:27.000Z</time>
      </trkpt>
      <trkpt lat="45.61219" lon="6.60267">
        <ele>2135.67</ele>
        <time>2020-01-08T10:02:37.000Z</time>
      </trkpt>
      <trkpt lat="45.61214" lon="6.60255">
        <ele>2137.29</ele>
        <time>2020-01-08T10:02:49.000Z</time>
      </trkpt>
      <trkpt lat="45.61208" lon="6.60245">
        <ele>2138.43</ele>
        <time>2020-01-08T10:02:58.000Z</time>
      </trkpt>
      <trkpt lat="45.61202" lon="6.60236">
        <ele>2140.34</ele>
        <time>2020-01-08T10:03:14.000Z</time>
      </trkpt>
      <trkpt lat="45.61197" lon="6.60225">
        <ele>2141.66</ele>
        <time>2020-01-08T10:03:25.000Z</time>
      </trkpt>
      <trkpt lat="45.6119" lon="6.60215">
        <ele>2143.36</ele>
        <time>2020-01-08T10:03:40.000Z</time>
      </trkpt>
      <trkpt lat="45.61182" lon="6.60209">
        <ele>2144.43</ele>
        <time>2020-01-08T10:03:50.000Z</time>
      </trkpt>
      <trkpt lat="45.61173" lon="6.60202">
        <ele>2145.15</ele>
        <time>2020-01-08T10:03:57.000Z</time>
      </trkpt>
      <trkpt lat="45.61164" lon="6.60194">
        <ele>2146.29</ele>
        <time>2020-01-08T10:04:09.000Z</time>
      </trkpt>
      <trkpt lat="45.61157" lon="6.60184">
        <ele>2147.17</ele>
        <time>2020-01-08T10:04:19.000Z</time>
      </trkpt>
      <trkpt lat="45.6115" lon="6.60176">
        <ele>2148.24</ele>
        <time>2020-01-08T10:04:31.000Z</time>
      </trkpt>
      <trkpt lat="45.61141" lon="6.60168">
        <ele>2150.09</ele>
        <time>2020-01-08T10:05:05.000Z</time>
      </trkpt>
      <trkpt lat="45.61134" lon="6.60158">
        <ele>2150.96</ele>
        <time>2020-01-08T10:05:14.000Z</time>
      </trkpt>
      <trkpt lat="45.61127" lon="6.60151">
        <ele>2152.13</ele>
        <time>2020-01-08T10:05:27.000Z</time>
      </trkpt>
      <trkpt lat="45.61118" lon="6.60145">
        <ele>2153.03</ele>
        <time>2020-01-08T10:05:38.000Z</time>
      </trkpt>
      <trkpt lat="45.61109" lon="6.60149">
        <ele>2154.04</ele>
        <time>2020-01-08T10:05:51.000Z</time>
      </trkpt>
      <trkpt lat="45.61101" lon="6.60141">
        <ele>2154.87</ele>
        <time>2020-01-08T10:06:03.000Z</time>
      </trkpt>
      <trkpt lat="45.61092" lon="6.60134">
        <ele>2155.84</ele>
        <time>2020-01-08T10:06:17.000Z</time>
      </trkpt>
      <trkpt lat="45.61085" lon="6.60124">
        <ele>2156.23</ele>
        <time>2020-01-08T10:06:23.000Z</time>
      </trkpt>
      <trkpt lat="45.61076" lon="6.60125">
        <ele>2157.23</ele>
        <time>2020-01-08T10:06:39.000Z</time>
      </trkpt>
      <trkpt lat="45.61064" lon="6.60115">
        <ele>2157.64</ele>
        <time>2020-01-08T10:06:46.000Z</time>
      </trkpt>
      <trkpt lat="45.61056" lon="6.60106">
        <ele>2158.46</ele>
        <time>2020-01-08T10:07:07.000Z</time>
      </trkpt>
      <trkpt lat="45.61049" lon="6.60096">
        <ele>2159.02</ele>
        <time>2020-01-08T10:07:15.000Z</time>
      </trkpt>
      <trkpt lat="45.61042" lon="6.60087">
        <ele>2159.65</ele>
        <time>2020-01-08T10:07:24.000Z</time>
      </trkpt>
      <trkpt lat="45.61034" lon="6.6008">
        <ele>2160.58</ele>
        <time>2020-01-08T10:07:38.000Z</time>
      </trkpt>
      <trkpt lat="45.61027" lon="6.60071">
        <ele>2161.16</ele>
        <time>2020-01-08T10:07:47.000Z</time>
      </trkpt>
      <trkpt lat="45.6102" lon="6.60062">
        <ele>2161.86</ele>
        <time>2020-01-08T10:07:58.000Z</time>
      </trkpt>
      <trkpt lat="45.61013" lon="6.60052">
        <ele>2162.5</ele>
        <time>2020-01-08T10:08:08.000Z</time>
      </trkpt>
      <trkpt lat="45.61005" lon="6.60042">
        <ele>2163.06</ele>
        <time>2020-01-08T10:08:17.000Z</time>
      </trkpt>
      <trkpt lat="45.60998" lon="6.60035">
        <ele>2163.42</ele>
        <time>2020-01-08T10:08:23.000Z</time>
      </trkpt>
      <trkpt lat="45.60992" lon="6.60025">
        <ele>2164.38</ele>
        <time>2020-01-08T10:08:46.000Z</time>
      </trkpt>
      <trkpt lat="45.60985" lon="6.60016">
        <ele>2165.01</ele>
        <time>2020-01-08T10:08:56.000Z</time>
      </trkpt>
      <trkpt lat="45.6098" lon="6.60005">
        <ele>2165.65</ele>
        <time>2020-01-08T10:09:06.000Z</time>
      </trkpt>
      <trkpt lat="45.60972" lon="6.59994">
        <ele>2166.41</ele>
        <time>2020-01-08T10:09:18.000Z</time>
      </trkpt>
      <trkpt lat="45.60966" lon="6.59985">
        <ele>2166.93</ele>
        <time>2020-01-08T10:09:26.000Z</time>
      </trkpt>
      <trkpt lat="45.60958" lon="6.59976">
        <ele>2167.75</ele>
        <time>2020-01-08T10:09:40.000Z</time>
      </trkpt>
      <trkpt lat="45.60952" lon="6.59966">
        <ele>2168.47</ele>
        <time>2020-01-08T10:09:54.000Z</time>
      </trkpt>
      <trkpt lat="45.60943" lon="6.59966">
        <ele>2169.44</ele>
        <time>2020-01-08T10:10:13.000Z</time>
      </trkpt>
      <trkpt lat="45.60934" lon="6.59961">
        <ele>2169.75</ele>
        <time>2020-01-08T10:10:19.000Z</time>
      </trkpt>
      <trkpt lat="45.60926" lon="6.59952">
        <ele>2170.35</ele>
        <time>2020-01-08T10:10:45.000Z</time>
      </trkpt>
      <trkpt lat="45.60918" lon="6.59948">
        <ele>2171.28</ele>
        <time>2020-01-08T10:11:22.000Z</time>
      </trkpt>
      <trkpt lat="45.6091" lon="6.5994">
        <ele>2171.64</ele>
        <time>2020-01-08T10:11:30.000Z</time>
      </trkpt>
      <trkpt lat="45.60901" lon="6.59935">
        <ele>2171.96</ele>
        <time>2020-01-08T10:11:38.000Z</time>
      </trkpt>
      <trkpt lat="45.60892" lon="6.59932">
        <ele>2172.29</ele>
        <time>2020-01-08T10:11:47.000Z</time>
      </trkpt>
      <trkpt lat="45.60882" lon="6.59928">
        <ele>2172.55</ele>
        <time>2020-01-08T10:11:55.000Z</time>
      </trkpt>
      <trkpt lat="45.60874" lon="6.59918">
        <ele>2172.72</ele>
        <time>2020-01-08T10:12:00.000Z</time>
      </trkpt>
      <trkpt lat="45.60868" lon="6.59907">
        <ele>2173.18</ele>
        <time>2020-01-08T10:12:14.000Z</time>
      </trkpt>
      <trkpt lat="45.60862" lon="6.59897">
        <ele>2173.48</ele>
        <time>2020-01-08T10:12:28.000Z</time>
      </trkpt>
      <trkpt lat="45.60852" lon="6.59892">
        <ele>2173.84</ele>
        <time>2020-01-08T10:12:39.000Z</time>
      </trkpt>
      <trkpt lat="45.60844" lon="6.59884">
        <ele>2174.19</ele>
        <time>2020-01-08T10:12:48.000Z</time>
      </trkpt>
      <trkpt lat="45.60837" lon="6.59875">
        <ele>2174.61</ele>
        <time>2020-01-08T10:12:58.000Z</time>
      </trkpt>
      <trkpt lat="45.6083" lon="6.59866">
        <ele>2174.95</ele>
        <time>2020-01-08T10:13:06.000Z</time>
      </trkpt>
      <trkpt lat="45.60825" lon="6.59855">
        <ele>2175.45</ele>
        <time>2020-01-08T10:13:17.000Z</time>
      </trkpt>
      <trkpt lat="45.60819" lon="6.59843">
        <ele>2175.87</ele>
        <time>2020-01-08T10:13:26.000Z</time>
      </trkpt>
      <trkpt lat="45.60815" lon="6.59831">
        <ele>2176.73</ele>
        <time>2020-01-08T10:13:58.000Z</time>
      </trkpt>
      <trkpt lat="45.60808" lon="6.59823">
        <ele>2177.04</ele>
        <time>2020-01-08T10:14:04.000Z</time>
      </trkpt>
      <trkpt lat="45.608" lon="6.59816">
        <ele>2177.43</ele>
        <time>2020-01-08T10:14:12.000Z</time>
      </trkpt>
      <trkpt lat="45.60794" lon="6.59806">
        <ele>2177.91</ele>
        <time>2020-01-08T10:14:22.000Z</time>
      </trkpt>
      <trkpt lat="45.60788" lon="6.59795">
        <ele>2178.31</ele>
        <time>2020-01-08T10:14:31.000Z</time>
      </trkpt>
      <trkpt lat="45.6078" lon="6.59788">
        <ele>2178.69</ele>
        <time>2020-01-08T10:14:41.000Z</time>
      </trkpt>
      <trkpt lat="45.60772" lon="6.59781">
        <ele>2179.1</ele>
        <time>2020-01-08T10:14:53.000Z</time>
      </trkpt>
      <trkpt lat="45.60765" lon="6.59774">
        <ele>2179.43</ele>
        <time>2020-01-08T10:15:02.000Z</time>
      </trkpt>
      <trkpt lat="45.60756" lon="6.59765">
        <ele>2179.82</ele>
        <time>2020-01-08T10:15:12.000Z</time>
      </trkpt>
      <trkpt lat="45.60749" lon="6.59755">
        <ele>2180.28</ele>
        <time>2020-01-08T10:15:24.000Z</time>
      </trkpt>
      <trkpt lat="45.60742" lon="6.59747">
        <ele>2180.75</ele>
        <time>2020-01-08T10:15:36.000Z</time>
      </trkpt>
      <trkpt lat="45.60736" lon="6.59736">
        <ele>2181.17</ele>
        <time>2020-01-08T10:15:46.000Z</time>
      </trkpt>
      <trkpt lat="45.60729" lon="6.59729">
        <ele>2181.6</ele>
        <time>2020-01-08T10:15:55.000Z</time>
      </trkpt>
      <trkpt lat="45.60722" lon="6.59719">
        <ele>2182.2</ele>
        <time>2020-01-08T10:16:07.000Z</time>
      </trkpt>
      <trkpt lat="45.60718" lon="6.59707">
        <ele>2183.01</ele>
        <time>2020-01-08T10:16:22.000Z</time>
      </trkpt>
      <trkpt lat="45.60712" lon="6.59696">
        <ele>2183.69</ele>
        <time>2020-01-08T10:16:34.000Z</time>
      </trkpt>
      <trkpt lat="45.60704" lon="6.59689">
        <ele>2184.43</ele>
        <time>2020-01-08T10:16:46.000Z</time>
      </trkpt>
      <trkpt lat="45.60697" lon="6.59679">
        <ele>2185.48</ele>
        <time>2020-01-08T10:17:01.000Z</time>
      </trkpt>
      <trkpt lat="45.6069" lon="6.59671">
        <ele>2186.06</ele>
        <time>2020-01-08T10:17:09.000Z</time>
      </trkpt>
      <trkpt lat="45.60684" lon="6.59661">
        <ele>2186.86</ele>
        <time>2020-01-08T10:17:21.000Z</time>
      </trkpt>
      <trkpt lat="45.60676" lon="6.59652">
        <ele>2187.59</ele>
        <time>2020-01-08T10:17:34.000Z</time>
      </trkpt>
      <trkpt lat="45.60668" lon="6.59645">
        <ele>2190.39</ele>
        <time>2020-01-08T10:20:03.000Z</time>
      </trkpt>
      <trkpt lat="45.60659" lon="6.59644">
        <ele>2192.22</ele>
        <time>2020-01-08T10:20:50.000Z</time>
      </trkpt>
      <trkpt lat="45.6065" lon="6.59643">
        <ele>2192.97</ele>
        <time>2020-01-08T10:21:03.000Z</time>
      </trkpt>
      <trkpt lat="45.60641" lon="6.59642">
        <ele>2193.72</ele>
        <time>2020-01-08T10:21:17.000Z</time>
      </trkpt>
      <trkpt lat="45.60638" lon="6.5963">
        <ele>2194.87</ele>
        <time>2020-01-08T10:21:38.999Z</time>
      </trkpt>
      <trkpt lat="45.60629" lon="6.59631">
        <ele>2195.52</ele>
        <time>2020-01-08T10:21:50.999Z</time>
      </trkpt>
      <trkpt lat="45.60622" lon="6.59622">
        <ele>2196.95</ele>
        <time>2020-01-08T10:22:08.999Z</time>
      </trkpt>
      <trkpt lat="45.60614" lon="6.59616">
        <ele>2199.14</ele>
        <time>2020-01-08T10:22:29.999Z</time>
      </trkpt>
      <trkpt lat="45.60605" lon="6.59611">
        <ele>2202.43</ele>
        <time>2020-01-08T10:22:51.999Z</time>
      </trkpt>
      <trkpt lat="45.606" lon="6.596">
        <ele>2205.73</ele>
        <time>2020-01-08T10:23:23.999Z</time>
      </trkpt>
      <trkpt lat="45.60592" lon="6.59593">
        <ele>2208.77</ele>
        <time>2020-01-08T10:23:38.999Z</time>
      </trkpt>
      <trkpt lat="45.60584" lon="6.59586">
        <ele>2220.5</ele>
        <time>2020-01-08T10:24:42.999Z</time>
      </trkpt>
      <trkpt lat="45.60574" lon="6.59584">
        <ele>2223.33</ele>
        <time>2020-01-08T10:24:54.999Z</time>
      </trkpt>
      <trkpt lat="45.60565" lon="6.5958">
        <ele>2225.85</ele>
        <time>2020-01-08T10:25:04.999Z</time>
      </trkpt>
      <trkpt lat="45.60557" lon="6.59574">
        <ele>2228.58</ele>
        <time>2020-01-08T10:25:16.999Z</time>
      </trkpt>
      <trkpt lat="45.60549" lon="6.59567">
        <ele>2231.47</ele>
        <time>2020-01-08T10:25:37.999Z</time>
      </trkpt>
      <trkpt lat="45.6054" lon="6.59563">
        <ele>2235.12</ele>
        <time>2020-01-08T10:25:57.999Z</time>
      </trkpt>
      <trkpt lat="45.60533" lon="6.59554">
        <ele>2239.96</ele>
        <time>2020-01-08T10:26:23.999Z</time>
      </trkpt>
      <trkpt lat="45.60524" lon="6.59551">
        <ele>2243.79</ele>
        <time>2020-01-08T10:26:40.999Z</time>
      </trkpt>
      <trkpt lat="45.60515" lon="6.59553">
        <ele>2246.36</ele>
        <time>2020-01-08T10:26:50.999Z</time>
      </trkpt>
      <trkpt lat="45.60507" lon="6.59544">
        <ele>2250.96</ele>
        <time>2020-01-08T10:27:12.999Z</time>
      </trkpt>
      <trkpt lat="45.60502" lon="6.59533">
        <ele>2255.98</ele>
        <time>2020-01-08T10:28:04.999Z</time>
      </trkpt>
      <trkpt lat="45.60493" lon="6.5953">
        <ele>2257.5</ele>
        <time>2020-01-08T10:28:17.999Z</time>
      </trkpt>
      <trkpt lat="45.60484" lon="6.59531">
        <ele>2259.4</ele>
        <time>2020-01-08T10:28:35.999Z</time>
      </trkpt>
      <trkpt lat="45.60481" lon="6.59518">
        <ele>2261.91</ele>
        <time>2020-01-08T10:29:02.999Z</time>
      </trkpt>
      <trkpt lat="45.60475" lon="6.59508">
        <ele>2263.95</ele>
        <time>2020-01-08T10:29:26.999Z</time>
      </trkpt>
      <trkpt lat="45.60466" lon="6.59504">
        <ele>2265.07</ele>
        <time>2020-01-08T10:29:40.999Z</time>
      </trkpt>
      <trkpt lat="45.60458" lon="6.59496">
        <ele>2266.57</ele>
        <time>2020-01-08T10:30:00.999Z</time>
      </trkpt>
      <trkpt lat="45.60449" lon="6.59498">
        <ele>2267.88</ele>
        <time>2020-01-08T10:30:19.999Z</time>
      </trkpt>
      <trkpt lat="45.60443" lon="6.59487">
        <ele>2269.02</ele>
        <time>2020-01-08T10:30:32.999Z</time>
      </trkpt>
      <trkpt lat="45.60438" lon="6.59477">
        <ele>2270.51</ele>
        <time>2020-01-08T10:30:48.999Z</time>
      </trkpt>
      <trkpt lat="45.60428" lon="6.59476">
        <ele>2271.89</ele>
        <time>2020-01-08T10:31:05.999Z</time>
      </trkpt>
      <trkpt lat="45.60419" lon="6.59472">
        <ele>2275.09</ele>
        <time>2020-01-08T10:31:51.999Z</time>
      </trkpt>
      <trkpt lat="45.60416" lon="6.59459">
        <ele>2276.66</ele>
        <time>2020-01-08T10:32:03.999Z</time>
      </trkpt>
      <trkpt lat="45.60408" lon="6.59453">
        <ele>2277.95</ele>
        <time>2020-01-08T10:32:15.999Z</time>
      </trkpt>
      <trkpt lat="45.60399" lon="6.59451">
        <ele>2279.32</ele>
        <time>2020-01-08T10:32:27.999Z</time>
      </trkpt>
      <trkpt lat="45.60389" lon="6.59452">
        <ele>2280.6</ele>
        <time>2020-01-08T10:32:39.999Z</time>
      </trkpt>
      <trkpt lat="45.6038" lon="6.59452">
        <ele>2283.61</ele>
        <time>2020-01-08T10:33:03.999Z</time>
      </trkpt>
      <trkpt lat="45.6038" lon="6.59439">
        <ele>2287</ele>
        <time>2020-01-08T10:33:29.999Z</time>
      </trkpt>
      <trkpt lat="45.60381" lon="6.59426">
        <ele>2289.31</ele>
        <time>2020-01-08T10:33:47.999Z</time>
      </trkpt>
      <trkpt lat="45.60372" lon="6.59421">
        <ele>2293.43</ele>
        <time>2020-01-08T10:34:16.999Z</time>
      </trkpt>
      <trkpt lat="45.60363" lon="6.59424">
        <ele>2295.72</ele>
        <time>2020-01-08T10:34:28.999Z</time>
      </trkpt>
      <trkpt lat="45.60357" lon="6.59435">
        <ele>2298.86</ele>
        <time>2020-01-08T10:34:44.999Z</time>
      </trkpt>
      <trkpt lat="45.60356" lon="6.5945">
        <ele>2302.35</ele>
        <time>2020-01-08T10:35:01.999Z</time>
      </trkpt>
      <trkpt lat="45.60362" lon="6.59439">
        <ele>2304.96</ele>
        <time>2020-01-08T10:35:11.999Z</time>
      </trkpt>
      <trkpt lat="45.60365" lon="6.59426">
        <ele>2307.89</ele>
        <time>2020-01-08T10:35:23.999Z</time>
      </trkpt>
      <trkpt lat="45.6037" lon="6.59415">
        <ele>2310.36</ele>
        <time>2020-01-08T10:35:34.999Z</time>
      </trkpt>
      <trkpt lat="45.60378" lon="6.5941">
        <ele>2313.12</ele>
        <time>2020-01-08T10:35:49.999Z</time>
      </trkpt>
      <trkpt lat="45.60385" lon="6.594">
        <ele>2316.78</ele>
        <time>2020-01-08T10:36:11.999Z</time>
      </trkpt>
      <trkpt lat="45.60389" lon="6.59389">
        <ele>2319.03</ele>
        <time>2020-01-08T10:36:25.999Z</time>
      </trkpt>
      <trkpt lat="45.60397" lon="6.5938">
        <ele>2321.14</ele>
        <time>2020-01-08T10:36:40.999Z</time>
      </trkpt>
      <trkpt lat="45.60405" lon="6.59375">
        <ele>2322.24</ele>
        <time>2020-01-08T10:37:11.999Z</time>
      </trkpt>
      <trkpt lat="45.60413" lon="6.59368">
        <ele>2323.72</ele>
        <time>2020-01-08T10:37:26.999Z</time>
      </trkpt>
      <trkpt lat="45.60423" lon="6.59365">
        <ele>2325.03</ele>
        <time>2020-01-08T10:37:46.999Z</time>
      </trkpt>
      <trkpt lat="45.60433" lon="6.59363">
        <ele>2325.91</ele>
        <time>2020-01-08T10:38:00.999Z</time>
      </trkpt>
      <trkpt lat="45.60442" lon="6.5936">
        <ele>2326.89</ele>
        <time>2020-01-08T10:38:15.999Z</time>
      </trkpt>
      <trkpt lat="45.6045" lon="6.59353">
        <ele>2328.42</ele>
        <time>2020-01-08T10:38:36.999Z</time>
      </trkpt>
      <trkpt lat="45.60449" lon="6.5934">
        <ele>2333.91</ele>
        <time>2020-01-08T10:39:22.999Z</time>
      </trkpt>
      <trkpt lat="45.60441" lon="6.59333">
        <ele>2335.45</ele>
        <time>2020-01-08T10:39:32.999Z</time>
      </trkpt>
      <trkpt lat="45.60434" lon="6.59322">
        <ele>2338.55</ele>
        <time>2020-01-08T10:39:51.999Z</time>
      </trkpt>
      <trkpt lat="45.60425" lon="6.59316">
        <ele>2341.5</ele>
        <time>2020-01-08T10:40:18.999Z</time>
      </trkpt>
      <trkpt lat="45.60417" lon="6.59309">
        <ele>2343.47</ele>
        <time>2020-01-08T10:40:27.999Z</time>
      </trkpt>
      <trkpt lat="45.60414" lon="6.59296">
        <ele>2346.37</ele>
        <time>2020-01-08T10:40:49.999Z</time>
      </trkpt>
      <trkpt lat="45.6041" lon="6.59285">
        <ele>2350.63</ele>
        <time>2020-01-08T10:41:19.999Z</time>
      </trkpt>
      <trkpt lat="45.60406" lon="6.59272">
        <ele>2357.81</ele>
        <time>2020-01-08T10:42:06.999Z</time>
      </trkpt>
      <trkpt lat="45.60397" lon="6.59267">
        <ele>2362.44</ele>
        <time>2020-01-08T10:42:35.999Z</time>
      </trkpt>
      <trkpt lat="45.60388" lon="6.59265">
        <ele>2364.65</ele>
        <time>2020-01-08T10:42:57.999Z</time>
      </trkpt>
      <trkpt lat="45.6038" lon="6.59261">
        <ele>2366.48</ele>
        <time>2020-01-08T10:43:11.999Z</time>
      </trkpt>
      <trkpt lat="45.6037" lon="6.5926">
        <ele>2367.95</ele>
        <time>2020-01-08T10:43:25.999Z</time>
      </trkpt>
      <trkpt lat="45.60361" lon="6.59255">
        <ele>2369.41</ele>
        <time>2020-01-08T10:43:43.999Z</time>
      </trkpt>
      <trkpt lat="45.60359" lon="6.59269">
        <ele>2372.52</ele>
        <time>2020-01-08T10:44:54.999Z</time>
      </trkpt>
      <trkpt lat="45.60359" lon="6.59282">
        <ele>2374.83</ele>
        <time>2020-01-08T10:45:20.999Z</time>
      </trkpt>
      <trkpt lat="45.60349" lon="6.59283">
        <ele>2376.48</ele>
        <time>2020-01-08T10:45:43.999Z</time>
      </trkpt>
      <trkpt lat="45.60341" lon="6.59288">
        <ele>2377.67</ele>
        <time>2020-01-08T10:46:04.999Z</time>
      </trkpt>
      <trkpt lat="45.60332" lon="6.59284">
        <ele>2379.54</ele>
        <time>2020-01-08T10:46:46.999Z</time>
      </trkpt>
      <trkpt lat="45.60323" lon="6.59283">
        <ele>2380.97</ele>
        <time>2020-01-08T10:47:00.999Z</time>
      </trkpt>
      <trkpt lat="45.60314" lon="6.59283">
        <ele>2382.57</ele>
        <time>2020-01-08T10:47:27.999Z</time>
      </trkpt>
      <trkpt lat="45.60305" lon="6.59281">
        <ele>2384.89</ele>
        <time>2020-01-08T10:47:52.999Z</time>
      </trkpt>
      <trkpt lat="45.60296" lon="6.59275">
        <ele>2387.28</ele>
        <time>2020-01-08T10:48:30.999Z</time>
      </trkpt>
      <trkpt lat="45.60288" lon="6.5927">
        <ele>2389.79</ele>
        <time>2020-01-08T10:48:52.999Z</time>
      </trkpt>
      <trkpt lat="45.60279" lon="6.59265">
        <ele>2391.72</ele>
        <time>2020-01-08T10:49:21.999Z</time>
      </trkpt>
      <trkpt lat="45.60271" lon="6.59261">
        <ele>2393.02</ele>
        <time>2020-01-08T10:49:36.999Z</time>
      </trkpt>
      <trkpt lat="45.60261" lon="6.59261">
        <ele>2394.25</ele>
        <time>2020-01-08T10:49:50.999Z</time>
      </trkpt>
      <trkpt lat="45.6025" lon="6.59261">
        <ele>2395.02</ele>
        <time>2020-01-08T10:50:00.999Z</time>
      </trkpt>
      <trkpt lat="45.60241" lon="6.59261">
        <ele>2395.88</ele>
        <time>2020-01-08T10:50:12.999Z</time>
      </trkpt>
      <trkpt lat="45.60232" lon="6.59257">
        <ele>2396.6</ele>
        <time>2020-01-08T10:50:23.999Z</time>
      </trkpt>
      <trkpt lat="45.60224" lon="6.59254">
        <ele>2397.62</ele>
        <time>2020-01-08T10:50:45.999Z</time>
      </trkpt>
      <trkpt lat="45.60214" lon="6.59252">
        <ele>2398.37</ele>
        <time>2020-01-08T10:51:00.999Z</time>
      </trkpt>
      <trkpt lat="45.60205" lon="6.59249">
        <ele>2399.17</ele>
        <time>2020-01-08T10:51:12.999Z</time>
      </trkpt>
      <trkpt lat="45.60196" lon="6.59251">
        <ele>2399.96</ele>
        <time>2020-01-08T10:51:22.999Z</time>
      </trkpt>
      <trkpt lat="45.60187" lon="6.59248">
        <ele>2400.95</ele>
        <time>2020-01-08T10:51:36.999Z</time>
      </trkpt>
      <trkpt lat="45.60178" lon="6.59249">
        <ele>2401.83</ele>
        <time>2020-01-08T10:51:48.999Z</time>
      </trkpt>
      <trkpt lat="45.60167" lon="6.5925">
        <ele>2402.84</ele>
        <time>2020-01-08T10:52:01.999Z</time>
      </trkpt>
      <trkpt lat="45.60157" lon="6.5925">
        <ele>2403.81</ele>
        <time>2020-01-08T10:52:13.999Z</time>
      </trkpt>
      <trkpt lat="45.60149" lon="6.59257">
        <ele>2404.54</ele>
        <time>2020-01-08T10:52:22.999Z</time>
      </trkpt>
      <trkpt lat="45.60143" lon="6.59268">
        <ele>2408.36</ele>
        <time>2020-01-08T10:54:15.999Z</time>
      </trkpt>
      <trkpt lat="45.60139" lon="6.59279">
        <ele>2409.69</ele>
        <time>2020-01-08T10:54:41.999Z</time>
      </trkpt>
      <trkpt lat="45.60138" lon="6.59293">
        <ele>2410.72</ele>
        <time>2020-01-08T10:54:53.999Z</time>
      </trkpt>
      <trkpt lat="45.60136" lon="6.59306">
        <ele>2411.83</ele>
        <time>2020-01-08T10:55:08.999Z</time>
      </trkpt>
      <trkpt lat="45.60138" lon="6.59318">
        <ele>2415.33</ele>
        <time>2020-01-08T10:59:01.999Z</time>
      </trkpt>
      <trkpt lat="45.60148" lon="6.59318">
        <ele>2416.35</ele>
        <time>2020-01-08T11:00:54.999Z</time>
      </trkpt>
      <trkpt lat="45.6014" lon="6.59323">
        <ele>2418.4</ele>
        <time>2020-01-08T11:04:09.999Z</time>
      </trkpt>
      <trkpt lat="45.60131" lon="6.59329">
        <ele>2418.61</ele>
        <time>2020-01-08T11:04:14.999Z</time>
      </trkpt>
      <trkpt lat="45.60124" lon="6.59339">
        <ele>2418.76</ele>
        <time>2020-01-08T11:04:18.999Z</time>
      </trkpt>
      <trkpt lat="45.60114" lon="6.59348">
        <ele>2418.9</ele>
        <time>2020-01-08T11:04:22.999Z</time>
      </trkpt>
      <trkpt lat="45.60106" lon="6.59353">
        <ele>2419.19</ele>
        <time>2020-01-08T11:04:41.999Z</time>
      </trkpt>
      <trkpt lat="45.60095" lon="6.59354">
        <ele>2419.55</ele>
        <time>2020-01-08T11:05:14.999Z</time>
      </trkpt>
      <trkpt lat="45.60086" lon="6.59364">
        <ele>2419.69</ele>
        <time>2020-01-08T11:05:18.999Z</time>
      </trkpt>
      <trkpt lat="45.60076" lon="6.59369">
        <ele>2420.44</ele>
        <time>2020-01-08T11:05:21.999Z</time>
      </trkpt>
      <trkpt lat="45.60065" lon="6.59371">
        <ele>2420.79</ele>
        <time>2020-01-08T11:05:23.999Z</time>
      </trkpt>
      <trkpt lat="45.60055" lon="6.59373">
        <ele>2421.02</ele>
        <time>2020-01-08T11:05:25.999Z</time>
      </trkpt>
      <trkpt lat="45.60045" lon="6.59376">
        <ele>2421.17</ele>
        <time>2020-01-08T11:05:27.999Z</time>
      </trkpt>
      <trkpt lat="45.60035" lon="6.59375">
        <ele>2421.27</ele>
        <time>2020-01-08T11:05:29.999Z</time>
      </trkpt>
      <trkpt lat="45.60024" lon="6.59379">
        <ele>2421.34</ele>
        <time>2020-01-08T11:05:31.999Z</time>
      </trkpt>
      <trkpt lat="45.60013" lon="6.59376">
        <ele>2421.37</ele>
        <time>2020-01-08T11:05:33.999Z</time>
      </trkpt>
      <trkpt lat="45.60005" lon="6.59384">
        <ele>2421.35</ele>
        <time>2020-01-08T11:05:50.999Z</time>
      </trkpt>
      <trkpt lat="45.59991" lon="6.59382">
        <ele>2421.23</ele>
        <time>2020-01-08T11:05:54.999Z</time>
      </trkpt>
      <trkpt lat="45.59981" lon="6.5938">
        <ele>2421.12</ele>
        <time>2020-01-08T11:05:56.999Z</time>
      </trkpt>
      <trkpt lat="45.59971" lon="6.59377">
        <ele>2421.03</ele>
        <time>2020-01-08T11:05:58.999Z</time>
      </trkpt>
      <trkpt lat="45.5996" lon="6.59375">
        <ele>2420.95</ele>
        <time>2020-01-08T11:06:00.999Z</time>
      </trkpt>
      <trkpt lat="45.5995" lon="6.59371">
        <ele>2420.88</ele>
        <time>2020-01-08T11:06:02.999Z</time>
      </trkpt>
      <trkpt lat="45.59936" lon="6.59368">
        <ele>2420.78</ele>
        <time>2020-01-08T11:06:04.999Z</time>
      </trkpt>
      <trkpt lat="45.59921" lon="6.59358">
        <ele>2420.66</ele>
        <time>2020-01-08T11:06:06.999Z</time>
      </trkpt>
      <trkpt lat="45.59905" lon="6.59352">
        <ele>2420.51</ele>
        <time>2020-01-08T11:06:08.999Z</time>
      </trkpt>
      <trkpt lat="45.59889" lon="6.59347">
        <ele>2420.33</ele>
        <time>2020-01-08T11:06:10.999Z</time>
      </trkpt>
      <trkpt lat="45.59874" lon="6.59341">
        <ele>2420.12</ele>
        <time>2020-01-08T11:06:12.999Z</time>
      </trkpt>
      <trkpt lat="45.59862" lon="6.59336">
        <ele>2419.84</ele>
        <time>2020-01-08T11:06:14.999Z</time>
      </trkpt>
      <trkpt lat="45.59851" lon="6.59331">
        <ele>2419.47</ele>
        <time>2020-01-08T11:06:16.999Z</time>
      </trkpt>
      <trkpt lat="45.59841" lon="6.59325">
        <ele>2419.01</ele>
        <time>2020-01-08T11:06:18.999Z</time>
      </trkpt>
      <trkpt lat="45.59831" lon="6.5932">
        <ele>2418.3</ele>
        <time>2020-01-08T11:06:20.999Z</time>
      </trkpt>
      <trkpt lat="45.59822" lon="6.59317">
        <ele>2417.34</ele>
        <time>2020-01-08T11:06:22.999Z</time>
      </trkpt>
      <trkpt lat="45.59812" lon="6.59315">
        <ele>2416.03</ele>
        <time>2020-01-08T11:06:24.999Z</time>
      </trkpt>
      <trkpt lat="45.59802" lon="6.59314">
        <ele>2414.66</ele>
        <time>2020-01-08T11:06:26.999Z</time>
      </trkpt>
      <trkpt lat="45.59792" lon="6.59315">
        <ele>2414.08</ele>
        <time>2020-01-08T11:06:29.999Z</time>
      </trkpt>
      <trkpt lat="45.59782" lon="6.59314">
        <ele>2402.28</ele>
        <time>2020-01-08T11:07:16.999Z</time>
      </trkpt>
      <trkpt lat="45.59774" lon="6.59307">
        <ele>2393.33</ele>
        <time>2020-01-08T11:07:20.999Z</time>
      </trkpt>
      <trkpt lat="45.59775" lon="6.5929">
        <ele>2390.63</ele>
        <time>2020-01-08T11:07:23.999Z</time>
      </trkpt>
      <trkpt lat="45.5977" lon="6.5928">
        <ele>2389.26</ele>
        <time>2020-01-08T11:07:25.999Z</time>
      </trkpt>
      <trkpt lat="45.59765" lon="6.59268">
        <ele>2387.57</ele>
        <time>2020-01-08T11:07:27.999Z</time>
      </trkpt>
      <trkpt lat="45.59759" lon="6.59257">
        <ele>2386.2</ele>
        <time>2020-01-08T11:07:29.999Z</time>
      </trkpt>
      <trkpt lat="45.59754" lon="6.59243">
        <ele>2385.25</ele>
        <time>2020-01-08T11:07:31.999Z</time>
      </trkpt>
      <trkpt lat="45.59746" lon="6.59233">
        <ele>2384.76</ele>
        <time>2020-01-08T11:07:33.999Z</time>
      </trkpt>
      <trkpt lat="45.59738" lon="6.59228">
        <ele>2384.27</ele>
        <time>2020-01-08T11:07:35.999Z</time>
      </trkpt>
      <trkpt lat="45.59729" lon="6.59221">
        <ele>2383.86</ele>
        <time>2020-01-08T11:07:37.999Z</time>
      </trkpt>
      <trkpt lat="45.5972" lon="6.59217">
        <ele>2383.75</ele>
        <time>2020-01-08T11:07:39.999Z</time>
      </trkpt>
      <trkpt lat="45.59709" lon="6.59215">
        <ele>2383.67</ele>
        <time>2020-01-08T11:07:43.999Z</time>
      </trkpt>
      <trkpt lat="45.59698" lon="6.5921">
        <ele>2383.4</ele>
        <time>2020-01-08T11:07:46.999Z</time>
      </trkpt>
      <trkpt lat="45.59688" lon="6.59217">
        <ele>2382.9</ele>
        <time>2020-01-08T11:07:48.999Z</time>
      </trkpt>
      <trkpt lat="45.59682" lon="6.59228">
        <ele>2382.65</ele>
        <time>2020-01-08T11:07:51.999Z</time>
      </trkpt>
      <trkpt lat="45.59675" lon="6.59239">
        <ele>2382.11</ele>
        <time>2020-01-08T11:07:55.999Z</time>
      </trkpt>
      <trkpt lat="45.59668" lon="6.5925">
        <ele>2377.57</ele>
        <time>2020-01-08T11:08:07.999Z</time>
      </trkpt>
      <trkpt lat="45.59661" lon="6.59261">
        <ele>2372.24</ele>
        <time>2020-01-08T11:08:09.999Z</time>
      </trkpt>
      <trkpt lat="45.59654" lon="6.59273">
        <ele>2369.23</ele>
        <time>2020-01-08T11:08:11.999Z</time>
      </trkpt>
      <trkpt lat="45.59644" lon="6.59264">
        <ele>2364.94</ele>
        <time>2020-01-08T11:08:15.999Z</time>
      </trkpt>
      <trkpt lat="45.59633" lon="6.5925">
        <ele>2361.18</ele>
        <time>2020-01-08T11:08:18.999Z</time>
      </trkpt>
      <trkpt lat="45.59622" lon="6.59239">
        <ele>2358.36</ele>
        <time>2020-01-08T11:08:20.999Z</time>
      </trkpt>
      <trkpt lat="45.5961" lon="6.59233">
        <ele>2355.34</ele>
        <time>2020-01-08T11:08:22.999Z</time>
      </trkpt>
      <trkpt lat="45.59596" lon="6.59229">
        <ele>2351.89</ele>
        <time>2020-01-08T11:08:24.999Z</time>
      </trkpt>
      <trkpt lat="45.59586" lon="6.59221">
        <ele>2345.02</ele>
        <time>2020-01-08T11:08:38.999Z</time>
      </trkpt>
      <trkpt lat="45.5958" lon="6.59208">
        <ele>2339.59</ele>
        <time>2020-01-08T11:08:41.999Z</time>
      </trkpt>
      <trkpt lat="45.59577" lon="6.59191">
        <ele>2335.37</ele>
        <time>2020-01-08T11:08:43.999Z</time>
      </trkpt>
      <trkpt lat="45.59578" lon="6.59166">
        <ele>2332.01</ele>
        <time>2020-01-08T11:08:45.999Z</time>
      </trkpt>
      <trkpt lat="45.59575" lon="6.59151">
        <ele>2329.38</ele>
        <time>2020-01-08T11:08:47.999Z</time>
      </trkpt>
      <trkpt lat="45.59568" lon="6.5914">
        <ele>2328.39</ele>
        <time>2020-01-08T11:08:51.999Z</time>
      </trkpt>
      <trkpt lat="45.59559" lon="6.59145">
        <ele>2326.41</ele>
        <time>2020-01-08T11:08:55.999Z</time>
      </trkpt>
      <trkpt lat="45.5955" lon="6.59141">
        <ele>2325.73</ele>
        <time>2020-01-08T11:08:59.999Z</time>
      </trkpt>
      <trkpt lat="45.59541" lon="6.59137">
        <ele>2324.91</ele>
        <time>2020-01-08T11:09:03.999Z</time>
      </trkpt>
      <trkpt lat="45.59531" lon="6.59133">
        <ele>2322.9</ele>
        <time>2020-01-08T11:09:05.999Z</time>
      </trkpt>
      <trkpt lat="45.59519" lon="6.59128">
        <ele>2318.8</ele>
        <time>2020-01-08T11:09:08.999Z</time>
      </trkpt>
      <trkpt lat="45.5951" lon="6.5913">
        <ele>2315.77</ele>
        <time>2020-01-08T11:09:10.999Z</time>
      </trkpt>
      <trkpt lat="45.595" lon="6.59133">
        <ele>2313.53</ele>
        <time>2020-01-08T11:09:12.999Z</time>
      </trkpt>
      <trkpt lat="45.59489" lon="6.59135">
        <ele>2312.84</ele>
        <time>2020-01-08T11:09:16.999Z</time>
      </trkpt>
      <trkpt lat="45.59482" lon="6.59123">
        <ele>2300.48</ele>
        <time>2020-01-08T11:10:56.999Z</time>
      </trkpt>
      <trkpt lat="45.59477" lon="6.59111">
        <ele>2297.88</ele>
        <time>2020-01-08T11:10:58.999Z</time>
      </trkpt>
      <trkpt lat="45.59466" lon="6.59101">
        <ele>2295.16</ele>
        <time>2020-01-08T11:11:01.999Z</time>
      </trkpt>
      <trkpt lat="45.59462" lon="6.59089">
        <ele>2294.12</ele>
        <time>2020-01-08T11:11:03.999Z</time>
      </trkpt>
      <trkpt lat="45.59458" lon="6.59067">
        <ele>2292.34</ele>
        <time>2020-01-08T11:11:06.999Z</time>
      </trkpt>
      <trkpt lat="45.59459" lon="6.59053">
        <ele>2291.7</ele>
        <time>2020-01-08T11:11:08.999Z</time>
      </trkpt>
      <trkpt lat="45.59451" lon="6.59047">
        <ele>2290.78</ele>
        <time>2020-01-08T11:11:14.999Z</time>
      </trkpt>
      <trkpt lat="45.59443" lon="6.59056">
        <ele>2290.42</ele>
        <time>2020-01-08T11:11:15.999Z</time>
      </trkpt>
      <trkpt lat="45.59432" lon="6.59065">
        <ele>2289.99</ele>
        <time>2020-01-08T11:11:17.999Z</time>
      </trkpt>
      <trkpt lat="45.59418" lon="6.59067">
        <ele>2289.34</ele>
        <time>2020-01-08T11:11:20.999Z</time>
      </trkpt>
      <trkpt lat="45.59409" lon="6.59069">
        <ele>2288.99</ele>
        <time>2020-01-08T11:11:22.999Z</time>
      </trkpt>
      <trkpt lat="45.59395" lon="6.5907">
        <ele>2288.7</ele>
        <time>2020-01-08T11:11:24.999Z</time>
      </trkpt>
      <trkpt lat="45.5938" lon="6.59071">
        <ele>2288.45</ele>
        <time>2020-01-08T11:11:26.999Z</time>
      </trkpt>
      <trkpt lat="45.59367" lon="6.59066">
        <ele>2288.24</ele>
        <time>2020-01-08T11:11:28.999Z</time>
      </trkpt>
      <trkpt lat="45.59355" lon="6.59061">
        <ele>2287.96</ele>
        <time>2020-01-08T11:11:30.999Z</time>
      </trkpt>
      <trkpt lat="45.59344" lon="6.59062">
        <ele>2287.19</ele>
        <time>2020-01-08T11:11:32.999Z</time>
      </trkpt>
      <trkpt lat="45.59334" lon="6.59059">
        <ele>2286.71</ele>
        <time>2020-01-08T11:11:35.999Z</time>
      </trkpt>
      <trkpt lat="45.59323" lon="6.59054">
        <ele>2285.91</ele>
        <time>2020-01-08T11:11:39.999Z</time>
      </trkpt>
      <trkpt lat="45.59311" lon="6.5905">
        <ele>2280.19</ele>
        <time>2020-01-08T11:11:43.999Z</time>
      </trkpt>
      <trkpt lat="45.593" lon="6.59047">
        <ele>2272.75</ele>
        <time>2020-01-08T11:11:46.999Z</time>
      </trkpt>
      <trkpt lat="45.59289" lon="6.5904">
        <ele>2266.96</ele>
        <time>2020-01-08T11:11:49.999Z</time>
      </trkpt>
      <trkpt lat="45.59279" lon="6.5903">
        <ele>2262.15</ele>
        <time>2020-01-08T11:11:52.999Z</time>
      </trkpt>
      <trkpt lat="45.59269" lon="6.59022">
        <ele>2261.1</ele>
        <time>2020-01-08T11:11:56.999Z</time>
      </trkpt>
      <trkpt lat="45.59261" lon="6.59014">
        <ele>2260.49</ele>
        <time>2020-01-08T11:12:01.999Z</time>
      </trkpt>
      <trkpt lat="45.59252" lon="6.59007">
        <ele>2259.78</ele>
        <time>2020-01-08T11:12:07.999Z</time>
      </trkpt>
      <trkpt lat="45.59243" lon="6.59009">
        <ele>2259.03</ele>
        <time>2020-01-08T11:12:14.999Z</time>
      </trkpt>
      <trkpt lat="45.59232" lon="6.59011">
        <ele>2258.42</ele>
        <time>2020-01-08T11:12:20.999Z</time>
      </trkpt>
      <trkpt lat="45.59222" lon="6.59015">
        <ele>2257.93</ele>
        <time>2020-01-08T11:12:25.999Z</time>
      </trkpt>
      <trkpt lat="45.59213" lon="6.59018">
        <ele>2257.65</ele>
        <time>2020-01-08T11:12:28.999Z</time>
      </trkpt>
      <trkpt lat="45.59204" lon="6.5902">
        <ele>2257.31</ele>
        <time>2020-01-08T11:12:32.999Z</time>
      </trkpt>
      <trkpt lat="45.59194" lon="6.59021">
        <ele>2257.06</ele>
        <time>2020-01-08T11:12:35.999Z</time>
      </trkpt>
      <trkpt lat="45.59182" lon="6.59017">
        <ele>2256.75</ele>
        <time>2020-01-08T11:12:39.999Z</time>
      </trkpt>
      <trkpt lat="45.59172" lon="6.59015">
        <ele>2255.11</ele>
        <time>2020-01-08T11:12:42.999Z</time>
      </trkpt>
      <trkpt lat="45.59161" lon="6.59019">
        <ele>2254.78</ele>
        <time>2020-01-08T11:12:45.999Z</time>
      </trkpt>
      <trkpt lat="45.59152" lon="6.59023">
        <ele>2254.49</ele>
        <time>2020-01-08T11:12:50.999Z</time>
      </trkpt>
      <trkpt lat="45.59142" lon="6.59022">
        <ele>2252.87</ele>
        <time>2020-01-08T11:13:44.999Z</time>
      </trkpt>
      <trkpt lat="45.59133" lon="6.59031">
        <ele>2251.66</ele>
        <time>2020-01-08T11:13:47.999Z</time>
      </trkpt>
      <trkpt lat="45.59126" lon="6.59041">
        <ele>2251.28</ele>
        <time>2020-01-08T11:13:50.999Z</time>
      </trkpt>
      <trkpt lat="45.59129" lon="6.59053">
        <ele>2250.03</ele>
        <time>2020-01-08T11:14:03.999Z</time>
      </trkpt>
      <trkpt lat="45.5912" lon="6.59064">
        <ele>2247.55</ele>
        <time>2020-01-08T11:14:12.999Z</time>
      </trkpt>
      <trkpt lat="45.59109" lon="6.59066">
        <ele>2246.97</ele>
        <time>2020-01-08T11:14:15.999Z</time>
      </trkpt>
      <trkpt lat="45.59098" lon="6.59069">
        <ele>2246.47</ele>
        <time>2020-01-08T11:14:21.999Z</time>
      </trkpt>
      <trkpt lat="45.59089" lon="6.59073">
        <ele>2246.19</ele>
        <time>2020-01-08T11:14:24.999Z</time>
      </trkpt>
      <trkpt lat="45.59079" lon="6.59079">
        <ele>2245.9</ele>
        <time>2020-01-08T11:14:27.999Z</time>
      </trkpt>
      <trkpt lat="45.59071" lon="6.59085">
        <ele>2245.5</ele>
        <time>2020-01-08T11:14:31.999Z</time>
      </trkpt>
      <trkpt lat="45.59061" lon="6.59091">
        <ele>2245.08</ele>
        <time>2020-01-08T11:14:35.999Z</time>
      </trkpt>
      <trkpt lat="45.59052" lon="6.59097">
        <ele>2244.65</ele>
        <time>2020-01-08T11:14:39.999Z</time>
      </trkpt>
      <trkpt lat="45.59044" lon="6.59104">
        <ele>2244.09</ele>
        <time>2020-01-08T11:14:43.999Z</time>
      </trkpt>
      <trkpt lat="45.59032" lon="6.59111">
        <ele>2236.74</ele>
        <time>2020-01-08T11:16:18.999Z</time>
      </trkpt>
      <trkpt lat="45.59024" lon="6.59118">
        <ele>2234.03</ele>
        <time>2020-01-08T11:16:20.999Z</time>
      </trkpt>
      <trkpt lat="45.59013" lon="6.59126">
        <ele>2232.15</ele>
        <time>2020-01-08T11:16:22.999Z</time>
      </trkpt>
      <trkpt lat="45.59003" lon="6.59136">
        <ele>2230.76</ele>
        <time>2020-01-08T11:16:24.999Z</time>
      </trkpt>
      <trkpt lat="45.58994" lon="6.59145">
        <ele>2229.87</ele>
        <time>2020-01-08T11:16:27.999Z</time>
      </trkpt>
      <trkpt lat="45.58984" lon="6.59148">
        <ele>2227.72</ele>
        <time>2020-01-08T11:16:55.999Z</time>
      </trkpt>
      <trkpt lat="45.58974" lon="6.59156">
        <ele>2226.27</ele>
        <time>2020-01-08T11:16:57.999Z</time>
      </trkpt>
      <trkpt lat="45.58965" lon="6.59164">
        <ele>2225.19</ele>
        <time>2020-01-08T11:16:59.999Z</time>
      </trkpt>
      <trkpt lat="45.58958" lon="6.59171">
        <ele>2224.38</ele>
        <time>2020-01-08T11:17:01.999Z</time>
      </trkpt>
      <trkpt lat="45.58948" lon="6.59179">
        <ele>2223.73</ele>
        <time>2020-01-08T11:17:03.999Z</time>
      </trkpt>
      <trkpt lat="45.5894" lon="6.59187">
        <ele>2223.03</ele>
        <time>2020-01-08T11:17:05.999Z</time>
      </trkpt>
      <trkpt lat="45.58928" lon="6.59197">
        <ele>2221.93</ele>
        <time>2020-01-08T11:17:08.999Z</time>
      </trkpt>
      <trkpt lat="45.58923" lon="6.59211">
        <ele>2221.68</ele>
        <time>2020-01-08T11:17:11.999Z</time>
      </trkpt>
      <trkpt lat="45.58918" lon="6.59222">
        <ele>2221.52</ele>
        <time>2020-01-08T11:17:14.999Z</time>
      </trkpt>
      <trkpt lat="45.5891" lon="6.59232">
        <ele>2221.05</ele>
        <time>2020-01-08T11:17:20.999Z</time>
      </trkpt>
      <trkpt lat="45.58901" lon="6.59239">
        <ele>2220.49</ele>
        <time>2020-01-08T11:17:26.999Z</time>
      </trkpt>
      <trkpt lat="45.58892" lon="6.59244">
        <ele>2219.83</ele>
        <time>2020-01-08T11:17:33.999Z</time>
      </trkpt>
      <trkpt lat="45.58884" lon="6.59257">
        <ele>2219.38</ele>
        <time>2020-01-08T11:17:38.999Z</time>
      </trkpt>
      <trkpt lat="45.58876" lon="6.59268">
        <ele>2217.43</ele>
        <time>2020-01-08T11:17:41.999Z</time>
      </trkpt>
      <trkpt lat="45.58869" lon="6.59278">
        <ele>2216.47</ele>
        <time>2020-01-08T11:17:43.999Z</time>
      </trkpt>
      <trkpt lat="45.58863" lon="6.59289">
        <ele>2215.78</ele>
        <time>2020-01-08T11:17:45.999Z</time>
      </trkpt>
      <trkpt lat="45.58857" lon="6.59302">
        <ele>2215.28</ele>
        <time>2020-01-08T11:17:47.999Z</time>
      </trkpt>
      <trkpt lat="45.58853" lon="6.59315">
        <ele>2214.9</ele>
        <time>2020-01-08T11:17:49.999Z</time>
      </trkpt>
      <trkpt lat="45.58845" lon="6.5933">
        <ele>2214.47</ele>
        <time>2020-01-08T11:17:52.999Z</time>
      </trkpt>
      <trkpt lat="45.58839" lon="6.59339">
        <ele>2214.3</ele>
        <time>2020-01-08T11:17:54.999Z</time>
      </trkpt>
      <trkpt lat="45.58832" lon="6.59349">
        <ele>2214.11</ele>
        <time>2020-01-08T11:18:15.999Z</time>
      </trkpt>
      <trkpt lat="45.58826" lon="6.59359">
        <ele>2214.02</ele>
        <time>2020-01-08T11:18:18.999Z</time>
      </trkpt>
      <trkpt lat="45.58821" lon="6.59374">
        <ele>2213.28</ele>
        <time>2020-01-08T11:18:21.999Z</time>
      </trkpt>
      <trkpt lat="45.58815" lon="6.59389">
        <ele>2212.34</ele>
        <time>2020-01-08T11:18:24.999Z</time>
      </trkpt>
      <trkpt lat="45.58809" lon="6.59405">
        <ele>2211.71</ele>
        <time>2020-01-08T11:18:27.999Z</time>
      </trkpt>
      <trkpt lat="45.58804" lon="6.59418">
        <ele>2211.38</ele>
        <time>2020-01-08T11:18:29.999Z</time>
      </trkpt>
      <trkpt lat="45.58798" lon="6.59428">
        <ele>2211.1</ele>
        <time>2020-01-08T11:18:31.999Z</time>
      </trkpt>
      <trkpt lat="45.58793" lon="6.59441">
        <ele>2210.82</ele>
        <time>2020-01-08T11:18:33.999Z</time>
      </trkpt>
      <trkpt lat="45.58784" lon="6.59454">
        <ele>2210.49</ele>
        <time>2020-01-08T11:18:36.999Z</time>
      </trkpt>
      <trkpt lat="45.58776" lon="6.59463">
        <ele>2210.42</ele>
        <time>2020-01-08T11:18:39.999Z</time>
      </trkpt>
      <trkpt lat="45.5877" lon="6.59475">
        <ele>2210.11</ele>
        <time>2020-01-08T11:18:42.999Z</time>
      </trkpt>
      <trkpt lat="45.58765" lon="6.59494">
        <ele>2209.66</ele>
        <time>2020-01-08T11:18:45.999Z</time>
      </trkpt>
      <trkpt lat="45.58759" lon="6.59504">
        <ele>2209.54</ele>
        <time>2020-01-08T11:18:48.999Z</time>
      </trkpt>
      <trkpt lat="45.58755" lon="6.59516">
        <ele>2209.4</ele>
        <time>2020-01-08T11:18:58.999Z</time>
      </trkpt>
      <trkpt lat="45.5875" lon="6.59529">
        <ele>2208.67</ele>
        <time>2020-01-08T11:19:21.999Z</time>
      </trkpt>
      <trkpt lat="45.58744" lon="6.59543">
        <ele>2208.27</ele>
        <time>2020-01-08T11:19:25.999Z</time>
      </trkpt>
      <trkpt lat="45.58741" lon="6.59557">
        <ele>2207.89</ele>
        <time>2020-01-08T11:19:29.999Z</time>
      </trkpt>
      <trkpt lat="45.58736" lon="6.59572">
        <ele>2207.53</ele>
        <time>2020-01-08T11:19:33.999Z</time>
      </trkpt>
      <trkpt lat="45.58733" lon="6.59584">
        <ele>2206.97</ele>
        <time>2020-01-08T11:19:39.999Z</time>
      </trkpt>
      <trkpt lat="45.58738" lon="6.59596">
        <ele>2206.08</ele>
        <time>2020-01-08T11:19:48.999Z</time>
      </trkpt>
      <trkpt lat="45.5874" lon="6.59609">
        <ele>2205.01</ele>
        <time>2020-01-08T11:19:58.999Z</time>
      </trkpt>
      <trkpt lat="45.58741" lon="6.59622">
        <ele>2201.27</ele>
        <time>2020-01-08T11:20:39.999Z</time>
      </trkpt>
      <trkpt lat="45.58739" lon="6.59634">
        <ele>2199.76</ele>
        <time>2020-01-08T11:20:49.999Z</time>
      </trkpt>
      <trkpt lat="45.58737" lon="6.59648">
        <ele>2199.08</ele>
        <time>2020-01-08T11:20:54.999Z</time>
      </trkpt>
      <trkpt lat="45.58739" lon="6.59666">
        <ele>2196.19</ele>
        <time>2020-01-08T11:20:57.999Z</time>
      </trkpt>
      <trkpt lat="45.58744" lon="6.59679">
        <ele>2194.79</ele>
        <time>2020-01-08T11:20:59.999Z</time>
      </trkpt>
      <trkpt lat="45.58745" lon="6.59693">
        <ele>2194.02</ele>
        <time>2020-01-08T11:21:01.999Z</time>
      </trkpt>
      <trkpt lat="45.58747" lon="6.59706">
        <ele>2193.83</ele>
        <time>2020-01-08T11:21:04.999Z</time>
      </trkpt>
      <trkpt lat="45.58753" lon="6.59722">
        <ele>2193.63</ele>
        <time>2020-01-08T11:21:08.999Z</time>
      </trkpt>
      <trkpt lat="45.5876" lon="6.59735">
        <ele>2193.43</ele>
        <time>2020-01-08T11:21:11.999Z</time>
      </trkpt>
      <trkpt lat="45.5877" lon="6.59723">
        <ele>2193.35</ele>
        <time>2020-01-08T11:21:12.999Z</time>
      </trkpt>
      <trkpt lat="45.58777" lon="6.59734">
        <ele>2192.82</ele>
        <time>2020-01-08T11:21:18.999Z</time>
      </trkpt>
      <trkpt lat="45.58779" lon="6.5975">
        <ele>2191.93</ele>
        <time>2020-01-08T11:21:24.999Z</time>
      </trkpt>
      <trkpt lat="45.5878" lon="6.59764">
        <ele>2191.61</ele>
        <time>2020-01-08T11:21:27.999Z</time>
      </trkpt>
      <trkpt lat="45.58778" lon="6.5978">
        <ele>2189.46</ele>
        <time>2020-01-08T11:21:30.999Z</time>
      </trkpt>
      <trkpt lat="45.58777" lon="6.59799">
        <ele>2187.09</ele>
        <time>2020-01-08T11:21:32.999Z</time>
      </trkpt>
      <trkpt lat="45.58776" lon="6.59819">
        <ele>2184.92</ele>
        <time>2020-01-08T11:21:34.999Z</time>
      </trkpt>
      <trkpt lat="45.58775" lon="6.59836">
        <ele>2182.91</ele>
        <time>2020-01-08T11:21:36.999Z</time>
      </trkpt>
      <trkpt lat="45.58771" lon="6.5985">
        <ele>2182.26</ele>
        <time>2020-01-08T11:21:39.999Z</time>
      </trkpt>
      <trkpt lat="45.58765" lon="6.59861">
        <ele>2181.4</ele>
        <time>2020-01-08T11:21:45.999Z</time>
      </trkpt>
      <trkpt lat="45.58766" lon="6.59877">
        <ele>2180.64</ele>
        <time>2020-01-08T11:21:49.999Z</time>
      </trkpt>
      <trkpt lat="45.58766" lon="6.59893">
        <ele>2177.06</ele>
        <time>2020-01-08T11:21:52.999Z</time>
      </trkpt>
      <trkpt lat="45.58767" lon="6.59912">
        <ele>2173.36</ele>
        <time>2020-01-08T11:21:55.999Z</time>
      </trkpt>
      <trkpt lat="45.58765" lon="6.59925">
        <ele>2172.37</ele>
        <time>2020-01-08T11:22:01.999Z</time>
      </trkpt>
      <trkpt lat="45.58765" lon="6.59938">
        <ele>2171.46</ele>
        <time>2020-01-08T11:22:07.999Z</time>
      </trkpt>
      <trkpt lat="45.5876" lon="6.59926">
        <ele>2166.98</ele>
        <time>2020-01-08T11:22:18.999Z</time>
      </trkpt>
      <trkpt lat="45.58751" lon="6.59931">
        <ele>2165.3</ele>
        <time>2020-01-08T11:22:29.999Z</time>
      </trkpt>
      <trkpt lat="45.58745" lon="6.5992">
        <ele>2164.49</ele>
        <time>2020-01-08T11:22:34.999Z</time>
      </trkpt>
      <trkpt lat="45.58738" lon="6.59932">
        <ele>2160.83</ele>
        <time>2020-01-08T11:22:49.999Z</time>
      </trkpt>
      <trkpt lat="45.58736" lon="6.59952">
        <ele>2157.71</ele>
        <time>2020-01-08T11:22:51.999Z</time>
      </trkpt>
      <trkpt lat="45.58735" lon="6.59966">
        <ele>2155.78</ele>
        <time>2020-01-08T11:22:52.999Z</time>
      </trkpt>
      <trkpt lat="45.58736" lon="6.59983">
        <ele>2150.3</ele>
        <time>2020-01-08T11:22:54.999Z</time>
      </trkpt>
      <trkpt lat="45.58738" lon="6.59996">
        <ele>2148.09</ele>
        <time>2020-01-08T11:22:57.999Z</time>
      </trkpt>
      <trkpt lat="45.58739" lon="6.60011">
        <ele>2146.08</ele>
        <time>2020-01-08T11:23:01.999Z</time>
      </trkpt>
      <trkpt lat="45.5874" lon="6.60024">
        <ele>2140.65</ele>
        <time>2020-01-08T11:23:14.999Z</time>
      </trkpt>
      <trkpt lat="45.58737" lon="6.60038">
        <ele>2138.9</ele>
        <time>2020-01-08T11:23:17.999Z</time>
      </trkpt>
      <trkpt lat="45.58735" lon="6.60053">
        <ele>2129.41</ele>
        <time>2020-01-08T11:23:20.999Z</time>
      </trkpt>
      <trkpt lat="45.58734" lon="6.60067">
        <ele>2126.45</ele>
        <time>2020-01-08T11:23:23.999Z</time>
      </trkpt>
      <trkpt lat="45.58732" lon="6.60081">
        <ele>2122.96</ele>
        <time>2020-01-08T11:23:44.999Z</time>
      </trkpt>
      <trkpt lat="45.58732" lon="6.60095">
        <ele>2118.01</ele>
        <time>2020-01-08T11:23:46.999Z</time>
      </trkpt>
      <trkpt lat="45.58729" lon="6.60114">
        <ele>2112.42</ele>
        <time>2020-01-08T11:23:49.999Z</time>
      </trkpt>
      <trkpt lat="45.58726" lon="6.60128">
        <ele>2111.51</ele>
        <time>2020-01-08T11:23:52.999Z</time>
      </trkpt>
      <trkpt lat="45.58719" lon="6.6014">
        <ele>2110.96</ele>
        <time>2020-01-08T11:23:57.999Z</time>
      </trkpt>
      <trkpt lat="45.5871" lon="6.60147">
        <ele>2110.42</ele>
        <time>2020-01-08T11:24:02.999Z</time>
      </trkpt>
      <trkpt lat="45.58702" lon="6.60157">
        <ele>2109.99</ele>
        <time>2020-01-08T11:24:06.999Z</time>
      </trkpt>
      <trkpt lat="45.587" lon="6.60171">
        <ele>2099.37</ele>
        <time>2020-01-08T11:34:46.999Z</time>
      </trkpt>
      <trkpt lat="45.58699" lon="6.60184">
        <ele>2098.8</ele>
        <time>2020-01-08T11:35:04.999Z</time>
      </trkpt>
      <trkpt lat="45.58698" lon="6.60197">
        <ele>2098.51</ele>
        <time>2020-01-08T11:35:13.999Z</time>
      </trkpt>
      <trkpt lat="45.58699" lon="6.6021">
        <ele>2097.99</ele>
        <time>2020-01-08T11:35:30.999Z</time>
      </trkpt>
      <trkpt lat="45.58701" lon="6.60223">
        <ele>2097.56</ele>
        <time>2020-01-08T11:35:46.999Z</time>
      </trkpt>
      <trkpt lat="45.58706" lon="6.60235">
        <ele>2097.28</ele>
        <time>2020-01-08T11:35:54.999Z</time>
      </trkpt>
      <trkpt lat="45.58711" lon="6.60246">
        <ele>2097.09</ele>
        <time>2020-01-08T11:35:59.999Z</time>
      </trkpt>
      <trkpt lat="45.58716" lon="6.60257">
        <ele>2096.55</ele>
        <time>2020-01-08T11:36:13.999Z</time>
      </trkpt>
      <trkpt lat="45.58721" lon="6.60267">
        <ele>2095.89</ele>
        <time>2020-01-08T11:36:46.999Z</time>
      </trkpt>
      <trkpt lat="45.58729" lon="6.60275">
        <ele>2095.52</ele>
        <time>2020-01-08T11:36:58.999Z</time>
      </trkpt>
      <trkpt lat="45.58734" lon="6.60286">
        <ele>2095.2</ele>
        <time>2020-01-08T11:37:11.999Z</time>
      </trkpt>
      <trkpt lat="45.5874" lon="6.60295">
        <ele>2094.98</ele>
        <time>2020-01-08T11:37:21.999Z</time>
      </trkpt>
      <trkpt lat="45.58746" lon="6.60307">
        <ele>2094.7</ele>
        <time>2020-01-08T11:37:34.999Z</time>
      </trkpt>
      <trkpt lat="45.58754" lon="6.60313">
        <ele>2094.42</ele>
        <time>2020-01-08T11:37:47.999Z</time>
      </trkpt>
      <trkpt lat="45.58745" lon="6.60316">
        <ele>2094.18</ele>
        <time>2020-01-08T11:38:11.999Z</time>
      </trkpt>
      <trkpt lat="45.58751" lon="6.60328">
        <ele>2094.55</ele>
        <time>2020-01-08T11:38:33.999Z</time>
      </trkpt>
      <trkpt lat="45.58759" lon="6.60338">
        <ele>2094.85</ele>
        <time>2020-01-08T11:38:48.999Z</time>
      </trkpt>
      <trkpt lat="45.58768" lon="6.60335">
        <ele>2095.36</ele>
        <time>2020-01-08T11:39:13.999Z</time>
      </trkpt>
      <trkpt lat="45.58776" lon="6.60341">
        <ele>2095.96</ele>
        <time>2020-01-08T11:39:30.999Z</time>
      </trkpt>
      <trkpt lat="45.58781" lon="6.60353">
        <ele>2097.5</ele>
        <time>2020-01-08T11:40:13.999Z</time>
      </trkpt>
      <trkpt lat="45.58789" lon="6.60362">
        <ele>2098.02</ele>
        <time>2020-01-08T11:40:22.999Z</time>
      </trkpt>
      <trkpt lat="45.58797" lon="6.60367">
        <ele>2099.83</ele>
        <time>2020-01-08T11:40:45.999Z</time>
      </trkpt>
      <trkpt lat="45.58805" lon="6.60377">
        <ele>2100.67</ele>
        <time>2020-01-08T11:40:54.999Z</time>
      </trkpt>
      <trkpt lat="45.58811" lon="6.60387">
        <ele>2102.4</ele>
        <time>2020-01-08T11:41:15.999Z</time>
      </trkpt>
      <trkpt lat="45.58817" lon="6.60397">
        <ele>2103.93</ele>
        <time>2020-01-08T11:41:31.999Z</time>
      </trkpt>
      <trkpt lat="45.58823" lon="6.60407">
        <ele>2105.97</ele>
        <time>2020-01-08T11:41:48.999Z</time>
      </trkpt>
      <trkpt lat="45.58826" lon="6.6042">
        <ele>2107.64</ele>
        <time>2020-01-08T11:42:01.999Z</time>
      </trkpt>
      <trkpt lat="45.58833" lon="6.60429">
        <ele>2108.83</ele>
        <time>2020-01-08T11:42:11.999Z</time>
      </trkpt>
      <trkpt lat="45.58836" lon="6.60443">
        <ele>2110.49</ele>
        <time>2020-01-08T11:42:28.999Z</time>
      </trkpt>
      <trkpt lat="45.5884" lon="6.60454">
        <ele>2111.3</ele>
        <time>2020-01-08T11:42:39.999Z</time>
      </trkpt>
      <trkpt lat="45.58847" lon="6.60464">
        <ele>2114.01</ele>
        <time>2020-01-08T11:43:33.999Z</time>
      </trkpt>
      <trkpt lat="45.58851" lon="6.60476">
        <ele>2115.29</ele>
        <time>2020-01-08T11:44:00.999Z</time>
      </trkpt>
      <trkpt lat="45.58856" lon="6.60488">
        <ele>2116.35</ele>
        <time>2020-01-08T11:44:14.999Z</time>
      </trkpt>
      <trkpt lat="45.58862" lon="6.60498">
        <ele>2117.48</ele>
        <time>2020-01-08T11:44:27.999Z</time>
      </trkpt>
      <trkpt lat="45.58869" lon="6.60507">
        <ele>2120.47</ele>
        <time>2020-01-08T11:45:02.999Z</time>
      </trkpt>
      <trkpt lat="45.58865" lon="6.60519">
        <ele>2122.54</ele>
        <time>2020-01-08T11:45:21.999Z</time>
      </trkpt>
      <trkpt lat="45.58869" lon="6.6053">
        <ele>2123.94</ele>
        <time>2020-01-08T11:45:34.999Z</time>
      </trkpt>
      <trkpt lat="45.58876" lon="6.60539">
        <ele>2125.21</ele>
        <time>2020-01-08T11:45:47.999Z</time>
      </trkpt>
      <trkpt lat="45.58885" lon="6.60546">
        <ele>2126.25</ele>
        <time>2020-01-08T11:45:58.999Z</time>
      </trkpt>
      <trkpt lat="45.5889" lon="6.60556">
        <ele>2127.83</ele>
        <time>2020-01-08T11:46:14.999Z</time>
      </trkpt>
      <trkpt lat="45.58897" lon="6.60565">
        <ele>2129.5</ele>
        <time>2020-01-08T11:46:32.999Z</time>
      </trkpt>
      <trkpt lat="45.58905" lon="6.60572">
        <ele>2133.08</ele>
        <time>2020-01-08T11:47:25.999Z</time>
      </trkpt>
      <trkpt lat="45.58912" lon="6.60582">
        <ele>2135.32</ele>
        <time>2020-01-08T11:47:42.999Z</time>
      </trkpt>
      <trkpt lat="45.58919" lon="6.6059">
        <ele>2137.87</ele>
        <time>2020-01-08T11:48:01.999Z</time>
      </trkpt>
      <trkpt lat="45.58924" lon="6.60601">
        <ele>2142.92</ele>
        <time>2020-01-08T11:48:37.999Z</time>
      </trkpt>
      <trkpt lat="45.58923" lon="6.60615">
        <ele>2144.76</ele>
        <time>2020-01-08T11:48:49.999Z</time>
      </trkpt>
      <trkpt lat="45.58932" lon="6.60619">
        <ele>2153.05</ele>
        <time>2020-01-08T11:49:57.999Z</time>
      </trkpt>
      <trkpt lat="45.58936" lon="6.60631">
        <ele>2155.47</ele>
        <time>2020-01-08T11:50:11.999Z</time>
      </trkpt>
      <trkpt lat="45.58943" lon="6.6064">
        <ele>2163.76</ele>
        <time>2020-01-08T11:51:49.999Z</time>
      </trkpt>
      <trkpt lat="45.58953" lon="6.60635">
        <ele>2166.14</ele>
        <time>2020-01-08T11:52:04.999Z</time>
      </trkpt>
      <trkpt lat="45.58961" lon="6.60642">
        <ele>2168.27</ele>
        <time>2020-01-08T11:52:19.999Z</time>
      </trkpt>
      <trkpt lat="45.58967" lon="6.60652">
        <ele>2170.01</ele>
        <time>2020-01-08T11:52:33.999Z</time>
      </trkpt>
      <trkpt lat="45.58974" lon="6.6066">
        <ele>2172.98</ele>
        <time>2020-01-08T11:53:13.999Z</time>
      </trkpt>
      <trkpt lat="45.58979" lon="6.60671">
        <ele>2174.43</ele>
        <time>2020-01-08T11:53:25.999Z</time>
      </trkpt>
      <trkpt lat="45.58983" lon="6.60684">
        <ele>2175.83</ele>
        <time>2020-01-08T11:53:37.999Z</time>
      </trkpt>
      <trkpt lat="45.58986" lon="6.60696">
        <ele>2176.94</ele>
        <time>2020-01-08T11:53:47.999Z</time>
      </trkpt>
      <trkpt lat="45.5899" lon="6.60709">
        <ele>2178.69</ele>
        <time>2020-01-08T11:54:02.999Z</time>
      </trkpt>
      <trkpt lat="45.58993" lon="6.60721">
        <ele>2180.07</ele>
        <time>2020-01-08T11:54:12.999Z</time>
      </trkpt>
      <trkpt lat="45.58999" lon="6.60733">
        <ele>2183.71</ele>
        <time>2020-01-08T11:54:54.999Z</time>
      </trkpt>
      <trkpt lat="45.59002" lon="6.60746">
        <ele>2185.57</ele>
        <time>2020-01-08T11:55:03.999Z</time>
      </trkpt>
      <trkpt lat="45.59006" lon="6.60757">
        <ele>2189.7</ele>
        <time>2020-01-08T11:55:25.999Z</time>
      </trkpt>
      <trkpt lat="45.59014" lon="6.60763">
        <ele>2192.79</ele>
        <time>2020-01-08T11:55:45.999Z</time>
      </trkpt>
      <trkpt lat="45.5902" lon="6.60773">
        <ele>2194.99</ele>
        <time>2020-01-08T11:56:02.999Z</time>
      </trkpt>
      <trkpt lat="45.59024" lon="6.60786">
        <ele>2198.31</ele>
        <time>2020-01-08T11:56:32.999Z</time>
      </trkpt>
      <trkpt lat="45.59031" lon="6.60793">
        <ele>2200.19</ele>
        <time>2020-01-08T11:56:46.999Z</time>
      </trkpt>
      <trkpt lat="45.5904" lon="6.60797">
        <ele>2201.88</ele>
        <time>2020-01-08T11:56:59.999Z</time>
      </trkpt>
      <trkpt lat="45.59046" lon="6.60809">
        <ele>2203.91</ele>
        <time>2020-01-08T11:57:15.999Z</time>
      </trkpt>
      <trkpt lat="45.59038" lon="6.60815">
        <ele>2205.76</ele>
        <time>2020-01-08T11:57:31.999Z</time>
      </trkpt>
      <trkpt lat="45.59029" lon="6.60817">
        <ele>2207.29</ele>
        <time>2020-01-08T11:57:47.999Z</time>
      </trkpt>
      <trkpt lat="45.59019" lon="6.60817">
        <ele>2208.87</ele>
        <time>2020-01-08T11:58:13.999Z</time>
      </trkpt>
      <trkpt lat="45.59023" lon="6.60828">
        <ele>2211.45</ele>
        <time>2020-01-08T11:59:06.999Z</time>
      </trkpt>
      <trkpt lat="45.59015" lon="6.60836">
        <ele>2212.42</ele>
        <time>2020-01-08T11:59:29.999Z</time>
      </trkpt>
      <trkpt lat="45.59006" lon="6.60838">
        <ele>2213.39</ele>
        <time>2020-01-08T11:59:54.999Z</time>
      </trkpt>
      <trkpt lat="45.59011" lon="6.6085">
        <ele>2216.87</ele>
        <time>2020-01-08T12:01:27.999Z</time>
      </trkpt>
      <trkpt lat="45.59016" lon="6.60862">
        <ele>2218.25</ele>
        <time>2020-01-08T12:01:42.999Z</time>
      </trkpt>
      <trkpt lat="45.5901" lon="6.60873">
        <ele>2219.42</ele>
        <time>2020-01-08T12:01:56.999Z</time>
      </trkpt>
      <trkpt lat="45.59001" lon="6.60878">
        <ele>2220.28</ele>
        <time>2020-01-08T12:02:04.999Z</time>
      </trkpt>
      <trkpt lat="45.58994" lon="6.60886">
        <ele>2224.6</ele>
        <time>2020-01-08T12:02:49.999Z</time>
      </trkpt>
      <trkpt lat="45.58986" lon="6.60893">
        <ele>2225.97</ele>
        <time>2020-01-08T12:03:00.999Z</time>
      </trkpt>
      <trkpt lat="45.58994" lon="6.60902">
        <ele>2229.14</ele>
        <time>2020-01-08T12:03:26.999Z</time>
      </trkpt>
      <trkpt lat="45.59003" lon="6.60901">
        <ele>2237.41</ele>
        <time>2020-01-08T12:04:33.999Z</time>
      </trkpt>
      <trkpt lat="45.59008" lon="6.60912">
        <ele>2238.86</ele>
        <time>2020-01-08T12:04:50.999Z</time>
      </trkpt>
      <trkpt lat="45.59011" lon="6.60924">
        <ele>2240.02</ele>
        <time>2020-01-08T12:05:03.999Z</time>
      </trkpt>
      <trkpt lat="45.5901" lon="6.60938">
        <ele>2242.32</ele>
        <time>2020-01-08T12:05:47.999Z</time>
      </trkpt>
      <trkpt lat="45.59006" lon="6.6095">
        <ele>2243.75</ele>
        <time>2020-01-08T12:06:01.999Z</time>
      </trkpt>
      <trkpt lat="45.58999" lon="6.6096">
        <ele>2245.01</ele>
        <time>2020-01-08T12:06:14.999Z</time>
      </trkpt>
      <trkpt lat="45.58993" lon="6.6097">
        <ele>2246.29</ele>
        <time>2020-01-08T12:06:28.999Z</time>
      </trkpt>
      <trkpt lat="45.5899" lon="6.60983">
        <ele>2247.27</ele>
        <time>2020-01-08T12:06:38.999Z</time>
      </trkpt>
      <trkpt lat="45.58987" lon="6.60999">
        <ele>2250.12</ele>
        <time>2020-01-08T12:07:09.999Z</time>
      </trkpt>
      <trkpt lat="45.58982" lon="6.61011">
        <ele>2250.8</ele>
        <time>2020-01-08T12:07:14.999Z</time>
      </trkpt>
      <trkpt lat="45.58979" lon="6.61024">
        <ele>2252.54</ele>
        <time>2020-01-08T12:07:27.999Z</time>
      </trkpt>
      <trkpt lat="45.58978" lon="6.61038">
        <ele>2253.41</ele>
        <time>2020-01-08T12:07:34.999Z</time>
      </trkpt>
      <trkpt lat="45.58978" lon="6.61051">
        <ele>2254.24</ele>
        <time>2020-01-08T12:07:41.999Z</time>
      </trkpt>
      <trkpt lat="45.58976" lon="6.61064">
        <ele>2255.21</ele>
        <time>2020-01-08T12:07:50.999Z</time>
      </trkpt>
      <trkpt lat="45.58974" lon="6.61077">
        <ele>2256.49</ele>
        <time>2020-01-08T12:08:04.999Z</time>
      </trkpt>
      <trkpt lat="45.58971" lon="6.61089">
        <ele>2257.69</ele>
        <time>2020-01-08T12:08:19.999Z</time>
      </trkpt>
      <trkpt lat="45.58962" lon="6.61095">
        <ele>2259.48</ele>
        <time>2020-01-08T12:08:54.999Z</time>
      </trkpt>
      <trkpt lat="45.58953" lon="6.61097">
        <ele>2260.5</ele>
        <time>2020-01-08T12:09:08.999Z</time>
      </trkpt>
      <trkpt lat="45.58944" lon="6.61101">
        <ele>2261.61</ele>
        <time>2020-01-08T12:09:23.999Z</time>
      </trkpt>
      <trkpt lat="45.58944" lon="6.61115">
        <ele>2263.7</ele>
        <time>2020-01-08T12:09:45.999Z</time>
      </trkpt>
      <trkpt lat="45.58942" lon="6.61127">
        <ele>2265.71</ele>
        <time>2020-01-08T12:10:03.999Z</time>
      </trkpt>
      <trkpt lat="45.58933" lon="6.61131">
        <ele>2267.75</ele>
        <time>2020-01-08T12:10:19.999Z</time>
      </trkpt>
      <trkpt lat="45.58924" lon="6.61135">
        <ele>2271.76</ele>
        <time>2020-01-08T12:10:58.999Z</time>
      </trkpt>
      <trkpt lat="45.58915" lon="6.61138">
        <ele>2273.64</ele>
        <time>2020-01-08T12:11:11.999Z</time>
      </trkpt>
      <trkpt lat="45.5891" lon="6.6115">
        <ele>2275.9</ele>
        <time>2020-01-08T12:11:25.999Z</time>
      </trkpt>
      <trkpt lat="45.58918" lon="6.61157">
        <ele>2280.51</ele>
        <time>2020-01-08T12:12:11.999Z</time>
      </trkpt>
      <trkpt lat="45.58925" lon="6.61165">
        <ele>2283.08</ele>
        <time>2020-01-08T12:12:27.999Z</time>
      </trkpt>
      <trkpt lat="45.58929" lon="6.61177">
        <ele>2285.36</ele>
        <time>2020-01-08T12:12:42.999Z</time>
      </trkpt>
      <trkpt lat="45.58933" lon="6.6119">
        <ele>2287.27</ele>
        <time>2020-01-08T12:12:52.999Z</time>
      </trkpt>
      <trkpt lat="45.5894" lon="6.61198">
        <ele>2290.67</ele>
        <time>2020-01-08T12:13:08.999Z</time>
      </trkpt>
      <trkpt lat="45.58949" lon="6.61199">
        <ele>2293.46</ele>
        <time>2020-01-08T12:13:28.999Z</time>
      </trkpt>
      <trkpt lat="45.58958" lon="6.61204">
        <ele>2297.61</ele>
        <time>2020-01-08T12:13:47.999Z</time>
      </trkpt>
      <trkpt lat="45.58968" lon="6.61203">
        <ele>2299.88</ele>
        <time>2020-01-08T12:13:57.999Z</time>
      </trkpt>
      <trkpt lat="45.58978" lon="6.61201">
        <ele>2312.74</ele>
        <time>2020-01-08T12:15:07.999Z</time>
      </trkpt>
      <trkpt lat="45.58987" lon="6.61205">
        <ele>2313.47</ele>
        <time>2020-01-08T12:15:20.999Z</time>
      </trkpt>
      <trkpt lat="45.58995" lon="6.61199">
        <ele>2315.06</ele>
        <time>2020-01-08T12:15:39.999Z</time>
      </trkpt>
      <trkpt lat="45.59005" lon="6.61199">
        <ele>2319.14</ele>
        <time>2020-01-08T12:16:09.999Z</time>
      </trkpt>
      <trkpt lat="45.59015" lon="6.61193">
        <ele>2323.69</ele>
        <time>2020-01-08T12:16:38.999Z</time>
      </trkpt>
      <trkpt lat="45.59023" lon="6.61189">
        <ele>2326.44</ele>
        <time>2020-01-08T12:16:55.999Z</time>
      </trkpt>
      <trkpt lat="45.59032" lon="6.612">
        <ele>2329.94</ele>
        <time>2020-01-08T12:17:23.999Z</time>
      </trkpt>
      <trkpt lat="45.59037" lon="6.61213">
        <ele>2331.42</ele>
        <time>2020-01-08T12:17:33.999Z</time>
      </trkpt>
      <trkpt lat="45.59035" lon="6.61225">
        <ele>2332.87</ele>
        <time>2020-01-08T12:17:45.999Z</time>
      </trkpt>
      <trkpt lat="45.59024" lon="6.6123">
        <ele>2335.05</ele>
        <time>2020-01-08T12:18:24.999Z</time>
      </trkpt>
      <trkpt lat="45.5902" lon="6.61242">
        <ele>2336.89</ele>
        <time>2020-01-08T12:18:47.999Z</time>
      </trkpt>
      <trkpt lat="45.59027" lon="6.6125">
        <ele>2340.43</ele>
        <time>2020-01-08T12:19:28.999Z</time>
      </trkpt>
      <trkpt lat="45.59036" lon="6.61257">
        <ele>2341.89</ele>
        <time>2020-01-08T12:19:42.999Z</time>
      </trkpt>
      <trkpt lat="45.59042" lon="6.61266">
        <ele>2344.76</ele>
        <time>2020-01-08T12:20:04.999Z</time>
      </trkpt>
      <trkpt lat="45.59052" lon="6.61273">
        <ele>2346.93</ele>
        <time>2020-01-08T12:20:22.999Z</time>
      </trkpt>
      <trkpt lat="45.59061" lon="6.61272">
        <ele>2350.34</ele>
        <time>2020-01-08T12:20:40.999Z</time>
      </trkpt>
      <trkpt lat="45.5906" lon="6.61285">
        <ele>2354.38</ele>
        <time>2020-01-08T12:21:04.999Z</time>
      </trkpt>
      <trkpt lat="45.59053" lon="6.61295">
        <ele>2356.47</ele>
        <time>2020-01-08T12:21:20.999Z</time>
      </trkpt>
      <trkpt lat="45.59048" lon="6.61306">
        <ele>2358.31</ele>
        <time>2020-01-08T12:21:41.999Z</time>
      </trkpt>
      <trkpt lat="45.59043" lon="6.61317">
        <ele>2359.6</ele>
        <time>2020-01-08T12:21:56.999Z</time>
      </trkpt>
      <trkpt lat="45.59038" lon="6.61329">
        <ele>2360.8</ele>
        <time>2020-01-08T12:22:13.999Z</time>
      </trkpt>
      <trkpt lat="45.59045" lon="6.61337">
        <ele>2364.39</ele>
        <time>2020-01-08T12:22:41.999Z</time>
      </trkpt>
      <trkpt lat="45.59055" lon="6.61338">
        <ele>2368.2</ele>
        <time>2020-01-08T12:23:01.999Z</time>
      </trkpt>
      <trkpt lat="45.59063" lon="6.61331">
        <ele>2370.83</ele>
        <time>2020-01-08T12:23:21.999Z</time>
      </trkpt>
      <trkpt lat="45.59072" lon="6.61337">
        <ele>2376.43</ele>
        <time>2020-01-08T12:23:56.999Z</time>
      </trkpt>
      <trkpt lat="45.59081" lon="6.61339">
        <ele>2381.04</ele>
        <time>2020-01-08T12:24:11.999Z</time>
      </trkpt>
      <trkpt lat="45.59091" lon="6.61338">
        <ele>2385.51</ele>
        <time>2020-01-08T12:24:49.999Z</time>
      </trkpt>
      <trkpt lat="45.59101" lon="6.61336">
        <ele>2389</ele>
        <time>2020-01-08T12:25:04.999Z</time>
      </trkpt>
      <trkpt lat="45.59109" lon="6.61332">
        <ele>2391.08</ele>
        <time>2020-01-08T12:25:15.999Z</time>
      </trkpt>
      <trkpt lat="45.59117" lon="6.61323">
        <ele>2393.46</ele>
        <time>2020-01-08T12:25:30.999Z</time>
      </trkpt>
      <trkpt lat="45.59125" lon="6.61316">
        <ele>2395.7</ele>
        <time>2020-01-08T12:25:52.999Z</time>
      </trkpt>
      <trkpt lat="45.59134" lon="6.61315">
        <ele>2397.29</ele>
        <time>2020-01-08T12:26:05.999Z</time>
      </trkpt>
      <trkpt lat="45.59143" lon="6.61316">
        <ele>2399.08</ele>
        <time>2020-01-08T12:26:21.999Z</time>
      </trkpt>
      <trkpt lat="45.59152" lon="6.61323">
        <ele>2401.42</ele>
        <time>2020-01-08T12:26:45.999Z</time>
      </trkpt>
      <trkpt lat="45.59161" lon="6.61319">
        <ele>2402.37</ele>
        <time>2020-01-08T12:26:55.999Z</time>
      </trkpt>
      <trkpt lat="45.5917" lon="6.6132">
        <ele>2403.61</ele>
        <time>2020-01-08T12:27:08.999Z</time>
      </trkpt>
      <trkpt lat="45.59179" lon="6.61317">
        <ele>2405.13</ele>
        <time>2020-01-08T12:27:23.999Z</time>
      </trkpt>
      <trkpt lat="45.59189" lon="6.61313">
        <ele>2406.78</ele>
        <time>2020-01-08T12:27:39.999Z</time>
      </trkpt>
      <trkpt lat="45.59196" lon="6.61305">
        <ele>2407.94</ele>
        <time>2020-01-08T12:27:52.999Z</time>
      </trkpt>
      <trkpt lat="45.59201" lon="6.61293">
        <ele>2409.13</ele>
        <time>2020-01-08T12:28:03.999Z</time>
      </trkpt>
      <trkpt lat="45.59205" lon="6.61281">
        <ele>2411.43</ele>
        <time>2020-01-08T12:28:27.999Z</time>
      </trkpt>
      <trkpt lat="45.59207" lon="6.61293">
        <ele>2414.05</ele>
        <time>2020-01-08T12:28:55.999Z</time>
      </trkpt>
      <trkpt lat="45.59211" lon="6.61306">
        <ele>2415.15</ele>
        <time>2020-01-08T12:29:08.999Z</time>
      </trkpt>
      <trkpt lat="45.59218" lon="6.61298">
        <ele>2416.97</ele>
        <time>2020-01-08T12:29:29.999Z</time>
      </trkpt>
      <trkpt lat="45.59226" lon="6.61292">
        <ele>2419.05</ele>
        <time>2020-01-08T12:29:51.999Z</time>
      </trkpt>
      <trkpt lat="45.59234" lon="6.61298">
        <ele>2421.87</ele>
        <time>2020-01-08T12:30:42.999Z</time>
      </trkpt>
      <trkpt lat="45.59235" lon="6.61312">
        <ele>2422.99</ele>
        <time>2020-01-08T12:30:54.999Z</time>
      </trkpt>
      <trkpt lat="45.59237" lon="6.61325">
        <ele>2424.08</ele>
        <time>2020-01-08T12:31:09.999Z</time>
      </trkpt>
      <trkpt lat="45.59244" lon="6.61318">
        <ele>2425.94</ele>
        <time>2020-01-08T12:31:36.999Z</time>
      </trkpt>
      <trkpt lat="45.59252" lon="6.61311">
        <ele>2430.44</ele>
        <time>2020-01-08T12:32:30.999Z</time>
      </trkpt>
      <trkpt lat="45.59252" lon="6.61324">
        <ele>2432.16</ele>
        <time>2020-01-08T12:32:41.999Z</time>
      </trkpt>
      <trkpt lat="45.59251" lon="6.61337">
        <ele>2433.79</ele>
        <time>2020-01-08T12:32:54.999Z</time>
      </trkpt>
      <trkpt lat="45.5926" lon="6.61338">
        <ele>2437.03</ele>
        <time>2020-01-08T12:33:22.999Z</time>
      </trkpt>
      <trkpt lat="45.59269" lon="6.6133">
        <ele>2439.84</ele>
        <time>2020-01-08T12:33:42.999Z</time>
      </trkpt>
      <trkpt lat="45.59272" lon="6.61343">
        <ele>2444.6</ele>
        <time>2020-01-08T12:34:28.999Z</time>
      </trkpt>
      <trkpt lat="45.59272" lon="6.61356">
        <ele>2446.86</ele>
        <time>2020-01-08T12:34:40.999Z</time>
      </trkpt>
      <trkpt lat="45.59273" lon="6.61369">
        <ele>2449.05</ele>
        <time>2020-01-08T12:34:54.999Z</time>
      </trkpt>
      <trkpt lat="45.59281" lon="6.61361">
        <ele>2453.84</ele>
        <time>2020-01-08T12:35:35.999Z</time>
      </trkpt>
      <trkpt lat="45.59283" lon="6.61375">
        <ele>2456.41</ele>
        <time>2020-01-08T12:35:51.999Z</time>
      </trkpt>
      <trkpt lat="45.59283" lon="6.61388">
        <ele>2458.82</ele>
        <time>2020-01-08T12:36:08.999Z</time>
      </trkpt>
      <trkpt lat="45.5929" lon="6.61379">
        <ele>2461.46</ele>
        <time>2020-01-08T12:36:40.999Z</time>
      </trkpt>
      <trkpt lat="45.59293" lon="6.61392">
        <ele>2464.29</ele>
        <time>2020-01-08T12:37:03.999Z</time>
      </trkpt>
      <trkpt lat="45.59291" lon="6.61405">
        <ele>2466.47</ele>
        <time>2020-01-08T12:37:21.999Z</time>
      </trkpt>
      <trkpt lat="45.59302" lon="6.61402">
        <ele>2470.55</ele>
        <time>2020-01-08T12:38:01.999Z</time>
      </trkpt>
      <trkpt lat="45.59307" lon="6.61413">
        <ele>2476.54</ele>
        <time>2020-01-08T12:38:40.999Z</time>
      </trkpt>
      <trkpt lat="45.59305" lon="6.61427">
        <ele>2478.17</ele>
        <time>2020-01-08T12:38:52.999Z</time>
      </trkpt>
      <trkpt lat="45.59302" lon="6.61439">
        <ele>2481.13</ele>
        <time>2020-01-08T12:39:30.999Z</time>
      </trkpt>
      <trkpt lat="45.59311" lon="6.61439">
        <ele>2484.69</ele>
        <time>2020-01-08T12:40:02.999Z</time>
      </trkpt>
      <trkpt lat="45.5932" lon="6.61434">
        <ele>2487.21</ele>
        <time>2020-01-08T12:40:23.999Z</time>
      </trkpt>
      <trkpt lat="45.59321" lon="6.61448">
        <ele>2488.61</ele>
        <time>2020-01-08T12:40:32.999Z</time>
      </trkpt>
      <trkpt lat="45.59321" lon="6.61461">
        <ele>2490.87</ele>
        <time>2020-01-08T12:40:52.999Z</time>
      </trkpt>
      <trkpt lat="45.59321" lon="6.61475">
        <ele>2492.61</ele>
        <time>2020-01-08T12:41:10.999Z</time>
      </trkpt>
      <trkpt lat="45.59322" lon="6.61489">
        <ele>2494.55</ele>
        <time>2020-01-08T12:41:31.999Z</time>
      </trkpt>
      <trkpt lat="45.59321" lon="6.61502">
        <ele>2497.15</ele>
        <time>2020-01-08T12:42:00.999Z</time>
      </trkpt>
      <trkpt lat="45.59329" lon="6.61495">
        <ele>2502.59</ele>
        <time>2020-01-08T12:42:44.999Z</time>
      </trkpt>
      <trkpt lat="45.59336" lon="6.61504">
        <ele>2505.54</ele>
        <time>2020-01-08T12:43:01.999Z</time>
      </trkpt>
      <trkpt lat="45.59345" lon="6.61502">
        <ele>2508.93</ele>
        <time>2020-01-08T12:43:17.999Z</time>
      </trkpt>
      <trkpt lat="45.59354" lon="6.61501">
        <ele>2513.02</ele>
        <time>2020-01-08T12:43:36.999Z</time>
      </trkpt>
      <trkpt lat="45.59363" lon="6.61501">
        <ele>2514.79</ele>
        <time>2020-01-08T12:43:44.999Z</time>
      </trkpt>
      <trkpt lat="45.59373" lon="6.61501">
        <ele>2516.87</ele>
        <time>2020-01-08T12:43:52.999Z</time>
      </trkpt>
      <trkpt lat="45.59382" lon="6.61499">
        <ele>2521.05</ele>
        <time>2020-01-08T12:44:07.999Z</time>
      </trkpt>
      <trkpt lat="45.59392" lon="6.61499">
        <ele>2524.3</ele>
        <time>2020-01-08T12:44:19.999Z</time>
      </trkpt>
      <trkpt lat="45.59401" lon="6.61502">
        <ele>2526.55</ele>
        <time>2020-01-08T12:44:28.999Z</time>
      </trkpt>
      <trkpt lat="45.5941" lon="6.61506">
        <ele>2529.97</ele>
        <time>2020-01-08T12:44:42.999Z</time>
      </trkpt>
      <trkpt lat="45.59419" lon="6.61508">
        <ele>2533.33</ele>
        <time>2020-01-08T12:44:57.999Z</time>
      </trkpt>
      <trkpt lat="45.59428" lon="6.61506">
        <ele>2535.89</ele>
        <time>2020-01-08T12:45:10.999Z</time>
      </trkpt>
      <trkpt lat="45.59438" lon="6.61507">
        <ele>2538.8</ele>
        <time>2020-01-08T12:45:26.999Z</time>
      </trkpt>
      <trkpt lat="45.59447" lon="6.61509">
        <ele>2541.89</ele>
        <time>2020-01-08T12:46:13.999Z</time>
      </trkpt>
      <trkpt lat="45.59434" lon="6.61507">
        <ele>2559.33</ele>
        <time>2020-01-08T12:57:48.999Z</time>
      </trkpt>
      <trkpt lat="45.59421" lon="6.61516">
        <ele>2559.9</ele>
        <time>2020-01-08T12:57:51.999Z</time>
      </trkpt>
      <trkpt lat="45.59409" lon="6.61516">
        <ele>2560.77</ele>
        <time>2020-01-08T12:57:53.999Z</time>
      </trkpt>
      <trkpt lat="45.59396" lon="6.61518">
        <ele>2561.37</ele>
        <time>2020-01-08T12:57:55.999Z</time>
      </trkpt>
      <trkpt lat="45.59382" lon="6.61517">
        <ele>2561.74</ele>
        <time>2020-01-08T12:57:57.999Z</time>
      </trkpt>
      <trkpt lat="45.59373" lon="6.61515">
        <ele>2561.96</ele>
        <time>2020-01-08T12:57:59.999Z</time>
      </trkpt>
      <trkpt lat="45.59363" lon="6.61516">
        <ele>2562.09</ele>
        <time>2020-01-08T12:58:01.999Z</time>
      </trkpt>
      <trkpt lat="45.59353" lon="6.61509">
        <ele>2562.16</ele>
        <time>2020-01-08T12:58:03.999Z</time>
      </trkpt>
      <trkpt lat="45.59344" lon="6.61511">
        <ele>2562.19</ele>
        <time>2020-01-08T12:58:06.999Z</time>
      </trkpt>
      <trkpt lat="45.59336" lon="6.61519">
        <ele>2562.23</ele>
        <time>2020-01-08T12:58:08.999Z</time>
      </trkpt>
      <trkpt lat="45.59327" lon="6.61522">
        <ele>2562.23</ele>
        <time>2020-01-08T12:58:12.999Z</time>
      </trkpt>
      <trkpt lat="45.59316" lon="6.61525">
        <ele>2562.24</ele>
        <time>2020-01-08T12:58:21.999Z</time>
      </trkpt>
      <trkpt lat="45.59307" lon="6.61521">
        <ele>2562.18</ele>
        <time>2020-01-08T12:58:25.999Z</time>
      </trkpt>
      <trkpt lat="45.59297" lon="6.61522">
        <ele>2562.17</ele>
        <time>2020-01-08T12:58:30.999Z</time>
      </trkpt>
      <trkpt lat="45.59289" lon="6.61515">
        <ele>2562.15</ele>
        <time>2020-01-08T12:58:33.999Z</time>
      </trkpt>
      <trkpt lat="45.59279" lon="6.61516">
        <ele>2562.05</ele>
        <time>2020-01-08T12:58:36.999Z</time>
      </trkpt>
      <trkpt lat="45.59269" lon="6.61518">
        <ele>2561.94</ele>
        <time>2020-01-08T12:58:40.999Z</time>
      </trkpt>
      <trkpt lat="45.59258" lon="6.61519">
        <ele>2561.8</ele>
        <time>2020-01-08T12:58:42.999Z</time>
      </trkpt>
      <trkpt lat="45.59248" lon="6.61518">
        <ele>2561.73</ele>
        <time>2020-01-08T12:58:46.999Z</time>
      </trkpt>
      <trkpt lat="45.59237" lon="6.61516">
        <ele>2561.54</ele>
        <time>2020-01-08T12:58:50.999Z</time>
      </trkpt>
      <trkpt lat="45.5923" lon="6.61525">
        <ele>2561.43</ele>
        <time>2020-01-08T12:58:53.999Z</time>
      </trkpt>
      <trkpt lat="45.5922" lon="6.61527">
        <ele>2561.37</ele>
        <time>2020-01-08T12:58:56.999Z</time>
      </trkpt>
      <trkpt lat="45.59208" lon="6.61526">
        <ele>2561.02</ele>
        <time>2020-01-08T12:59:20.999Z</time>
      </trkpt>
      <trkpt lat="45.59197" lon="6.61527">
        <ele>2560.65</ele>
        <time>2020-01-08T12:59:26.999Z</time>
      </trkpt>
      <trkpt lat="45.59189" lon="6.61537">
        <ele>2559.41</ele>
        <time>2020-01-08T12:59:32.999Z</time>
      </trkpt>
      <trkpt lat="45.59181" lon="6.61532">
        <ele>2558.98</ele>
        <time>2020-01-08T12:59:37.999Z</time>
      </trkpt>
      <trkpt lat="45.5917" lon="6.61533">
        <ele>2558.39</ele>
        <time>2020-01-08T12:59:45.999Z</time>
      </trkpt>
      <trkpt lat="45.59161" lon="6.61529">
        <ele>2557.98</ele>
        <time>2020-01-08T12:59:49.999Z</time>
      </trkpt>
      <trkpt lat="45.59151" lon="6.61529">
        <ele>2557.4</ele>
        <time>2020-01-08T12:59:54.999Z</time>
      </trkpt>
      <trkpt lat="45.59137" lon="6.61527">
        <ele>2554.39</ele>
        <time>2020-01-08T12:59:57.999Z</time>
      </trkpt>
      <trkpt lat="45.59124" lon="6.61529">
        <ele>2552.83</ele>
        <time>2020-01-08T12:59:59.999Z</time>
      </trkpt>
      <trkpt lat="45.59112" lon="6.61531">
        <ele>2551.55</ele>
        <time>2020-01-08T13:00:01.999Z</time>
      </trkpt>
      <trkpt lat="45.59102" lon="6.61536">
        <ele>2550.69</ele>
        <time>2020-01-08T13:00:04.999Z</time>
      </trkpt>
      <trkpt lat="45.59091" lon="6.61539">
        <ele>2550.3</ele>
        <time>2020-01-08T13:00:07.999Z</time>
      </trkpt>
      <trkpt lat="45.5908" lon="6.61541">
        <ele>2549.56</ele>
        <time>2020-01-08T13:00:10.999Z</time>
      </trkpt>
      <trkpt lat="45.59069" lon="6.61544">
        <ele>2548.13</ele>
        <time>2020-01-08T13:00:12.999Z</time>
      </trkpt>
      <trkpt lat="45.59054" lon="6.61549">
        <ele>2546.57</ele>
        <time>2020-01-08T13:00:14.999Z</time>
      </trkpt>
      <trkpt lat="45.59042" lon="6.61552">
        <ele>2545.53</ele>
        <time>2020-01-08T13:00:16.999Z</time>
      </trkpt>
      <trkpt lat="45.59035" lon="6.61562">
        <ele>2537.74</ele>
        <time>2020-01-08T13:01:06.999Z</time>
      </trkpt>
      <trkpt lat="45.59027" lon="6.61569">
        <ele>2533.93</ele>
        <time>2020-01-08T13:01:15.999Z</time>
      </trkpt>
      <trkpt lat="45.59018" lon="6.6157">
        <ele>2529.35</ele>
        <time>2020-01-08T13:01:28.999Z</time>
      </trkpt>
      <trkpt lat="45.59008" lon="6.6157">
        <ele>2525.41</ele>
        <time>2020-01-08T13:01:42.999Z</time>
      </trkpt>
      <trkpt lat="45.58999" lon="6.61573">
        <ele>2522.12</ele>
        <time>2020-01-08T13:01:57.999Z</time>
      </trkpt>
      <trkpt lat="45.58991" lon="6.61578">
        <ele>2519.63</ele>
        <time>2020-01-08T13:02:12.999Z</time>
      </trkpt>
      <trkpt lat="45.58982" lon="6.6158">
        <ele>2517.89</ele>
        <time>2020-01-08T13:02:26.999Z</time>
      </trkpt>
      <trkpt lat="45.58973" lon="6.61585">
        <ele>2515.51</ele>
        <time>2020-01-08T13:03:19.999Z</time>
      </trkpt>
      <trkpt lat="45.58964" lon="6.61587">
        <ele>2514.52</ele>
        <time>2020-01-08T13:03:32.999Z</time>
      </trkpt>
      <trkpt lat="45.58955" lon="6.61593">
        <ele>2513.63</ele>
        <time>2020-01-08T13:03:47.999Z</time>
      </trkpt>
      <trkpt lat="45.58946" lon="6.61594">
        <ele>2512.69</ele>
        <time>2020-01-08T13:04:07.999Z</time>
      </trkpt>
      <trkpt lat="45.58936" lon="6.61599">
        <ele>2511.22</ele>
        <time>2020-01-08T13:06:15.999Z</time>
      </trkpt>
      <trkpt lat="45.58926" lon="6.61602">
        <ele>2511.07</ele>
        <time>2020-01-08T13:06:19.999Z</time>
      </trkpt>
      <trkpt lat="45.58916" lon="6.61601">
        <ele>2510.77</ele>
        <time>2020-01-08T13:06:29.999Z</time>
      </trkpt>
      <trkpt lat="45.5891" lon="6.6161">
        <ele>2510.55</ele>
        <time>2020-01-08T13:06:35.999Z</time>
      </trkpt>
      <trkpt lat="45.58909" lon="6.61625">
        <ele>2509.68</ele>
        <time>2020-01-08T13:06:38.999Z</time>
      </trkpt>
      <trkpt lat="45.58911" lon="6.61641">
        <ele>2509.32</ele>
        <time>2020-01-08T13:06:41.999Z</time>
      </trkpt>
      <trkpt lat="45.58901" lon="6.6164">
        <ele>2509.17</ele>
        <time>2020-01-08T13:06:47.999Z</time>
      </trkpt>
      <trkpt lat="45.58892" lon="6.61649">
        <ele>2508.87</ele>
        <time>2020-01-08T13:06:51.999Z</time>
      </trkpt>
      <trkpt lat="45.58893" lon="6.61667">
        <ele>2508.41</ele>
        <time>2020-01-08T13:06:53.999Z</time>
      </trkpt>
      <trkpt lat="45.58895" lon="6.61685">
        <ele>2507.97</ele>
        <time>2020-01-08T13:06:55.999Z</time>
      </trkpt>
      <trkpt lat="45.58896" lon="6.617">
        <ele>2507.54</ele>
        <time>2020-01-08T13:06:57.999Z</time>
      </trkpt>
      <trkpt lat="45.58895" lon="6.61717">
        <ele>2506.82</ele>
        <time>2020-01-08T13:07:00.999Z</time>
      </trkpt>
      <trkpt lat="45.58893" lon="6.61732">
        <ele>2506.36</ele>
        <time>2020-01-08T13:07:02.999Z</time>
      </trkpt>
      <trkpt lat="45.58891" lon="6.61745">
        <ele>2505.87</ele>
        <time>2020-01-08T13:07:04.999Z</time>
      </trkpt>
      <trkpt lat="45.58887" lon="6.61757">
        <ele>2505.68</ele>
        <time>2020-01-08T13:07:07.999Z</time>
      </trkpt>
      <trkpt lat="45.58883" lon="6.61744">
        <ele>2505.45</ele>
        <time>2020-01-08T13:07:10.999Z</time>
      </trkpt>
      <trkpt lat="45.5887" lon="6.61747">
        <ele>2502.8</ele>
        <time>2020-01-08T13:07:15.999Z</time>
      </trkpt>
      <trkpt lat="45.58859" lon="6.61759">
        <ele>2501.4</ele>
        <time>2020-01-08T13:07:17.999Z</time>
      </trkpt>
      <trkpt lat="45.58851" lon="6.61768">
        <ele>2500.28</ele>
        <time>2020-01-08T13:07:19.999Z</time>
      </trkpt>
      <trkpt lat="45.58843" lon="6.61778">
        <ele>2499.3</ele>
        <time>2020-01-08T13:07:21.999Z</time>
      </trkpt>
      <trkpt lat="45.58835" lon="6.61788">
        <ele>2498.34</ele>
        <time>2020-01-08T13:07:23.999Z</time>
      </trkpt>
      <trkpt lat="45.58828" lon="6.618">
        <ele>2497.47</ele>
        <time>2020-01-08T13:07:25.999Z</time>
      </trkpt>
      <trkpt lat="45.58823" lon="6.61811">
        <ele>2497.24</ele>
        <time>2020-01-08T13:07:27.999Z</time>
      </trkpt>
      <trkpt lat="45.5882" lon="6.61823">
        <ele>2496.98</ele>
        <time>2020-01-08T13:07:31.999Z</time>
      </trkpt>
      <trkpt lat="45.58814" lon="6.61811">
        <ele>2496.56</ele>
        <time>2020-01-08T13:07:36.999Z</time>
      </trkpt>
      <trkpt lat="45.58807" lon="6.61823">
        <ele>2496.27</ele>
        <time>2020-01-08T13:07:39.999Z</time>
      </trkpt>
      <trkpt lat="45.58808" lon="6.61837">
        <ele>2495.95</ele>
        <time>2020-01-08T13:07:42.999Z</time>
      </trkpt>
      <trkpt lat="45.58799" lon="6.61826">
        <ele>2493.46</ele>
        <time>2020-01-08T13:07:46.999Z</time>
      </trkpt>
      <trkpt lat="45.58791" lon="6.61836">
        <ele>2490.79</ele>
        <time>2020-01-08T13:07:51.999Z</time>
      </trkpt>
      <trkpt lat="45.58792" lon="6.61852">
        <ele>2487.17</ele>
        <time>2020-01-08T13:07:54.999Z</time>
      </trkpt>
      <trkpt lat="45.58795" lon="6.61867">
        <ele>2486.61</ele>
        <time>2020-01-08T13:07:57.999Z</time>
      </trkpt>
      <trkpt lat="45.58798" lon="6.6188">
        <ele>2485.35</ele>
        <time>2020-01-08T13:08:08.999Z</time>
      </trkpt>
      <trkpt lat="45.58789" lon="6.61888">
        <ele>2483</ele>
        <time>2020-01-08T13:08:34.999Z</time>
      </trkpt>
      <trkpt lat="45.58785" lon="6.61901">
        <ele>2482.2</ele>
        <time>2020-01-08T13:08:38.999Z</time>
      </trkpt>
      <trkpt lat="45.58778" lon="6.61888">
        <ele>2481.35</ele>
        <time>2020-01-08T13:08:42.999Z</time>
      </trkpt>
      <trkpt lat="45.58768" lon="6.61894">
        <ele>2477.24</ele>
        <time>2020-01-08T13:08:46.999Z</time>
      </trkpt>
      <trkpt lat="45.58769" lon="6.61907">
        <ele>2474.69</ele>
        <time>2020-01-08T13:08:48.999Z</time>
      </trkpt>
      <trkpt lat="45.58772" lon="6.61922">
        <ele>2473.85</ele>
        <time>2020-01-08T13:08:51.999Z</time>
      </trkpt>
      <trkpt lat="45.58773" lon="6.61935">
        <ele>2473.47</ele>
        <time>2020-01-08T13:08:54.999Z</time>
      </trkpt>
      <trkpt lat="45.58766" lon="6.61945">
        <ele>2470.77</ele>
        <time>2020-01-08T13:09:23.999Z</time>
      </trkpt>
      <trkpt lat="45.5876" lon="6.61931">
        <ele>2467.57</ele>
        <time>2020-01-08T13:09:25.999Z</time>
      </trkpt>
      <trkpt lat="45.58756" lon="6.61918">
        <ele>2465.3</ele>
        <time>2020-01-08T13:09:27.999Z</time>
      </trkpt>
      <trkpt lat="45.58749" lon="6.61929">
        <ele>2462.09</ele>
        <time>2020-01-08T13:09:32.999Z</time>
      </trkpt>
      <trkpt lat="45.5875" lon="6.61945">
        <ele>2461.56</ele>
        <time>2020-01-08T13:09:35.999Z</time>
      </trkpt>
      <trkpt lat="45.58739" lon="6.6194">
        <ele>2459.21</ele>
        <time>2020-01-08T13:09:41.999Z</time>
      </trkpt>
      <trkpt lat="45.58732" lon="6.6195">
        <ele>2457.54</ele>
        <time>2020-01-08T13:09:44.999Z</time>
      </trkpt>
      <trkpt lat="45.5873" lon="6.61967">
        <ele>2454.39</ele>
        <time>2020-01-08T13:09:46.999Z</time>
      </trkpt>
      <trkpt lat="45.5873" lon="6.6198">
        <ele>2452.23</ele>
        <time>2020-01-08T13:09:48.999Z</time>
      </trkpt>
      <trkpt lat="45.58722" lon="6.61989">
        <ele>2451.51</ele>
        <time>2020-01-08T13:09:51.999Z</time>
      </trkpt>
      <trkpt lat="45.58713" lon="6.61984">
        <ele>2448.86</ele>
        <time>2020-01-08T13:09:54.999Z</time>
      </trkpt>
      <trkpt lat="45.5871" lon="6.62">
        <ele>2445.06</ele>
        <time>2020-01-08T13:09:57.999Z</time>
      </trkpt>
      <trkpt lat="45.587" lon="6.62003">
        <ele>2440.77</ele>
        <time>2020-01-08T13:10:02.999Z</time>
      </trkpt>
      <trkpt lat="45.58695" lon="6.62016">
        <ele>2435.2</ele>
        <time>2020-01-08T13:10:05.999Z</time>
      </trkpt>
      <trkpt lat="45.58685" lon="6.62008">
        <ele>2433.69</ele>
        <time>2020-01-08T13:10:09.999Z</time>
      </trkpt>
      <trkpt lat="45.5868" lon="6.62019">
        <ele>2432.11</ele>
        <time>2020-01-08T13:10:13.999Z</time>
      </trkpt>
      <trkpt lat="45.58668" lon="6.6202">
        <ele>2429.64</ele>
        <time>2020-01-08T13:10:18.999Z</time>
      </trkpt>
      <trkpt lat="45.58662" lon="6.6203">
        <ele>2427.44</ele>
        <time>2020-01-08T13:10:22.999Z</time>
      </trkpt>
      <trkpt lat="45.58651" lon="6.62021">
        <ele>2420.17</ele>
        <time>2020-01-08T13:10:25.999Z</time>
      </trkpt>
      <trkpt lat="45.58649" lon="6.62039">
        <ele>2413.23</ele>
        <time>2020-01-08T13:10:29.999Z</time>
      </trkpt>
      <trkpt lat="45.58648" lon="6.62052">
        <ele>2403.27</ele>
        <time>2020-01-08T13:10:31.999Z</time>
      </trkpt>
      <trkpt lat="45.58638" lon="6.62061">
        <ele>2393.72</ele>
        <time>2020-01-08T13:10:35.999Z</time>
      </trkpt>
      <trkpt lat="45.58632" lon="6.6207">
        <ele>2387.84</ele>
        <time>2020-01-08T13:10:37.999Z</time>
      </trkpt>
      <trkpt lat="45.58624" lon="6.6208">
        <ele>2384.46</ele>
        <time>2020-01-08T13:10:39.999Z</time>
      </trkpt>
      <trkpt lat="45.5862" lon="6.62068">
        <ele>2377.14</ele>
        <time>2020-01-08T13:10:44.999Z</time>
      </trkpt>
      <trkpt lat="45.58613" lon="6.62056">
        <ele>2374.33</ele>
        <time>2020-01-08T13:10:48.999Z</time>
      </trkpt>
      <trkpt lat="45.58606" lon="6.62067">
        <ele>2370.49</ele>
        <time>2020-01-08T13:10:50.999Z</time>
      </trkpt>
      <trkpt lat="45.58599" lon="6.62079">
        <ele>2367.32</ele>
        <time>2020-01-08T13:10:52.999Z</time>
      </trkpt>
      <trkpt lat="45.58588" lon="6.6209">
        <ele>2363.47</ele>
        <time>2020-01-08T13:10:54.999Z</time>
      </trkpt>
      <trkpt lat="45.58575" lon="6.62107">
        <ele>2358.32</ele>
        <time>2020-01-08T13:10:56.999Z</time>
      </trkpt>
      <trkpt lat="45.58565" lon="6.62123">
        <ele>2350.89</ele>
        <time>2020-01-08T13:10:58.999Z</time>
      </trkpt>
      <trkpt lat="45.58557" lon="6.62135">
        <ele>2343.1</ele>
        <time>2020-01-08T13:11:00.999Z</time>
      </trkpt>
      <trkpt lat="45.5855" lon="6.62144">
        <ele>2336.22</ele>
        <time>2020-01-08T13:11:02.999Z</time>
      </trkpt>
      <trkpt lat="45.5854" lon="6.62136">
        <ele>2330.02</ele>
        <time>2020-01-08T13:11:10.999Z</time>
      </trkpt>
      <trkpt lat="45.58528" lon="6.62144">
        <ele>2324.21</ele>
        <time>2020-01-08T13:11:12.999Z</time>
      </trkpt>
      <trkpt lat="45.58519" lon="6.62147">
        <ele>2321.68</ele>
        <time>2020-01-08T13:11:13.999Z</time>
      </trkpt>
      <trkpt lat="45.58506" lon="6.62158">
        <ele>2317.46</ele>
        <time>2020-01-08T13:11:15.999Z</time>
      </trkpt>
      <trkpt lat="45.58495" lon="6.62168">
        <ele>2314.16</ele>
        <time>2020-01-08T13:11:17.999Z</time>
      </trkpt>
      <trkpt lat="45.58487" lon="6.62175">
        <ele>2313.14</ele>
        <time>2020-01-08T13:11:20.999Z</time>
      </trkpt>
      <trkpt lat="45.58476" lon="6.6217">
        <ele>2311.14</ele>
        <time>2020-01-08T13:11:23.999Z</time>
      </trkpt>
      <trkpt lat="45.58466" lon="6.6218">
        <ele>2309.28</ele>
        <time>2020-01-08T13:11:26.999Z</time>
      </trkpt>
      <trkpt lat="45.58456" lon="6.62187">
        <ele>2306.59</ele>
        <time>2020-01-08T13:11:29.999Z</time>
      </trkpt>
      <trkpt lat="45.58454" lon="6.62171">
        <ele>2302.95</ele>
        <time>2020-01-08T13:11:32.999Z</time>
      </trkpt>
      <trkpt lat="45.58458" lon="6.62157">
        <ele>2300.58</ele>
        <time>2020-01-08T13:11:34.999Z</time>
      </trkpt>
      <trkpt lat="45.58463" lon="6.62145">
        <ele>2299.65</ele>
        <time>2020-01-08T13:11:38.999Z</time>
      </trkpt>
      <trkpt lat="45.58459" lon="6.6213">
        <ele>2298.68</ele>
        <time>2020-01-08T13:11:42.999Z</time>
      </trkpt>
      <trkpt lat="45.58452" lon="6.62122">
        <ele>2297.89</ele>
        <time>2020-01-08T13:11:45.999Z</time>
      </trkpt>
      <trkpt lat="45.58449" lon="6.62135">
        <ele>2296.87</ele>
        <time>2020-01-08T13:11:49.999Z</time>
      </trkpt>
      <trkpt lat="45.58438" lon="6.62139">
        <ele>2292.95</ele>
        <time>2020-01-08T13:11:52.999Z</time>
      </trkpt>
      <trkpt lat="45.58429" lon="6.6214">
        <ele>2291.19</ele>
        <time>2020-01-08T13:11:53.999Z</time>
      </trkpt>
      <trkpt lat="45.58416" lon="6.62148">
        <ele>2289.09</ele>
        <time>2020-01-08T13:11:55.999Z</time>
      </trkpt>
      <trkpt lat="45.58406" lon="6.62157">
        <ele>2288.25</ele>
        <time>2020-01-08T13:11:59.999Z</time>
      </trkpt>
      <trkpt lat="45.58401" lon="6.62169">
        <ele>2284.13</ele>
        <time>2020-01-08T13:12:48.999Z</time>
      </trkpt>
      <trkpt lat="45.58396" lon="6.62186">
        <ele>2281.21</ele>
        <time>2020-01-08T13:12:53.999Z</time>
      </trkpt>
      <trkpt lat="45.58388" lon="6.622">
        <ele>2278.44</ele>
        <time>2020-01-08T13:12:57.999Z</time>
      </trkpt>
      <trkpt lat="45.58381" lon="6.62214">
        <ele>2275.47</ele>
        <time>2020-01-08T13:12:59.999Z</time>
      </trkpt>
      <trkpt lat="45.58376" lon="6.62228">
        <ele>2273.24</ele>
        <time>2020-01-08T13:13:01.999Z</time>
      </trkpt>
      <trkpt lat="45.58371" lon="6.62239">
        <ele>2271.62</ele>
        <time>2020-01-08T13:13:03.999Z</time>
      </trkpt>
      <trkpt lat="45.58364" lon="6.62254">
        <ele>2270.23</ele>
        <time>2020-01-08T13:13:06.999Z</time>
      </trkpt>
      <trkpt lat="45.58355" lon="6.62268">
        <ele>2268.68</ele>
        <time>2020-01-08T13:13:09.999Z</time>
      </trkpt>
      <trkpt lat="45.58349" lon="6.62278">
        <ele>2268.01</ele>
        <time>2020-01-08T13:13:12.999Z</time>
      </trkpt>
      <trkpt lat="45.58343" lon="6.62291">
        <ele>2267.8</ele>
        <time>2020-01-08T13:13:16.999Z</time>
      </trkpt>
      <trkpt lat="45.58338" lon="6.62304">
        <ele>2267.63</ele>
        <time>2020-01-08T13:13:19.999Z</time>
      </trkpt>
      <trkpt lat="45.58334" lon="6.6232">
        <ele>2266.44</ele>
        <time>2020-01-08T13:13:22.999Z</time>
      </trkpt>
      <trkpt lat="45.5833" lon="6.62306">
        <ele>2265.74</ele>
        <time>2020-01-08T13:13:27.999Z</time>
      </trkpt>
      <trkpt lat="45.58333" lon="6.62293">
        <ele>2265.61</ele>
        <time>2020-01-08T13:13:30.999Z</time>
      </trkpt>
      <trkpt lat="45.58324" lon="6.62297">
        <ele>2264.54</ele>
        <time>2020-01-08T13:13:35.999Z</time>
      </trkpt>
      <trkpt lat="45.5832" lon="6.62309">
        <ele>2264.28</ele>
        <time>2020-01-08T13:13:37.999Z</time>
      </trkpt>
      <trkpt lat="45.58316" lon="6.6232">
        <ele>2263.74</ele>
        <time>2020-01-08T13:13:41.999Z</time>
      </trkpt>
      <trkpt lat="45.58311" lon="6.62332">
        <ele>2263.46</ele>
        <time>2020-01-08T13:13:44.999Z</time>
      </trkpt>
      <trkpt lat="45.58306" lon="6.62346">
        <ele>2263.29</ele>
        <time>2020-01-08T13:13:47.999Z</time>
      </trkpt>
      <trkpt lat="45.58301" lon="6.6236">
        <ele>2262.4</ele>
        <time>2020-01-08T13:13:50.999Z</time>
      </trkpt>
      <trkpt lat="45.58294" lon="6.62377">
        <ele>2261.11</ele>
        <time>2020-01-08T13:13:53.999Z</time>
      </trkpt>
      <trkpt lat="45.58287" lon="6.6239">
        <ele>2259.88</ele>
        <time>2020-01-08T13:13:55.999Z</time>
      </trkpt>
      <trkpt lat="45.58282" lon="6.62402">
        <ele>2257.45</ele>
        <time>2020-01-08T13:14:09.999Z</time>
      </trkpt>
      <trkpt lat="45.58274" lon="6.62414">
        <ele>2250.55</ele>
        <time>2020-01-08T13:14:12.999Z</time>
      </trkpt>
      <trkpt lat="45.5827" lon="6.62429">
        <ele>2249.04</ele>
        <time>2020-01-08T13:14:15.999Z</time>
      </trkpt>
      <trkpt lat="45.58265" lon="6.62442">
        <ele>2245.94</ele>
        <time>2020-01-08T13:14:44.999Z</time>
      </trkpt>
      <trkpt lat="45.58256" lon="6.62435">
        <ele>2242.38</ele>
        <time>2020-01-08T13:14:52.999Z</time>
      </trkpt>
      <trkpt lat="45.58251" lon="6.62447">
        <ele>2241.67</ele>
        <time>2020-01-08T13:14:55.999Z</time>
      </trkpt>
      <trkpt lat="45.58245" lon="6.6246">
        <ele>2240.28</ele>
        <time>2020-01-08T13:15:15.999Z</time>
      </trkpt>
      <trkpt lat="45.5824" lon="6.62474">
        <ele>2239.81</ele>
        <time>2020-01-08T13:15:18.999Z</time>
      </trkpt>
      <trkpt lat="45.58237" lon="6.62486">
        <ele>2239.19</ele>
        <time>2020-01-08T13:15:22.999Z</time>
      </trkpt>
      <trkpt lat="45.58229" lon="6.62496">
        <ele>2236.65</ele>
        <time>2020-01-08T13:15:30.999Z</time>
      </trkpt>
      <trkpt lat="45.58224" lon="6.6251">
        <ele>2234.55</ele>
        <time>2020-01-08T13:15:33.999Z</time>
      </trkpt>
      <trkpt lat="45.58221" lon="6.6253">
        <ele>2231.92</ele>
        <time>2020-01-08T13:15:36.999Z</time>
      </trkpt>
      <trkpt lat="45.58221" lon="6.62544">
        <ele>2228.4</ele>
        <time>2020-01-08T13:15:38.999Z</time>
      </trkpt>
      <trkpt lat="45.58219" lon="6.62559">
        <ele>2224.68</ele>
        <time>2020-01-08T13:15:40.999Z</time>
      </trkpt>
      <trkpt lat="45.58217" lon="6.62573">
        <ele>2221.97</ele>
        <time>2020-01-08T13:15:42.999Z</time>
      </trkpt>
      <trkpt lat="45.58215" lon="6.62587">
        <ele>2221.2</ele>
        <time>2020-01-08T13:15:45.999Z</time>
      </trkpt>
      <trkpt lat="45.58211" lon="6.62601">
        <ele>2220.25</ele>
        <time>2020-01-08T13:15:48.999Z</time>
      </trkpt>
      <trkpt lat="45.58208" lon="6.62615">
        <ele>2218.98</ele>
        <time>2020-01-08T13:15:51.999Z</time>
      </trkpt>
      <trkpt lat="45.58206" lon="6.62628">
        <ele>2218.56</ele>
        <time>2020-01-08T13:15:54.999Z</time>
      </trkpt>
      <trkpt lat="45.58201" lon="6.62645">
        <ele>2216.67</ele>
        <time>2020-01-08T13:16:00.999Z</time>
      </trkpt>
      <trkpt lat="45.58197" lon="6.62661">
        <ele>2215.05</ele>
        <time>2020-01-08T13:16:02.999Z</time>
      </trkpt>
      <trkpt lat="45.58193" lon="6.62679">
        <ele>2213.55</ele>
        <time>2020-01-08T13:16:04.999Z</time>
      </trkpt>
      <trkpt lat="45.58189" lon="6.62691">
        <ele>2212.28</ele>
        <time>2020-01-08T13:16:06.999Z</time>
      </trkpt>
      <trkpt lat="45.58184" lon="6.62704">
        <ele>2211.05</ele>
        <time>2020-01-08T13:16:08.999Z</time>
      </trkpt>
      <trkpt lat="45.5818" lon="6.62719">
        <ele>2209.51</ele>
        <time>2020-01-08T13:16:11.999Z</time>
      </trkpt>
      <trkpt lat="45.58175" lon="6.62732">
        <ele>2205.05</ele>
        <time>2020-01-08T13:16:14.999Z</time>
      </trkpt>
      <trkpt lat="45.58173" lon="6.6275">
        <ele>2197.93</ele>
        <time>2020-01-08T13:16:17.999Z</time>
      </trkpt>
      <trkpt lat="45.58171" lon="6.62768">
        <ele>2192.51</ele>
        <time>2020-01-08T13:16:19.999Z</time>
      </trkpt>
      <trkpt lat="45.58168" lon="6.62785">
        <ele>2187.41</ele>
        <time>2020-01-08T13:16:21.999Z</time>
      </trkpt>
      <trkpt lat="45.58166" lon="6.62797">
        <ele>2183.03</ele>
        <time>2020-01-08T13:16:23.999Z</time>
      </trkpt>
      <trkpt lat="45.58162" lon="6.6281">
        <ele>2179.38</ele>
        <time>2020-01-08T13:16:25.999Z</time>
      </trkpt>
      <trkpt lat="45.58159" lon="6.62825">
        <ele>2176.4</ele>
        <time>2020-01-08T13:16:27.999Z</time>
      </trkpt>
      <trkpt lat="45.58158" lon="6.6284">
        <ele>2174.13</ele>
        <time>2020-01-08T13:16:29.999Z</time>
      </trkpt>
      <trkpt lat="45.58157" lon="6.62852">
        <ele>2172.29</ele>
        <time>2020-01-08T13:16:31.999Z</time>
      </trkpt>
      <trkpt lat="45.58149" lon="6.62859">
        <ele>2169.69</ele>
        <time>2020-01-08T13:16:40.999Z</time>
      </trkpt>
      <trkpt lat="45.58146" lon="6.62872">
        <ele>2168.15</ele>
        <time>2020-01-08T13:16:42.999Z</time>
      </trkpt>
      <trkpt lat="45.58144" lon="6.62888">
        <ele>2166.7</ele>
        <time>2020-01-08T13:16:44.999Z</time>
      </trkpt>
      <trkpt lat="45.58146" lon="6.62904">
        <ele>2166.18</ele>
        <time>2020-01-08T13:16:47.999Z</time>
      </trkpt>
      <trkpt lat="45.58148" lon="6.62921">
        <ele>2165.69</ele>
        <time>2020-01-08T13:16:51.999Z</time>
      </trkpt>
      <trkpt lat="45.5815" lon="6.62935">
        <ele>2162.29</ele>
        <time>2020-01-08T13:17:15.999Z</time>
      </trkpt>
      <trkpt lat="45.58154" lon="6.62947">
        <ele>2160.7</ele>
        <time>2020-01-08T13:17:18.999Z</time>
      </trkpt>
      <trkpt lat="45.58146" lon="6.62956">
        <ele>2159.74</ele>
        <time>2020-01-08T13:17:20.999Z</time>
      </trkpt>
      <trkpt lat="45.58152" lon="6.62972">
        <ele>2157.79</ele>
        <time>2020-01-08T13:17:23.999Z</time>
      </trkpt>
      <trkpt lat="45.5816" lon="6.62988">
        <ele>2156.66</ele>
        <time>2020-01-08T13:17:25.999Z</time>
      </trkpt>
      <trkpt lat="45.58169" lon="6.63002">
        <ele>2154.88</ele>
        <time>2020-01-08T13:17:27.999Z</time>
      </trkpt>
      <trkpt lat="45.58177" lon="6.63013">
        <ele>2153.26</ele>
        <time>2020-01-08T13:17:29.999Z</time>
      </trkpt>
      <trkpt lat="45.58165" lon="6.63016">
        <ele>2149.46</ele>
        <time>2020-01-08T13:17:34.999Z</time>
      </trkpt>
      <trkpt lat="45.58155" lon="6.63009">
        <ele>2143.47</ele>
        <time>2020-01-08T13:17:36.999Z</time>
      </trkpt>
      <trkpt lat="45.58151" lon="6.63025">
        <ele>2136.45</ele>
        <time>2020-01-08T13:17:39.999Z</time>
      </trkpt>
      <trkpt lat="45.58157" lon="6.63039">
        <ele>2134.18</ele>
        <time>2020-01-08T13:17:41.999Z</time>
      </trkpt>
      <trkpt lat="45.58163" lon="6.63049">
        <ele>2131.61</ele>
        <time>2020-01-08T13:17:43.999Z</time>
      </trkpt>
      <trkpt lat="45.58171" lon="6.63064">
        <ele>2128.75</ele>
        <time>2020-01-08T13:17:46.999Z</time>
      </trkpt>
      <trkpt lat="45.58178" lon="6.63077">
        <ele>2125.58</ele>
        <time>2020-01-08T13:17:49.999Z</time>
      </trkpt>
      <trkpt lat="45.58183" lon="6.63088">
        <ele>2123.92</ele>
        <time>2020-01-08T13:17:51.999Z</time>
      </trkpt>
      <trkpt lat="45.58191" lon="6.63095">
        <ele>2122.41</ele>
        <time>2020-01-08T13:17:53.999Z</time>
      </trkpt>
      <trkpt lat="45.58198" lon="6.63106">
        <ele>2121.02</ele>
        <time>2020-01-08T13:17:55.999Z</time>
      </trkpt>
      <trkpt lat="45.58207" lon="6.63116">
        <ele>2119.88</ele>
        <time>2020-01-08T13:17:57.999Z</time>
      </trkpt>
      <trkpt lat="45.58217" lon="6.6313">
        <ele>2119.03</ele>
        <time>2020-01-08T13:17:59.999Z</time>
      </trkpt>
      <trkpt lat="45.58227" lon="6.63142">
        <ele>2118.18</ele>
        <time>2020-01-08T13:18:01.999Z</time>
      </trkpt>
      <trkpt lat="45.58236" lon="6.63151">
        <ele>2117.24</ele>
        <time>2020-01-08T13:18:03.999Z</time>
      </trkpt>
      <trkpt lat="45.58247" lon="6.63162">
        <ele>2115.56</ele>
        <time>2020-01-08T13:18:06.999Z</time>
      </trkpt>
      <trkpt lat="45.58255" lon="6.6317">
        <ele>2114.37</ele>
        <time>2020-01-08T13:18:08.999Z</time>
      </trkpt>
      <trkpt lat="45.58263" lon="6.63177">
        <ele>2113.17</ele>
        <time>2020-01-08T13:18:10.999Z</time>
      </trkpt>
      <trkpt lat="45.5827" lon="6.63186">
        <ele>2111.82</ele>
        <time>2020-01-08T13:18:28.999Z</time>
      </trkpt>
      <trkpt lat="45.58279" lon="6.63194">
        <ele>2110.38</ele>
        <time>2020-01-08T13:18:31.999Z</time>
      </trkpt>
      <trkpt lat="45.58287" lon="6.632">
        <ele>2108.63</ele>
        <time>2020-01-08T13:18:33.999Z</time>
      </trkpt>
      <trkpt lat="45.58295" lon="6.63214">
        <ele>2105.9</ele>
        <time>2020-01-08T13:18:36.999Z</time>
      </trkpt>
      <trkpt lat="45.58302" lon="6.63224">
        <ele>2105.36</ele>
        <time>2020-01-08T13:18:39.999Z</time>
      </trkpt>
      <trkpt lat="45.58306" lon="6.63236">
        <ele>2104.44</ele>
        <time>2020-01-08T13:18:44.999Z</time>
      </trkpt>
      <trkpt lat="45.58318" lon="6.6324">
        <ele>2103.01</ele>
        <time>2020-01-08T13:18:47.999Z</time>
      </trkpt>
      <trkpt lat="45.58328" lon="6.6325">
        <ele>2101.48</ele>
        <time>2020-01-08T13:18:50.999Z</time>
      </trkpt>
      <trkpt lat="45.58336" lon="6.63257">
        <ele>2100.62</ele>
        <time>2020-01-08T13:18:52.999Z</time>
      </trkpt>
      <trkpt lat="45.58348" lon="6.63263">
        <ele>2099.5</ele>
        <time>2020-01-08T13:18:55.999Z</time>
      </trkpt>
      <trkpt lat="45.58357" lon="6.63266">
        <ele>2099.25</ele>
        <time>2020-01-08T13:18:58.999Z</time>
      </trkpt>
      <trkpt lat="45.58359" lon="6.63279">
        <ele>2099</ele>
        <time>2020-01-08T13:19:02.999Z</time>
      </trkpt>
      <trkpt lat="45.58368" lon="6.6329">
        <ele>2097.56</ele>
        <time>2020-01-08T13:19:05.999Z</time>
      </trkpt>
      <trkpt lat="45.58375" lon="6.63301">
        <ele>2096.55</ele>
        <time>2020-01-08T13:19:07.999Z</time>
      </trkpt>
      <trkpt lat="45.58379" lon="6.63316">
        <ele>2095.7</ele>
        <time>2020-01-08T13:19:09.999Z</time>
      </trkpt>
      <trkpt lat="45.58392" lon="6.63319">
        <ele>2093.69</ele>
        <time>2020-01-08T13:19:12.999Z</time>
      </trkpt>
      <trkpt lat="45.58399" lon="6.63333">
        <ele>2092.29</ele>
        <time>2020-01-08T13:19:14.999Z</time>
      </trkpt>
      <trkpt lat="45.58403" lon="6.63351">
        <ele>2091</ele>
        <time>2020-01-08T13:19:16.999Z</time>
      </trkpt>
      <trkpt lat="45.584" lon="6.63371">
        <ele>2089.99</ele>
        <time>2020-01-08T13:19:18.999Z</time>
      </trkpt>
      <trkpt lat="45.58395" lon="6.63387">
        <ele>2088.29</ele>
        <time>2020-01-08T13:19:21.999Z</time>
      </trkpt>
      <trkpt lat="45.58398" lon="6.63404">
        <ele>2086.62</ele>
        <time>2020-01-08T13:19:23.999Z</time>
      </trkpt>
      <trkpt lat="45.58402" lon="6.63422">
        <ele>2084.67</ele>
        <time>2020-01-08T13:19:25.999Z</time>
      </trkpt>
      <trkpt lat="45.58405" lon="6.63435">
        <ele>2082.46</ele>
        <time>2020-01-08T13:19:27.999Z</time>
      </trkpt>
      <trkpt lat="45.5841" lon="6.63455">
        <ele>2080.03</ele>
        <time>2020-01-08T13:19:29.999Z</time>
      </trkpt>
      <trkpt lat="45.58416" lon="6.63472">
        <ele>2078.35</ele>
        <time>2020-01-08T13:19:31.999Z</time>
      </trkpt>
      <trkpt lat="45.58412" lon="6.63485">
        <ele>2077.55</ele>
        <time>2020-01-08T13:19:35.999Z</time>
      </trkpt>
      <trkpt lat="45.58404" lon="6.63495">
        <ele>2074.18</ele>
        <time>2020-01-08T13:19:46.999Z</time>
      </trkpt>
      <trkpt lat="45.58411" lon="6.63508">
        <ele>2073.1</ele>
        <time>2020-01-08T13:19:49.999Z</time>
      </trkpt>
      <trkpt lat="45.5842" lon="6.63515">
        <ele>2066</ele>
        <time>2020-01-08T13:19:52.999Z</time>
      </trkpt>
      <trkpt lat="45.58422" lon="6.63534">
        <ele>2056.03</ele>
        <time>2020-01-08T13:20:00.999Z</time>
      </trkpt>
      <trkpt lat="45.58428" lon="6.63546">
        <ele>2052.97</ele>
        <time>2020-01-08T13:20:02.999Z</time>
      </trkpt>
      <trkpt lat="45.58434" lon="6.63558">
        <ele>2050.73</ele>
        <time>2020-01-08T13:20:04.999Z</time>
      </trkpt>
      <trkpt lat="45.58441" lon="6.63568">
        <ele>2049.07</ele>
        <time>2020-01-08T13:20:06.999Z</time>
      </trkpt>
      <trkpt lat="45.58447" lon="6.63577">
        <ele>2047.74</ele>
        <time>2020-01-08T13:20:08.999Z</time>
      </trkpt>
      <trkpt lat="45.58454" lon="6.63586">
        <ele>2046.61</ele>
        <time>2020-01-08T13:20:10.999Z</time>
      </trkpt>
      <trkpt lat="45.58463" lon="6.63602">
        <ele>2045.15</ele>
        <time>2020-01-08T13:20:13.999Z</time>
      </trkpt>
      <trkpt lat="45.5847" lon="6.63614">
        <ele>2044.24</ele>
        <time>2020-01-08T13:20:15.999Z</time>
      </trkpt>
      <trkpt lat="45.58479" lon="6.63618">
        <ele>2043.76</ele>
        <time>2020-01-08T13:20:22.999Z</time>
      </trkpt>
      <trkpt lat="45.58477" lon="6.63632">
        <ele>2041.72</ele>
        <time>2020-01-08T13:21:09.999Z</time>
      </trkpt>
      <trkpt lat="45.58474" lon="6.63644">
        <ele>2041</ele>
        <time>2020-01-08T13:21:12.999Z</time>
      </trkpt>
      <trkpt lat="45.58471" lon="6.63658">
        <ele>2040.08</ele>
        <time>2020-01-08T13:21:16.999Z</time>
      </trkpt>
      <trkpt lat="45.58464" lon="6.63669">
        <ele>2036.48</ele>
        <time>2020-01-08T13:21:19.999Z</time>
      </trkpt>
      <trkpt lat="45.58465" lon="6.63685">
        <ele>2033.61</ele>
        <time>2020-01-08T13:21:21.999Z</time>
      </trkpt>
      <trkpt lat="45.58467" lon="6.637">
        <ele>2032.94</ele>
        <time>2020-01-08T13:21:23.999Z</time>
      </trkpt>
      <trkpt lat="45.58462" lon="6.63716">
        <ele>2030.83</ele>
        <time>2020-01-08T13:21:29.999Z</time>
      </trkpt>
      <trkpt lat="45.58465" lon="6.63731">
        <ele>2030.01</ele>
        <time>2020-01-08T13:21:34.999Z</time>
      </trkpt>
      <trkpt lat="45.58456" lon="6.63739">
        <ele>2027.26</ele>
        <time>2020-01-08T13:21:38.999Z</time>
      </trkpt>
      <trkpt lat="45.58443" lon="6.63745">
        <ele>2024.35</ele>
        <time>2020-01-08T13:21:40.999Z</time>
      </trkpt>
      <trkpt lat="45.58434" lon="6.63752">
        <ele>2021.32</ele>
        <time>2020-01-08T13:21:42.999Z</time>
      </trkpt>
      <trkpt lat="45.5843" lon="6.63767">
        <ele>2018.18</ele>
        <time>2020-01-08T13:21:44.999Z</time>
      </trkpt>
      <trkpt lat="45.58427" lon="6.6378">
        <ele>2017.01</ele>
        <time>2020-01-08T13:21:47.999Z</time>
      </trkpt>
      <trkpt lat="45.58418" lon="6.63784">
        <ele>2015.95</ele>
        <time>2020-01-08T13:21:51.999Z</time>
      </trkpt>
      <trkpt lat="45.58409" lon="6.638">
        <ele>2010.5</ele>
        <time>2020-01-08T13:21:55.999Z</time>
      </trkpt>
      <trkpt lat="45.58414" lon="6.63813">
        <ele>2006.31</ele>
        <time>2020-01-08T13:21:57.999Z</time>
      </trkpt>
      <trkpt lat="45.58422" lon="6.63827">
        <ele>2003.09</ele>
        <time>2020-01-08T13:22:00.999Z</time>
      </trkpt>
      <trkpt lat="45.58428" lon="6.63838">
        <ele>2000.99</ele>
        <time>2020-01-08T13:22:02.999Z</time>
      </trkpt>
      <trkpt lat="45.58436" lon="6.63847">
        <ele>2000.37</ele>
        <time>2020-01-08T13:22:05.999Z</time>
      </trkpt>
      <trkpt lat="45.58447" lon="6.63852">
        <ele>1997.49</ele>
        <time>2020-01-08T13:22:34.999Z</time>
      </trkpt>
      <trkpt lat="45.58455" lon="6.63859">
        <ele>1996.7</ele>
        <time>2020-01-08T13:22:37.999Z</time>
      </trkpt>
      <trkpt lat="45.58465" lon="6.63864">
        <ele>1995.94</ele>
        <time>2020-01-08T13:22:40.999Z</time>
      </trkpt>
      <trkpt lat="45.58474" lon="6.63867">
        <ele>1995.19</ele>
        <time>2020-01-08T13:22:43.999Z</time>
      </trkpt>
      <trkpt lat="45.58485" lon="6.6387">
        <ele>1992.95</ele>
        <time>2020-01-08T13:22:46.999Z</time>
      </trkpt>
      <trkpt lat="45.58493" lon="6.63872">
        <ele>1989.38</ele>
        <time>2020-01-08T13:22:48.999Z</time>
      </trkpt>
      <trkpt lat="45.58503" lon="6.63873">
        <ele>1986.8</ele>
        <time>2020-01-08T13:22:50.999Z</time>
      </trkpt>
      <trkpt lat="45.58516" lon="6.63875">
        <ele>1984.32</ele>
        <time>2020-01-08T13:22:53.999Z</time>
      </trkpt>
      <trkpt lat="45.58525" lon="6.63875">
        <ele>1983.2</ele>
        <time>2020-01-08T13:22:55.999Z</time>
      </trkpt>
      <trkpt lat="45.58537" lon="6.63872">
        <ele>1982.3</ele>
        <time>2020-01-08T13:22:57.999Z</time>
      </trkpt>
      <trkpt lat="45.58552" lon="6.6387">
        <ele>1981.45</ele>
        <time>2020-01-08T13:22:59.999Z</time>
      </trkpt>
      <trkpt lat="45.58566" lon="6.63872">
        <ele>1980.57</ele>
        <time>2020-01-08T13:23:01.999Z</time>
      </trkpt>
      <trkpt lat="45.58574" lon="6.63883">
        <ele>1979.66</ele>
        <time>2020-01-08T13:23:03.999Z</time>
      </trkpt>
      <trkpt lat="45.58579" lon="6.63901">
        <ele>1978.7</ele>
        <time>2020-01-08T13:23:05.999Z</time>
      </trkpt>
      <trkpt lat="45.58585" lon="6.63915">
        <ele>1978.02</ele>
        <time>2020-01-08T13:23:07.999Z</time>
      </trkpt>
      <trkpt lat="45.58594" lon="6.6392">
        <ele>1977.73</ele>
        <time>2020-01-08T13:23:11.999Z</time>
      </trkpt>
      <trkpt lat="45.58604" lon="6.63925">
        <ele>1976.02</ele>
        <time>2020-01-08T13:23:38.999Z</time>
      </trkpt>
      <trkpt lat="45.58613" lon="6.63936">
        <ele>1974.45</ele>
        <time>2020-01-08T13:23:46.999Z</time>
      </trkpt>
      <trkpt lat="45.58623" lon="6.63937">
        <ele>1973.87</ele>
        <time>2020-01-08T13:23:49.999Z</time>
      </trkpt>
      <trkpt lat="45.58633" lon="6.63935">
        <ele>1973.31</ele>
        <time>2020-01-08T13:23:52.999Z</time>
      </trkpt>
      <trkpt lat="45.58643" lon="6.63932">
        <ele>1972.76</ele>
        <time>2020-01-08T13:23:55.999Z</time>
      </trkpt>
      <trkpt lat="45.58652" lon="6.63927">
        <ele>1972.23</ele>
        <time>2020-01-08T13:23:58.999Z</time>
      </trkpt>
      <trkpt lat="45.5866" lon="6.63921">
        <ele>1971.55</ele>
        <time>2020-01-08T13:24:02.999Z</time>
      </trkpt>
      <trkpt lat="45.5867" lon="6.63913">
        <ele>1969.24</ele>
        <time>2020-01-08T13:24:11.999Z</time>
      </trkpt>
      <trkpt lat="45.58678" lon="6.63903">
        <ele>1968.44</ele>
        <time>2020-01-08T13:24:14.999Z</time>
      </trkpt>
      <trkpt lat="45.58687" lon="6.63891">
        <ele>1967.91</ele>
        <time>2020-01-08T13:24:18.999Z</time>
      </trkpt>
      <trkpt lat="45.58694" lon="6.63884">
        <ele>1967.51</ele>
        <time>2020-01-08T13:24:21.999Z</time>
      </trkpt>
      <trkpt lat="45.58693" lon="6.639">
        <ele>1963.15</ele>
        <time>2020-01-08T13:24:44.999Z</time>
      </trkpt>
      <trkpt lat="45.58688" lon="6.63915">
        <ele>1961.44</ele>
        <time>2020-01-08T13:24:46.999Z</time>
      </trkpt>
      <trkpt lat="45.58682" lon="6.63928">
        <ele>1960.57</ele>
        <time>2020-01-08T13:24:48.999Z</time>
      </trkpt>
      <trkpt lat="45.58676" lon="6.63939">
        <ele>1960.34</ele>
        <time>2020-01-08T13:24:51.999Z</time>
      </trkpt>
      <trkpt lat="45.58669" lon="6.63949">
        <ele>1960.18</ele>
        <time>2020-01-08T13:24:54.999Z</time>
      </trkpt>
      <trkpt lat="45.5866" lon="6.63958">
        <ele>1959.65</ele>
        <time>2020-01-08T13:24:57.999Z</time>
      </trkpt>
      <trkpt lat="45.58651" lon="6.63965">
        <ele>1958.74</ele>
        <time>2020-01-08T13:24:59.999Z</time>
      </trkpt>
      <trkpt lat="45.58641" lon="6.63974">
        <ele>1957.97</ele>
        <time>2020-01-08T13:25:01.999Z</time>
      </trkpt>
      <trkpt lat="45.58633" lon="6.63981">
        <ele>1957.36</ele>
        <time>2020-01-08T13:25:03.999Z</time>
      </trkpt>
      <trkpt lat="45.58627" lon="6.63992">
        <ele>1956.97</ele>
        <time>2020-01-08T13:25:06.999Z</time>
      </trkpt>
      <trkpt lat="45.5862" lon="6.64002">
        <ele>1956.8</ele>
        <time>2020-01-08T13:25:09.999Z</time>
      </trkpt>
      <trkpt lat="45.58612" lon="6.64009">
        <ele>1956.65</ele>
        <time>2020-01-08T13:25:13.999Z</time>
      </trkpt>
      <trkpt lat="45.58605" lon="6.64017">
        <ele>1956.51</ele>
        <time>2020-01-08T13:25:16.999Z</time>
      </trkpt>
      <trkpt lat="45.58604" lon="6.6403">
        <ele>1956.28</ele>
        <time>2020-01-08T13:25:20.999Z</time>
      </trkpt>
      <trkpt lat="45.58596" lon="6.6404">
        <ele>1955.88</ele>
        <time>2020-01-08T13:25:24.999Z</time>
      </trkpt>
      <trkpt lat="45.58597" lon="6.64056">
        <ele>1954.54</ele>
        <time>2020-01-08T13:25:27.999Z</time>
      </trkpt>
      <trkpt lat="45.58599" lon="6.64072">
        <ele>1953.94</ele>
        <time>2020-01-08T13:25:31.999Z</time>
      </trkpt>
      <trkpt lat="45.58601" lon="6.64085">
        <ele>1953.13</ele>
        <time>2020-01-08T13:25:35.999Z</time>
      </trkpt>
      <trkpt lat="45.58591" lon="6.64094">
        <ele>1951.81</ele>
        <time>2020-01-08T13:25:40.999Z</time>
      </trkpt>
      <trkpt lat="45.58579" lon="6.64102">
        <ele>1946</ele>
        <time>2020-01-08T13:25:43.999Z</time>
      </trkpt>
      <trkpt lat="45.58568" lon="6.6411">
        <ele>1942.33</ele>
        <time>2020-01-08T13:25:45.999Z</time>
      </trkpt>
      <trkpt lat="45.5856" lon="6.64117">
        <ele>1939.98</ele>
        <time>2020-01-08T13:25:47.999Z</time>
      </trkpt>
      <trkpt lat="45.5855" lon="6.64118">
        <ele>1939.16</ele>
        <time>2020-01-08T13:25:51.999Z</time>
      </trkpt>
      <trkpt lat="45.5854" lon="6.64117">
        <ele>1938.62</ele>
        <time>2020-01-08T13:25:54.999Z</time>
      </trkpt>
      <trkpt lat="45.58528" lon="6.64116">
        <ele>1937.28</ele>
        <time>2020-01-08T13:25:58.999Z</time>
      </trkpt>
      <trkpt lat="45.58524" lon="6.64129">
        <ele>1935.21</ele>
        <time>2020-01-08T13:26:03.999Z</time>
      </trkpt>
      <trkpt lat="45.58529" lon="6.64141">
        <ele>1932.73</ele>
        <time>2020-01-08T13:26:08.999Z</time>
      </trkpt>
      <trkpt lat="45.58522" lon="6.64148">
        <ele>1928.79</ele>
        <time>2020-01-08T13:26:16.999Z</time>
      </trkpt>
      <trkpt lat="45.58525" lon="6.6416">
        <ele>1923.93</ele>
        <time>2020-01-08T13:26:26.999Z</time>
      </trkpt>
      <trkpt lat="45.58536" lon="6.64168">
        <ele>1921.58</ele>
        <time>2020-01-08T13:26:31.999Z</time>
      </trkpt>
      <trkpt lat="45.58526" lon="6.64174">
        <ele>1911.61</ele>
        <time>2020-01-08T13:26:37.999Z</time>
      </trkpt>
      <trkpt lat="45.58515" lon="6.64174">
        <ele>1910.18</ele>
        <time>2020-01-08T13:26:40.999Z</time>
      </trkpt>
      <trkpt lat="45.58505" lon="6.64173">
        <ele>1909.09</ele>
        <time>2020-01-08T13:26:43.999Z</time>
      </trkpt>
      <trkpt lat="45.58496" lon="6.64172">
        <ele>1906.98</ele>
        <time>2020-01-08T13:26:48.999Z</time>
      </trkpt>
      <trkpt lat="45.58493" lon="6.64186">
        <ele>1902.98</ele>
        <time>2020-01-08T13:26:57.999Z</time>
      </trkpt>
      <trkpt lat="45.58485" lon="6.64195">
        <ele>1900.24</ele>
        <time>2020-01-08T13:27:03.999Z</time>
      </trkpt>
      <trkpt lat="45.58493" lon="6.64207">
        <ele>1891.76</ele>
        <time>2020-01-08T13:27:08.999Z</time>
      </trkpt>
      <trkpt lat="45.58505" lon="6.64216">
        <ele>1885.18</ele>
        <time>2020-01-08T13:27:11.999Z</time>
      </trkpt>
      <trkpt lat="45.58517" lon="6.64223">
        <ele>1879.04</ele>
        <time>2020-01-08T13:27:14.999Z</time>
      </trkpt>
      <trkpt lat="45.58527" lon="6.64232">
        <ele>1875.11</ele>
        <time>2020-01-08T13:27:17.999Z</time>
      </trkpt>
      <trkpt lat="45.58536" lon="6.6424">
        <ele>1872.62</ele>
        <time>2020-01-08T13:27:20.999Z</time>
      </trkpt>
      <trkpt lat="45.58545" lon="6.64252">
        <ele>1869.78</ele>
        <time>2020-01-08T13:27:23.999Z</time>
      </trkpt>
      <trkpt lat="45.58555" lon="6.64257">
        <ele>1869.13</ele>
        <time>2020-01-08T13:27:26.999Z</time>
      </trkpt>
      <trkpt lat="45.58543" lon="6.64263">
        <ele>1863.93</ele>
        <time>2020-01-08T13:27:40.999Z</time>
      </trkpt>
      <trkpt lat="45.58532" lon="6.64265">
        <ele>1862.99</ele>
        <time>2020-01-08T13:27:43.999Z</time>
      </trkpt>
      <trkpt lat="45.58536" lon="6.64279">
        <ele>1860.14</ele>
        <time>2020-01-08T13:27:47.999Z</time>
      </trkpt>
      <trkpt lat="45.58547" lon="6.64287">
        <ele>1858.85</ele>
        <time>2020-01-08T13:27:50.999Z</time>
      </trkpt>
      <trkpt lat="45.58558" lon="6.64292">
        <ele>1858.27</ele>
        <time>2020-01-08T13:27:55.999Z</time>
      </trkpt>
      <trkpt lat="45.58567" lon="6.64295">
        <ele>1857.02</ele>
        <time>2020-01-08T13:27:58.999Z</time>
      </trkpt>
      <trkpt lat="45.58577" lon="6.64299">
        <ele>1856.16</ele>
        <time>2020-01-08T13:28:02.999Z</time>
      </trkpt>
      <trkpt lat="45.58567" lon="6.64307">
        <ele>1855.55</ele>
        <time>2020-01-08T13:28:06.999Z</time>
      </trkpt>
      <trkpt lat="45.58557" lon="6.64306">
        <ele>1853.48</ele>
        <time>2020-01-08T13:28:15.999Z</time>
      </trkpt>
      <trkpt lat="45.58546" lon="6.64311">
        <ele>1852.41</ele>
        <time>2020-01-08T13:28:19.999Z</time>
      </trkpt>
      <trkpt lat="45.58536" lon="6.64314">
        <ele>1849.17</ele>
        <time>2020-01-08T13:28:22.999Z</time>
      </trkpt>
      <trkpt lat="45.58525" lon="6.64315">
        <ele>1848.06</ele>
        <time>2020-01-08T13:28:26.999Z</time>
      </trkpt>
      <trkpt lat="45.58513" lon="6.64313">
        <ele>1846.87</ele>
        <time>2020-01-08T13:28:30.999Z</time>
      </trkpt>
      <trkpt lat="45.58502" lon="6.64313">
        <ele>1845.91</ele>
        <time>2020-01-08T13:28:33.999Z</time>
      </trkpt>
      <trkpt lat="45.5849" lon="6.64316">
        <ele>1842.1</ele>
        <time>2020-01-08T13:28:36.999Z</time>
      </trkpt>
      <trkpt lat="45.5848" lon="6.64319">
        <ele>1840.89</ele>
        <time>2020-01-08T13:28:40.999Z</time>
      </trkpt>
      <trkpt lat="45.58468" lon="6.64317">
        <ele>1839.36</ele>
        <time>2020-01-08T13:28:45.999Z</time>
      </trkpt>
      <trkpt lat="45.58464" lon="6.64329">
        <ele>1833.05</ele>
        <time>2020-01-08T13:29:25.999Z</time>
      </trkpt>
      <trkpt lat="45.58468" lon="6.64343">
        <ele>1829.23</ele>
        <time>2020-01-08T13:29:28.999Z</time>
      </trkpt>
      <trkpt lat="45.58476" lon="6.64352">
        <ele>1828.1</ele>
        <time>2020-01-08T13:29:32.999Z</time>
      </trkpt>
      <trkpt lat="45.58467" lon="6.64348">
        <ele>1824.58</ele>
        <time>2020-01-08T13:30:02.999Z</time>
      </trkpt>
      <trkpt lat="45.58455" lon="6.64339">
        <ele>1819.69</ele>
        <time>2020-01-08T13:30:05.999Z</time>
      </trkpt>
      <trkpt lat="45.58446" lon="6.64335">
        <ele>1817.96</ele>
        <time>2020-01-08T13:30:07.999Z</time>
      </trkpt>
      <trkpt lat="45.58436" lon="6.64331">
        <ele>1817.52</ele>
        <time>2020-01-08T13:30:10.999Z</time>
      </trkpt>
      <trkpt lat="45.58424" lon="6.64328">
        <ele>1817.14</ele>
        <time>2020-01-08T13:30:14.999Z</time>
      </trkpt>
      <trkpt lat="45.58415" lon="6.64326">
        <ele>1816.76</ele>
        <time>2020-01-08T13:30:18.999Z</time>
      </trkpt>
      <trkpt lat="45.58422" lon="6.6434">
        <ele>1815.2</ele>
        <time>2020-01-08T13:30:32.999Z</time>
      </trkpt>
      <trkpt lat="45.58433" lon="6.64351">
        <ele>1813.41</ele>
        <time>2020-01-08T13:30:35.999Z</time>
      </trkpt>
      <trkpt lat="45.58443" lon="6.6436">
        <ele>1813.09</ele>
        <time>2020-01-08T13:30:39.999Z</time>
      </trkpt>
      <trkpt lat="45.58432" lon="6.64362">
        <ele>1812.49</ele>
        <time>2020-01-08T13:30:48.999Z</time>
      </trkpt>
      <trkpt lat="45.58431" lon="6.64377">
        <ele>1811.89</ele>
        <time>2020-01-08T13:30:56.999Z</time>
      </trkpt>
      <trkpt lat="45.58439" lon="6.64391">
        <ele>1810.83</ele>
        <time>2020-01-08T13:30:59.999Z</time>
      </trkpt>
      <trkpt lat="45.58447" lon="6.64399">
        <ele>1810.47</ele>
        <time>2020-01-08T13:31:02.999Z</time>
      </trkpt>
      <trkpt lat="45.58455" lon="6.64409">
        <ele>1809.94</ele>
        <time>2020-01-08T13:31:06.999Z</time>
      </trkpt>
      <trkpt lat="45.58462" lon="6.64419">
        <ele>1809.36</ele>
        <time>2020-01-08T13:31:09.999Z</time>
      </trkpt>
      <trkpt lat="45.58454" lon="6.64423">
        <ele>1806.86</ele>
        <time>2020-01-08T13:31:18.999Z</time>
      </trkpt>
      <trkpt lat="45.58442" lon="6.64421">
        <ele>1805.65</ele>
        <time>2020-01-08T13:31:22.999Z</time>
      </trkpt>
      <trkpt lat="45.58432" lon="6.64413">
        <ele>1803.16</ele>
        <time>2020-01-08T13:31:34.999Z</time>
      </trkpt>
      <trkpt lat="45.58423" lon="6.64409">
        <ele>1801.75</ele>
        <time>2020-01-08T13:31:38.999Z</time>
      </trkpt>
      <trkpt lat="45.58432" lon="6.64422">
        <ele>1796.02</ele>
        <time>2020-01-08T13:31:47.999Z</time>
      </trkpt>
      <trkpt lat="45.58437" lon="6.64435">
        <ele>1791.13</ele>
        <time>2020-01-08T13:31:50.999Z</time>
      </trkpt>
      <trkpt lat="45.58445" lon="6.64444">
        <ele>1789.63</ele>
        <time>2020-01-08T13:31:53.999Z</time>
      </trkpt>
      <trkpt lat="45.58454" lon="6.64453">
        <ele>1788.77</ele>
        <time>2020-01-08T13:31:57.999Z</time>
      </trkpt>
      <trkpt lat="45.58444" lon="6.6445">
        <ele>1787.68</ele>
        <time>2020-01-08T13:32:02.999Z</time>
      </trkpt>
      <trkpt lat="45.58435" lon="6.64447">
        <ele>1786.77</ele>
        <time>2020-01-08T13:32:06.999Z</time>
      </trkpt>
      <trkpt lat="45.58425" lon="6.64443">
        <ele>1785.62</ele>
        <time>2020-01-08T13:32:11.999Z</time>
      </trkpt>
      <trkpt lat="45.58417" lon="6.64439">
        <ele>1784.15</ele>
        <time>2020-01-08T13:32:18.999Z</time>
      </trkpt>
      <trkpt lat="45.58422" lon="6.64452">
        <ele>1782.8</ele>
        <time>2020-01-08T13:32:24.999Z</time>
      </trkpt>
      <trkpt lat="45.58427" lon="6.64467">
        <ele>1778.38</ele>
        <time>2020-01-08T13:32:28.999Z</time>
      </trkpt>
      <trkpt lat="45.58435" lon="6.64479">
        <ele>1776.38</ele>
        <time>2020-01-08T13:32:31.999Z</time>
      </trkpt>
      <trkpt lat="45.58442" lon="6.64488">
        <ele>1775.94</ele>
        <time>2020-01-08T13:32:34.999Z</time>
      </trkpt>
      <trkpt lat="45.58451" lon="6.645">
        <ele>1774.46</ele>
        <time>2020-01-08T13:32:38.999Z</time>
      </trkpt>
      <trkpt lat="45.58462" lon="6.64506">
        <ele>1771.88</ele>
        <time>2020-01-08T13:32:41.999Z</time>
      </trkpt>
      <trkpt lat="45.58472" lon="6.6451">
        <ele>1771.5</ele>
        <time>2020-01-08T13:32:44.999Z</time>
      </trkpt>
      <trkpt lat="45.58482" lon="6.64513">
        <ele>1771.22</ele>
        <time>2020-01-08T13:32:47.999Z</time>
      </trkpt>
      <trkpt lat="45.58492" lon="6.64517">
        <ele>1770.91</ele>
        <time>2020-01-08T13:32:50.999Z</time>
      </trkpt>
      <trkpt lat="45.58482" lon="6.64523">
        <ele>1770.07</ele>
        <time>2020-01-08T13:32:57.999Z</time>
      </trkpt>
      <trkpt lat="45.5847" lon="6.64524">
        <ele>1769.53</ele>
        <time>2020-01-08T13:33:00.999Z</time>
      </trkpt>
      <trkpt lat="45.58461" lon="6.64524">
        <ele>1768.92</ele>
        <time>2020-01-08T13:33:03.999Z</time>
      </trkpt>
      <trkpt lat="45.58452" lon="6.64523">
        <ele>1768.29</ele>
        <time>2020-01-08T13:33:06.999Z</time>
      </trkpt>
      <trkpt lat="45.58439" lon="6.64523">
        <ele>1765.69</ele>
        <time>2020-01-08T13:33:09.999Z</time>
      </trkpt>
      <trkpt lat="45.5843" lon="6.64524">
        <ele>1765.07</ele>
        <time>2020-01-08T13:33:12.999Z</time>
      </trkpt>
      <trkpt lat="45.58418" lon="6.6452">
        <ele>1764.3</ele>
        <time>2020-01-08T13:33:16.999Z</time>
      </trkpt>
      <trkpt lat="45.58408" lon="6.64517">
        <ele>1763.51</ele>
        <time>2020-01-08T13:33:20.999Z</time>
      </trkpt>
      <trkpt lat="45.58397" lon="6.64517">
        <ele>1761.68</ele>
        <time>2020-01-08T13:33:31.999Z</time>
      </trkpt>
      <trkpt lat="45.584" lon="6.64531">
        <ele>1758.67</ele>
        <time>2020-01-08T13:33:44.999Z</time>
      </trkpt>
      <trkpt lat="45.58408" lon="6.64541">
        <ele>1757.92</ele>
        <time>2020-01-08T13:33:47.999Z</time>
      </trkpt>
      <trkpt lat="45.58417" lon="6.6455">
        <ele>1757.16</ele>
        <time>2020-01-08T13:33:50.999Z</time>
      </trkpt>
      <trkpt lat="45.58425" lon="6.64556">
        <ele>1755.9</ele>
        <time>2020-01-08T13:33:55.999Z</time>
      </trkpt>
      <trkpt lat="45.58432" lon="6.6457">
        <ele>1754.65</ele>
        <time>2020-01-08T13:34:00.999Z</time>
      </trkpt>
      <trkpt lat="45.58438" lon="6.64581">
        <ele>1753.4</ele>
        <time>2020-01-08T13:34:05.999Z</time>
      </trkpt>
      <trkpt lat="45.58426" lon="6.64582">
        <ele>1750.69</ele>
        <time>2020-01-08T13:34:16.999Z</time>
      </trkpt>
      <trkpt lat="45.58417" lon="6.64582">
        <ele>1747.11</ele>
        <time>2020-01-08T13:34:18.999Z</time>
      </trkpt>
      <trkpt lat="45.58406" lon="6.64578">
        <ele>1745.81</ele>
        <time>2020-01-08T13:34:21.999Z</time>
      </trkpt>
      <trkpt lat="45.58397" lon="6.64575">
        <ele>1744.82</ele>
        <time>2020-01-08T13:34:26.999Z</time>
      </trkpt>
      <trkpt lat="45.58399" lon="6.64588">
        <ele>1739.85</ele>
        <time>2020-01-08T13:35:04.999Z</time>
      </trkpt>
      <trkpt lat="45.58397" lon="6.64601">
        <ele>1735.54</ele>
        <time>2020-01-08T13:35:10.999Z</time>
      </trkpt>
      <trkpt lat="45.584" lon="6.64614">
        <ele>1733.75</ele>
        <time>2020-01-08T13:35:13.999Z</time>
      </trkpt>
      <trkpt lat="45.58394" lon="6.64624">
        <ele>1732.61</ele>
        <time>2020-01-08T13:35:17.999Z</time>
      </trkpt>
      <trkpt lat="45.58383" lon="6.64627">
        <ele>1731.49</ele>
        <time>2020-01-08T13:35:21.999Z</time>
      </trkpt>
      <trkpt lat="45.58374" lon="6.64622">
        <ele>1730.38</ele>
        <time>2020-01-08T13:35:25.999Z</time>
      </trkpt>
      <trkpt lat="45.58363" lon="6.64628">
        <ele>1728.12</ele>
        <time>2020-01-08T13:35:36.999Z</time>
      </trkpt>
      <trkpt lat="45.58351" lon="6.64626">
        <ele>1723.22</ele>
        <time>2020-01-08T13:35:39.999Z</time>
      </trkpt>
      <trkpt lat="45.58343" lon="6.64635">
        <ele>1721.63</ele>
        <time>2020-01-08T13:35:42.999Z</time>
      </trkpt>
      <trkpt lat="45.58343" lon="6.64649">
        <ele>1720.95</ele>
        <time>2020-01-08T13:35:45.999Z</time>
      </trkpt>
      <trkpt lat="45.58347" lon="6.6466">
        <ele>1718.12</ele>
        <time>2020-01-08T13:36:08.999Z</time>
      </trkpt>
      <trkpt lat="45.58357" lon="6.64665">
        <ele>1713.42</ele>
        <time>2020-01-08T13:36:20.999Z</time>
      </trkpt>
      <trkpt lat="45.58367" lon="6.64668">
        <ele>1709.21</ele>
        <time>2020-01-08T13:36:35.999Z</time>
      </trkpt>
      <trkpt lat="45.58378" lon="6.64668">
        <ele>1706.32</ele>
        <time>2020-01-08T13:36:38.999Z</time>
      </trkpt>
      <trkpt lat="45.58389" lon="6.6467">
        <ele>1702.6</ele>
        <time>2020-01-08T13:36:41.999Z</time>
      </trkpt>
      <trkpt lat="45.5838" lon="6.64678">
        <ele>1701.69</ele>
        <time>2020-01-08T13:36:45.999Z</time>
      </trkpt>
      <trkpt lat="45.58372" lon="6.64685">
        <ele>1699.22</ele>
        <time>2020-01-08T13:36:48.999Z</time>
      </trkpt>
      <trkpt lat="45.58364" lon="6.64691">
        <ele>1697.2</ele>
        <time>2020-01-08T13:36:51.999Z</time>
      </trkpt>
      <trkpt lat="45.58353" lon="6.64695">
        <ele>1694.81</ele>
        <time>2020-01-08T13:36:54.999Z</time>
      </trkpt>
      <trkpt lat="45.58343" lon="6.64698">
        <ele>1693.36</ele>
        <time>2020-01-08T13:36:57.999Z</time>
      </trkpt>
      <trkpt lat="45.58333" lon="6.64701">
        <ele>1692.94</ele>
        <time>2020-01-08T13:37:00.999Z</time>
      </trkpt>
      <trkpt lat="45.58321" lon="6.64705">
        <ele>1692.63</ele>
        <time>2020-01-08T13:37:03.999Z</time>
      </trkpt>
      <trkpt lat="45.58311" lon="6.64712">
        <ele>1691.62</ele>
        <time>2020-01-08T13:37:06.999Z</time>
      </trkpt>
      <trkpt lat="45.583" lon="6.6471">
        <ele>1690.97</ele>
        <time>2020-01-08T13:37:10.999Z</time>
      </trkpt>
      <trkpt lat="45.5829" lon="6.64704">
        <ele>1690.62</ele>
        <time>2020-01-08T13:37:14.999Z</time>
      </trkpt>
      <trkpt lat="45.58279" lon="6.647">
        <ele>1690.34</ele>
        <time>2020-01-08T13:37:17.999Z</time>
      </trkpt>
      <trkpt lat="45.58268" lon="6.64693">
        <ele>1689.39</ele>
        <time>2020-01-08T13:37:21.999Z</time>
      </trkpt>
      <trkpt lat="45.58259" lon="6.64685">
        <ele>1688.4</ele>
        <time>2020-01-08T13:37:23.999Z</time>
      </trkpt>
      <trkpt lat="45.58251" lon="6.64678">
        <ele>1688.2</ele>
        <time>2020-01-08T13:37:25.999Z</time>
      </trkpt>
      <trkpt lat="45.58239" lon="6.64671">
        <ele>1687.4</ele>
        <time>2020-01-08T13:37:28.999Z</time>
      </trkpt>
      <trkpt lat="45.58232" lon="6.64661">
        <ele>1687.21</ele>
        <time>2020-01-08T13:37:31.999Z</time>
      </trkpt>
      <trkpt lat="45.58223" lon="6.64655">
        <ele>1685.39</ele>
        <time>2020-01-08T13:37:45.999Z</time>
      </trkpt>
      <trkpt lat="45.58213" lon="6.64648">
        <ele>1683.11</ele>
        <time>2020-01-08T13:37:47.999Z</time>
      </trkpt>
      <trkpt lat="45.58204" lon="6.64645">
        <ele>1681.33</ele>
        <time>2020-01-08T13:37:49.999Z</time>
      </trkpt>
      <trkpt lat="45.58193" lon="6.64639">
        <ele>1679.75</ele>
        <time>2020-01-08T13:37:52.999Z</time>
      </trkpt>
      <trkpt lat="45.58181" lon="6.64636">
        <ele>1678.17</ele>
        <time>2020-01-08T13:37:55.999Z</time>
      </trkpt>
      <trkpt lat="45.58172" lon="6.64634">
        <ele>1677.68</ele>
        <time>2020-01-08T13:37:57.999Z</time>
      </trkpt>
      <trkpt lat="45.58161" lon="6.6463">
        <ele>1675.62</ele>
        <time>2020-01-08T13:38:00.999Z</time>
      </trkpt>
      <trkpt lat="45.58151" lon="6.64627">
        <ele>1674.89</ele>
        <time>2020-01-08T13:38:03.999Z</time>
      </trkpt>
      <trkpt lat="45.58138" lon="6.64624">
        <ele>1672.58</ele>
        <time>2020-01-08T13:38:06.999Z</time>
      </trkpt>
      <trkpt lat="45.58129" lon="6.64618">
        <ele>1670.32</ele>
        <time>2020-01-08T13:38:08.999Z</time>
      </trkpt>
      <trkpt lat="45.58118" lon="6.64616">
        <ele>1667.61</ele>
        <time>2020-01-08T13:38:10.999Z</time>
      </trkpt>
      <trkpt lat="45.58109" lon="6.64612">
        <ele>1665.42</ele>
        <time>2020-01-08T13:38:12.999Z</time>
      </trkpt>
      <trkpt lat="45.581" lon="6.6461">
        <ele>1663.8</ele>
        <time>2020-01-08T13:38:14.999Z</time>
      </trkpt>
      <trkpt lat="45.58091" lon="6.64609">
        <ele>1662.07</ele>
        <time>2020-01-08T13:38:16.999Z</time>
      </trkpt>
      <trkpt lat="45.58082" lon="6.64605">
        <ele>1659.41</ele>
        <time>2020-01-08T13:38:18.999Z</time>
      </trkpt>
      <trkpt lat="45.58073" lon="6.64603">
        <ele>1657.89</ele>
        <time>2020-01-08T13:38:20.999Z</time>
      </trkpt>
      <trkpt lat="45.58061" lon="6.64598">
        <ele>1655.55</ele>
        <time>2020-01-08T13:38:23.999Z</time>
      </trkpt>
      <trkpt lat="45.58052" lon="6.64592">
        <ele>1653.72</ele>
        <time>2020-01-08T13:38:25.999Z</time>
      </trkpt>
      <trkpt lat="45.58044" lon="6.64588">
        <ele>1652.64</ele>
        <time>2020-01-08T13:38:27.999Z</time>
      </trkpt>
      <trkpt lat="45.58035" lon="6.64582">
        <ele>1651.09</ele>
        <time>2020-01-08T13:38:29.999Z</time>
      </trkpt>
      <trkpt lat="45.58024" lon="6.64576">
        <ele>1648.3</ele>
        <time>2020-01-08T13:38:32.999Z</time>
      </trkpt>
      <trkpt lat="45.58013" lon="6.64568">
        <ele>1647.66</ele>
        <time>2020-01-08T13:38:35.999Z</time>
      </trkpt>
      <trkpt lat="45.58004" lon="6.64561">
        <ele>1646.23</ele>
        <time>2020-01-08T13:38:38.999Z</time>
      </trkpt>
      <trkpt lat="45.57993" lon="6.64557">
        <ele>1644.46</ele>
        <time>2020-01-08T13:38:41.999Z</time>
      </trkpt>
      <trkpt lat="45.57984" lon="6.64551">
        <ele>1642.1</ele>
        <time>2020-01-08T13:38:43.999Z</time>
      </trkpt>
      <trkpt lat="45.57974" lon="6.64543">
        <ele>1639.76</ele>
        <time>2020-01-08T13:38:46.999Z</time>
      </trkpt>
      <trkpt lat="45.57962" lon="6.64536">
        <ele>1637.48</ele>
        <time>2020-01-08T13:38:49.999Z</time>
      </trkpt>
      <trkpt lat="45.57952" lon="6.64525">
        <ele>1635.6</ele>
        <time>2020-01-08T13:38:51.999Z</time>
      </trkpt>
      <trkpt lat="45.57937" lon="6.64515">
        <ele>1633.48</ele>
        <time>2020-01-08T13:38:53.999Z</time>
      </trkpt>
      <trkpt lat="45.57928" lon="6.6451">
        <ele>1632.38</ele>
        <time>2020-01-08T13:38:54.999Z</time>
      </trkpt>
      <trkpt lat="45.57916" lon="6.64502">
        <ele>1630.2</ele>
        <time>2020-01-08T13:38:56.999Z</time>
      </trkpt>
      <trkpt lat="45.57907" lon="6.64496">
        <ele>1629.4</ele>
        <time>2020-01-08T13:38:59.999Z</time>
      </trkpt>
      <trkpt lat="45.57902" lon="6.64508">
        <ele>1627.34</ele>
        <time>2020-01-08T13:39:04.999Z</time>
      </trkpt>
      <trkpt lat="45.57911" lon="6.6452">
        <ele>1626.28</ele>
        <time>2020-01-08T13:39:07.999Z</time>
      </trkpt>
      <trkpt lat="45.57921" lon="6.64526">
        <ele>1625.58</ele>
        <time>2020-01-08T13:39:10.999Z</time>
      </trkpt>
      <trkpt lat="45.57931" lon="6.64535">
        <ele>1624.76</ele>
        <time>2020-01-08T13:39:13.999Z</time>
      </trkpt>
      <trkpt lat="45.5794" lon="6.64544">
        <ele>1623.84</ele>
        <time>2020-01-08T13:39:16.999Z</time>
      </trkpt>
      <trkpt lat="45.57951" lon="6.64552">
        <ele>1620.38</ele>
        <time>2020-01-08T13:39:19.999Z</time>
      </trkpt>
      <trkpt lat="45.5796" lon="6.64561">
        <ele>1619.34</ele>
        <time>2020-01-08T13:39:22.999Z</time>
      </trkpt>
      <trkpt lat="45.5797" lon="6.64569">
        <ele>1616.68</ele>
        <time>2020-01-08T13:39:25.999Z</time>
      </trkpt>
      <trkpt lat="45.57979" lon="6.64575">
        <ele>1612.23</ele>
        <time>2020-01-08T13:39:27.999Z</time>
      </trkpt>
      <trkpt lat="45.57988" lon="6.64581">
        <ele>1608.7</ele>
        <time>2020-01-08T13:39:29.999Z</time>
      </trkpt>
      <trkpt lat="45.57996" lon="6.6459">
        <ele>1607.65</ele>
        <time>2020-01-08T13:39:32.999Z</time>
      </trkpt>
      <trkpt lat="45.58007" lon="6.64602">
        <ele>1604.68</ele>
        <time>2020-01-08T13:39:35.999Z</time>
      </trkpt>
      <trkpt lat="45.58015" lon="6.6461">
        <ele>1603.44</ele>
        <time>2020-01-08T13:39:37.999Z</time>
      </trkpt>
      <trkpt lat="45.58025" lon="6.64622">
        <ele>1600.46</ele>
        <time>2020-01-08T13:39:40.999Z</time>
      </trkpt>
      <trkpt lat="45.58035" lon="6.64635">
        <ele>1598.4</ele>
        <time>2020-01-08T13:39:43.999Z</time>
      </trkpt>
      <trkpt lat="45.58042" lon="6.64649">
        <ele>1597.39</ele>
        <time>2020-01-08T13:39:45.999Z</time>
      </trkpt>
      <trkpt lat="45.58048" lon="6.64663">
        <ele>1596.58</ele>
        <time>2020-01-08T13:39:47.999Z</time>
      </trkpt>
      <trkpt lat="45.58053" lon="6.64674">
        <ele>1595.86</ele>
        <time>2020-01-08T13:39:49.999Z</time>
      </trkpt>
      <trkpt lat="45.58059" lon="6.64687">
        <ele>1595.26</ele>
        <time>2020-01-08T13:39:51.999Z</time>
      </trkpt>
      <trkpt lat="45.58063" lon="6.64709">
        <ele>1594.56</ele>
        <time>2020-01-08T13:39:53.999Z</time>
      </trkpt>
      <trkpt lat="45.58066" lon="6.64726">
        <ele>1593.27</ele>
        <time>2020-01-08T13:39:55.999Z</time>
      </trkpt>
      <trkpt lat="45.5807" lon="6.64742">
        <ele>1591.89</ele>
        <time>2020-01-08T13:39:57.999Z</time>
      </trkpt>
      <trkpt lat="45.58074" lon="6.64758">
        <ele>1589.84</ele>
        <time>2020-01-08T13:39:59.999Z</time>
      </trkpt>
      <trkpt lat="45.5808" lon="6.6477">
        <ele>1585.18</ele>
        <time>2020-01-08T13:40:55.999Z</time>
      </trkpt>
      <trkpt lat="45.58087" lon="6.64778">
        <ele>1584.04</ele>
        <time>2020-01-08T13:40:59.999Z</time>
      </trkpt>
      <trkpt lat="45.58095" lon="6.64787">
        <ele>1581.56</ele>
        <time>2020-01-08T13:41:02.999Z</time>
      </trkpt>
      <trkpt lat="45.58101" lon="6.64798">
        <ele>1579.14</ele>
        <time>2020-01-08T13:41:04.999Z</time>
      </trkpt>
      <trkpt lat="45.5811" lon="6.64805">
        <ele>1576.84</ele>
        <time>2020-01-08T13:41:06.999Z</time>
      </trkpt>
      <trkpt lat="45.58119" lon="6.64811">
        <ele>1576.24</ele>
        <time>2020-01-08T13:41:09.999Z</time>
      </trkpt>
      <trkpt lat="45.58128" lon="6.64815">
        <ele>1575.85</ele>
        <time>2020-01-08T13:41:12.999Z</time>
      </trkpt>
      <trkpt lat="45.58138" lon="6.64819">
        <ele>1575.48</ele>
        <time>2020-01-08T13:41:15.999Z</time>
      </trkpt>
      <trkpt lat="45.58147" lon="6.64826">
        <ele>1573.67</ele>
        <time>2020-01-08T13:41:17.999Z</time>
      </trkpt>
      <trkpt lat="45.58159" lon="6.64825">
        <ele>1572.17</ele>
        <time>2020-01-08T13:41:19.999Z</time>
      </trkpt>
      <trkpt lat="45.58169" lon="6.6483">
        <ele>1571.17</ele>
        <time>2020-01-08T13:41:21.999Z</time>
      </trkpt>
      <trkpt lat="45.5818" lon="6.64834">
        <ele>1570.51</ele>
        <time>2020-01-08T13:41:23.999Z</time>
      </trkpt>
      <trkpt lat="45.5819" lon="6.64838">
        <ele>1570.05</ele>
        <time>2020-01-08T13:41:25.999Z</time>
      </trkpt>
      <trkpt lat="45.58201" lon="6.64841">
        <ele>1569.73</ele>
        <time>2020-01-08T13:41:27.999Z</time>
      </trkpt>
      <trkpt lat="45.58212" lon="6.6485">
        <ele>1569.49</ele>
        <time>2020-01-08T13:41:29.999Z</time>
      </trkpt>
      <trkpt lat="45.58223" lon="6.64856">
        <ele>1569.3</ele>
        <time>2020-01-08T13:41:32.999Z</time>
      </trkpt>
      <trkpt lat="45.58238" lon="6.64863">
        <ele>1569.15</ele>
        <time>2020-01-08T13:41:34.999Z</time>
      </trkpt>
      <trkpt lat="45.58248" lon="6.64872">
        <ele>1569.02</ele>
        <time>2020-01-08T13:41:36.999Z</time>
      </trkpt>
      <trkpt lat="45.58259" lon="6.64879">
        <ele>1568.91</ele>
        <time>2020-01-08T13:41:38.999Z</time>
      </trkpt>
      <trkpt lat="45.58268" lon="6.64886">
        <ele>1568.81</ele>
        <time>2020-01-08T13:41:40.999Z</time>
      </trkpt>
      <trkpt lat="45.58276" lon="6.64894">
        <ele>1568.72</ele>
        <time>2020-01-08T13:41:42.999Z</time>
      </trkpt>
      <trkpt lat="45.58285" lon="6.64903">
        <ele>1568.6</ele>
        <time>2020-01-08T13:41:44.999Z</time>
      </trkpt>
      <trkpt lat="45.58295" lon="6.64912">
        <ele>1568.43</ele>
        <time>2020-01-08T13:41:46.999Z</time>
      </trkpt>
      <trkpt lat="45.58303" lon="6.6492">
        <ele>1568.21</ele>
        <time>2020-01-08T13:41:48.999Z</time>
      </trkpt>
      <trkpt lat="45.58311" lon="6.64929">
        <ele>1568.07</ele>
        <time>2020-01-08T13:41:49.999Z</time>
      </trkpt>
      <trkpt lat="45.58319" lon="6.64941">
        <ele>1567.81</ele>
        <time>2020-01-08T13:41:51.999Z</time>
      </trkpt>
      <trkpt lat="45.58328" lon="6.64948">
        <ele>1567.7</ele>
        <time>2020-01-08T13:41:54.999Z</time>
      </trkpt>
      <trkpt lat="45.58336" lon="6.64958">
        <ele>1567.51</ele>
        <time>2020-01-08T13:41:57.999Z</time>
      </trkpt>
      <trkpt lat="45.58344" lon="6.64967">
        <ele>1567.29</ele>
        <time>2020-01-08T13:41:59.999Z</time>
      </trkpt>
      <trkpt lat="45.58351" lon="6.64975">
        <ele>1567.04</ele>
        <time>2020-01-08T13:42:01.999Z</time>
      </trkpt>
      <trkpt lat="45.58359" lon="6.64983">
        <ele>1566.76</ele>
        <time>2020-01-08T13:42:03.999Z</time>
      </trkpt>
      <trkpt lat="45.58367" lon="6.64989">
        <ele>1564.43</ele>
        <time>2020-01-08T13:42:05.999Z</time>
      </trkpt>
      <trkpt lat="45.58376" lon="6.65005">
        <ele>1562.08</ele>
        <time>2020-01-08T13:42:07.999Z</time>
      </trkpt>
      <trkpt lat="45.58384" lon="6.65015">
        <ele>1559.99</ele>
        <time>2020-01-08T13:42:09.999Z</time>
      </trkpt>
      <trkpt lat="45.58394" lon="6.65023">
        <ele>1558.14</ele>
        <time>2020-01-08T13:42:11.999Z</time>
      </trkpt>
      <trkpt lat="45.58405" lon="6.6503">
        <ele>1556.63</ele>
        <time>2020-01-08T13:42:13.999Z</time>
      </trkpt>
      <trkpt lat="45.58415" lon="6.65041">
        <ele>1555.26</ele>
        <time>2020-01-08T13:42:15.999Z</time>
      </trkpt>
      <trkpt lat="45.58423" lon="6.65048">
        <ele>1554.1</ele>
        <time>2020-01-08T13:42:17.999Z</time>
      </trkpt>
      <trkpt lat="45.58432" lon="6.65063">
        <ele>1552.61</ele>
        <time>2020-01-08T13:42:20.999Z</time>
      </trkpt>
      <trkpt lat="45.58439" lon="6.65074">
        <ele>1551.04</ele>
        <time>2020-01-08T13:42:22.999Z</time>
      </trkpt>
      <trkpt lat="45.58447" lon="6.65084">
        <ele>1549.36</ele>
        <time>2020-01-08T13:42:24.999Z</time>
      </trkpt>
      <trkpt lat="45.58455" lon="6.6509">
        <ele>1547.81</ele>
        <time>2020-01-08T13:42:26.999Z</time>
      </trkpt>
      <trkpt lat="45.58464" lon="6.65095">
        <ele>1546.38</ele>
        <time>2020-01-08T13:42:28.999Z</time>
      </trkpt>
      <trkpt lat="45.58473" lon="6.651">
        <ele>1545.11</ele>
        <time>2020-01-08T13:42:30.999Z</time>
      </trkpt>
      <trkpt lat="45.58482" lon="6.65103">
        <ele>1543.91</ele>
        <time>2020-01-08T13:42:32.999Z</time>
      </trkpt>
      <trkpt lat="45.58494" lon="6.65108">
        <ele>1542.07</ele>
        <time>2020-01-08T13:42:35.999Z</time>
      </trkpt>
      <trkpt lat="45.58507" lon="6.65113">
        <ele>1540.25</ele>
        <time>2020-01-08T13:42:38.999Z</time>
      </trkpt>
      <trkpt lat="45.58518" lon="6.65118">
        <ele>1538.48</ele>
        <time>2020-01-08T13:42:41.999Z</time>
      </trkpt>
      <trkpt lat="45.58529" lon="6.65122">
        <ele>1537.52</ele>
        <time>2020-01-08T13:42:44.999Z</time>
      </trkpt>
      <trkpt lat="45.58538" lon="6.65127">
        <ele>1537.26</ele>
        <time>2020-01-08T13:42:47.999Z</time>
      </trkpt>
      <trkpt lat="45.5853" lon="6.65139">
        <ele>1534.75</ele>
        <time>2020-01-08T13:42:52.999Z</time>
      </trkpt>
      <trkpt lat="45.58519" lon="6.65143">
        <ele>1532.85</ele>
        <time>2020-01-08T13:42:55.999Z</time>
      </trkpt>
      <trkpt lat="45.58508" lon="6.65148">
        <ele>1531.72</ele>
        <time>2020-01-08T13:42:57.999Z</time>
      </trkpt>
      <trkpt lat="45.58499" lon="6.65155">
        <ele>1530.94</ele>
        <time>2020-01-08T13:42:59.999Z</time>
      </trkpt>
      <trkpt lat="45.5849" lon="6.65161">
        <ele>1530.15</ele>
        <time>2020-01-08T13:43:01.999Z</time>
      </trkpt>
      <trkpt lat="45.58477" lon="6.65166">
        <ele>1528.9</ele>
        <time>2020-01-08T13:43:04.999Z</time>
      </trkpt>
      <trkpt lat="45.58466" lon="6.6517">
        <ele>1527.81</ele>
        <time>2020-01-08T13:43:07.999Z</time>
      </trkpt>
      <trkpt lat="45.58457" lon="6.65174">
        <ele>1527.31</ele>
        <time>2020-01-08T13:43:09.999Z</time>
      </trkpt>
      <trkpt lat="45.58446" lon="6.65177">
        <ele>1526.93</ele>
        <time>2020-01-08T13:43:12.999Z</time>
      </trkpt>
      <trkpt lat="45.58436" lon="6.65178">
        <ele>1526.56</ele>
        <time>2020-01-08T13:43:15.999Z</time>
      </trkpt>
      <trkpt lat="45.58426" lon="6.65174">
        <ele>1525.37</ele>
        <time>2020-01-08T13:43:18.999Z</time>
      </trkpt>
      <trkpt lat="45.58416" lon="6.65171">
        <ele>1523.34</ele>
        <time>2020-01-08T13:43:20.999Z</time>
      </trkpt>
      <trkpt lat="45.58405" lon="6.65169">
        <ele>1521.66</ele>
        <time>2020-01-08T13:43:22.999Z</time>
      </trkpt>
      <trkpt lat="45.58395" lon="6.65166">
        <ele>1520.21</ele>
        <time>2020-01-08T13:43:24.999Z</time>
      </trkpt>
      <trkpt lat="45.58386" lon="6.65164">
        <ele>1519.83</ele>
        <time>2020-01-08T13:43:26.999Z</time>
      </trkpt>
      <trkpt lat="45.58374" lon="6.65162">
        <ele>1517.91</ele>
        <time>2020-01-08T13:43:29.999Z</time>
      </trkpt>
      <trkpt lat="45.58363" lon="6.65166">
        <ele>1515.85</ele>
        <time>2020-01-08T13:43:31.999Z</time>
      </trkpt>
      <trkpt lat="45.58351" lon="6.65166">
        <ele>1514.38</ele>
        <time>2020-01-08T13:43:34.999Z</time>
      </trkpt>
      <trkpt lat="45.58341" lon="6.65162">
        <ele>1513.01</ele>
        <time>2020-01-08T13:43:37.999Z</time>
      </trkpt>
      <trkpt lat="45.58329" lon="6.65159">
        <ele>1511.84</ele>
        <time>2020-01-08T13:43:40.999Z</time>
      </trkpt>
      <trkpt lat="45.58319" lon="6.65162">
        <ele>1510.44</ele>
        <time>2020-01-08T13:43:42.999Z</time>
      </trkpt>
      <trkpt lat="45.58307" lon="6.65163">
        <ele>1508.53</ele>
        <time>2020-01-08T13:43:44.999Z</time>
      </trkpt>
      <trkpt lat="45.58295" lon="6.65167">
        <ele>1507.22</ele>
        <time>2020-01-08T13:43:46.999Z</time>
      </trkpt>
      <trkpt lat="45.58286" lon="6.65169">
        <ele>1506.27</ele>
        <time>2020-01-08T13:43:48.999Z</time>
      </trkpt>
      <trkpt lat="45.58274" lon="6.65172">
        <ele>1504.54</ele>
        <time>2020-01-08T13:43:50.999Z</time>
      </trkpt>
      <trkpt lat="45.58265" lon="6.65171">
        <ele>1504.07</ele>
        <time>2020-01-08T13:43:52.999Z</time>
      </trkpt>
      <trkpt lat="45.58254" lon="6.6517">
        <ele>1503.67</ele>
        <time>2020-01-08T13:43:55.999Z</time>
      </trkpt>
      <trkpt lat="45.58243" lon="6.65167">
        <ele>1500.12</ele>
        <time>2020-01-08T13:43:58.999Z</time>
      </trkpt>
      <trkpt lat="45.58233" lon="6.65166">
        <ele>1496.73</ele>
        <time>2020-01-08T13:44:00.999Z</time>
      </trkpt>
      <trkpt lat="45.58222" lon="6.65168">
        <ele>1493.93</ele>
        <time>2020-01-08T13:44:03.999Z</time>
      </trkpt>
      <trkpt lat="45.5821" lon="6.65168">
        <ele>1491.86</ele>
        <time>2020-01-08T13:44:05.999Z</time>
      </trkpt>
      <trkpt lat="45.582" lon="6.65169">
        <ele>1489.89</ele>
        <time>2020-01-08T13:44:07.999Z</time>
      </trkpt>
      <trkpt lat="45.58187" lon="6.65174">
        <ele>1486.51</ele>
        <time>2020-01-08T13:44:10.999Z</time>
      </trkpt>
      <trkpt lat="45.58174" lon="6.6518">
        <ele>1483.98</ele>
        <time>2020-01-08T13:44:12.999Z</time>
      </trkpt>
      <trkpt lat="45.58162" lon="6.65186">
        <ele>1481.45</ele>
        <time>2020-01-08T13:44:14.999Z</time>
      </trkpt>
      <trkpt lat="45.58148" lon="6.65194">
        <ele>1478.82</ele>
        <time>2020-01-08T13:44:16.999Z</time>
      </trkpt>
      <trkpt lat="45.58135" lon="6.652">
        <ele>1475.69</ele>
        <time>2020-01-08T13:44:18.999Z</time>
      </trkpt>
      <trkpt lat="45.58122" lon="6.65202">
        <ele>1471.56</ele>
        <time>2020-01-08T13:44:20.999Z</time>
      </trkpt>
      <trkpt lat="45.58113" lon="6.65205">
        <ele>1466.9</ele>
        <time>2020-01-08T13:44:22.999Z</time>
      </trkpt>
      <trkpt lat="45.58103" lon="6.65211">
        <ele>1458.29</ele>
        <time>2020-01-08T13:44:25.999Z</time>
      </trkpt>
      <trkpt lat="45.58091" lon="6.65217">
        <ele>1452.54</ele>
        <time>2020-01-08T13:44:27.999Z</time>
      </trkpt>
      <trkpt lat="45.58081" lon="6.65219">
        <ele>1447.15</ele>
        <time>2020-01-08T13:44:29.999Z</time>
      </trkpt>
      <trkpt lat="45.58069" lon="6.65226">
        <ele>1442.6</ele>
        <time>2020-01-08T13:44:31.999Z</time>
      </trkpt>
      <trkpt lat="45.58058" lon="6.65231">
        <ele>1438.81</ele>
        <time>2020-01-08T13:44:33.999Z</time>
      </trkpt>
      <trkpt lat="45.58046" lon="6.65233">
        <ele>1435.53</ele>
        <time>2020-01-08T13:44:35.999Z</time>
      </trkpt>
      <trkpt lat="45.58036" lon="6.6524">
        <ele>1432.77</ele>
        <time>2020-01-08T13:44:37.999Z</time>
      </trkpt>
      <trkpt lat="45.58026" lon="6.65245">
        <ele>1430.51</ele>
        <time>2020-01-08T13:44:39.999Z</time>
      </trkpt>
      <trkpt lat="45.58015" lon="6.65251">
        <ele>1428.8</ele>
        <time>2020-01-08T13:44:41.999Z</time>
      </trkpt>
      <trkpt lat="45.58005" lon="6.65256">
        <ele>1427.38</ele>
        <time>2020-01-08T13:44:43.999Z</time>
      </trkpt>
      <trkpt lat="45.57994" lon="6.65262">
        <ele>1426.01</ele>
        <time>2020-01-08T13:44:45.999Z</time>
      </trkpt>
      <trkpt lat="45.57983" lon="6.65263">
        <ele>1424.54</ele>
        <time>2020-01-08T13:44:47.999Z</time>
      </trkpt>
      <trkpt lat="45.57971" lon="6.65263">
        <ele>1422.96</ele>
        <time>2020-01-08T13:44:49.999Z</time>
      </trkpt>
      <trkpt lat="45.57958" lon="6.6526">
        <ele>1421.32</ele>
        <time>2020-01-08T13:44:51.999Z</time>
      </trkpt>
      <trkpt lat="45.57946" lon="6.65258">
        <ele>1419.74</ele>
        <time>2020-01-08T13:44:53.999Z</time>
      </trkpt>
      <trkpt lat="45.57933" lon="6.65256">
        <ele>1418.35</ele>
        <time>2020-01-08T13:44:55.999Z</time>
      </trkpt>
      <trkpt lat="45.57922" lon="6.65252">
        <ele>1417.16</ele>
        <time>2020-01-08T13:44:57.999Z</time>
      </trkpt>
      <trkpt lat="45.57912" lon="6.65253">
        <ele>1416.09</ele>
        <time>2020-01-08T13:44:59.999Z</time>
      </trkpt>
      <trkpt lat="45.57902" lon="6.65245">
        <ele>1415.23</ele>
        <time>2020-01-08T13:45:02.999Z</time>
      </trkpt>
      <trkpt lat="45.57892" lon="6.6524">
        <ele>1413.73</ele>
        <time>2020-01-08T13:45:05.999Z</time>
      </trkpt>
      <trkpt lat="45.57883" lon="6.65235">
        <ele>1413.41</ele>
        <time>2020-01-08T13:45:08.999Z</time>
      </trkpt>
      <trkpt lat="45.57874" lon="6.65229">
        <ele>1412.98</ele>
        <time>2020-01-08T13:45:12.999Z</time>
      </trkpt>
      <trkpt lat="45.57863" lon="6.65224">
        <ele>1412.38</ele>
        <time>2020-01-08T13:45:17.999Z</time>
      </trkpt>
      <trkpt lat="45.57854" lon="6.65221">
        <ele>1411.67</ele>
        <time>2020-01-08T13:45:23.999Z</time>
      </trkpt>
      <trkpt lat="45.57845" lon="6.65218">
        <ele>1409.9</ele>
        <time>2020-01-08T13:45:34.999Z</time>
      </trkpt>
      <trkpt lat="45.57836" lon="6.65213">
        <ele>1408.2</ele>
        <time>2020-01-08T13:46:07.999Z</time>
      </trkpt>
      <trkpt lat="45.57827" lon="6.65215">
        <ele>1406.22</ele>
        <time>2020-01-08T13:46:23.999Z</time>
      </trkpt>
      <trkpt lat="45.57818" lon="6.65214">
        <ele>1404.63</ele>
        <time>2020-01-08T13:46:34.999Z</time>
      </trkpt>
      <trkpt lat="45.57808" lon="6.65212">
        <ele>1403.28</ele>
        <time>2020-01-08T13:46:45.999Z</time>
      </trkpt>
      <trkpt lat="45.57806" lon="6.65226">
        <ele>1400.01</ele>
        <time>2020-01-08T13:48:20.999Z</time>
      </trkpt>
    </trkseg>
  </trk>
</gpx>